[[{"header":{"parameterUnit":"m.s-1","parameterCategory":1,"la1":31.0,"la2":29.5877,"lo1":-88.7671,"lo2":-86.6584,"dy":0.0162,"dx":0.0185,"nx":115,"ny":88,"refTime":"2023-05-04T00:00:00:Z","depth":0,"parameterNumber":2,"parameterNumberName":"U-component_of_WINDS"},"data":[0.0,0.0,0.0,0.0,0.0,0.0,0.0,0.0,0.0,0.0,0.0,0.0,0.0,0.0,0.0,0.0,0.0,0.0,0.0,0.0,0.0,0.0,0.0,0.0,0.0,0.0,0.0,0.0,0.0,0.0,0.0,0.0,0.0,0.0,0.0,0.0,0.0,0.0,0.0,0.0,0.0,0.0,0.0,0.0,0.0,0.0,0.0,0.0,0.0,0.0,0.0,0.0,0.0,0.0,0.0,0.0,0.0,0.0,0.0,0.0,0.0,0.0,0.0,0.0,0.0,0.0,0.0,0.0,0.0,0.0,0.0,0.0,0.0,0.0,0.0,0.0,0.0,0.0,0.0,0.0,0.0,0.0,0.0,0.0,0.0,0.0,0.0,0.0,0.0,0.0,0.0,0.0,0.0,0.0,0.0,0.0,0.0,0.0,0.0,0.0,0.0,0.0,0.0,0.0,0.0,0.0,0.0,0.0,0.0,0.0,0.0,0.0,0.0,0.0,0.0,0.0,0.0,0.0,0.0,0.0,0.0,0.0,0.0,0.0,0.0,0.0,0.0,0.0,0.0,0.0,0.0,0.0,0.0,0.0,0.0,0.0,0.0,0.0,0.0,0.0,0.0,0.0,0.0,0.0,0.0,0.0,0.0,0.0,0.0,0.0,0.0,0.0,0.0,0.0,0.0,0.0,0.0,0.0,0.0,0.0,0.0,0.0,0.0,0.0,0.0,0.0,0.0,0.0,0.0,0.0,0.0,0.0,0.0,0.0,0.0,0.0,0.0,0.0,0.0,0.0,0.0,0.0,0.0,0.0,0.0,0.0,0.0,0.0,0.0,0.0,0.0,0.0,0.0,0.0,0.0,0.0,0.0,0.0,0.0,0.0,0.0,0.0,0.0,0.0,0.0,0.0,0.0,0.0,0.0,0.0,0.0,0.0,0.0,0.0,0.0,0.0,0.0,0.0,0.0,0.0,0.0,0.0,0.0,0.0,0.0,0.0,0.0,0.0,0.0,0.0,0.0,0.0,0.0,0.0,0.0,0.0,0.0,0.0,0.0,0.0,0.0,0.0,0.0,0.0,0.0,0.0,0.0,0.0,0.0,0.0,0.0,0.0,0.0,0.0,0.0,0.0,0.0,0.0,0.0,0.0,0.0,0.0,0.0,0.0,0.0,0.0,0.0,0.0,0.0,0.0,0.0,0.0,0.0,0.0,0.0,0.0,0.0,0.0,0.0,0.0,0.0,0.0,0.0,0.0,0.0,0.0,0.0,0.0,0.0,0.0,0.0,0.0,0.0,0.0,0.0,0.0,0.0,0.0,0.0,0.0,0.0,0.0,0.0,0.0,0.0,0.0,0.0,0.0,0.0,0.0,0.0,0.0,0.0,0.0,0.0,0.0,0.0,0.0,0.0,0.0,0.0,0.0,0.0,0.0,0.0,0.0,0.0,0.0,0.0,0.0,0.0,0.0,0.0,0.0,0.0,0.0,0.0,0.0,0.0,0.0,0.0,0.0,0.0,0.0,0.0,0.0,0.0,0.0,0.0,0.0,0.0,0.0,0.0,0.0,0.0,0.0,0.0,0.0,0.0,0.0,0.0,0.0,0.0,0.0,0.0,0.0,0.0,0.0,0.0,0.0,0.0,0.0,0.0,0.0,0.0,0.0,0.0,0.0,0.0,0.0,0.0,0.0,0.0,0.0,0.0,0.0,0.0,0.0,0.0,0.0,0.0,0.0,0.0,0.0,0.0,0.0,0.0,0.0,0.0,0.0,0.0,0.0,0.0,0.0,0.0,0.0,0.0,0.0,0.0,0.0,0.0,0.0,0.0,0.0,0.0,0.0,0.0,0.0,0.0,0.0,0.0,0.0,0.0,0.0,0.0,0.0,0.0,0.0,0.0,0.0,0.0,0.0,0.0,0.0,0.0,0.0,0.0,0.0,0.0,0.0,0.0,0.0,0.0,0.0,0.0,0.0,0.0,0.0,0.0,0.0,0.0,0.0,0.0,0.0,0.0,0.0,0.0,0.0,0.0,0.0,0.0,0.0,0.0,0.0,0.0,0.0,0.0,0.0,0.0,0.0,0.0,0.0,0.0,0.0,0.0,0.0,0.0,0.0,0.0,0.0,0.0,0.0,0.0,0.0,0.0,0.0,0.0,0.0,0.0,0.0,0.0,0.0,0.0,0.0,0.0,0.0,0.0,0.0,0.0,0.0,0.0,0.0,0.0,0.0,0.0,0.0,0.0,0.0,0.0,0.0,0.0,0.0,0.0,0.0,0.0,0.0,0.0,0.0,0.0,0.0,0.0,0.0,0.0,0.0,0.0,0.0,0.0,0.0,0.0,0.0,0.0,0.0,0.0,0.0,0.0,0.0,0.0,0.0,0.0,0.0,0.0,0.0,0.0,0.0,0.0,0.0,0.0,0.0,0.0,0.0,0.0,0.0,0.0,0.0,0.0,0.0,0.0,0.0,0.0,0.0,0.0,0.0,0.0,0.0,0.0,0.0,0.0,0.0,0.0,0.0,0.0,0.0,0.0,0.0,0.0,0.0,0.0,0.0,0.0,0.0,0.0,0.0,0.0,0.0,0.0,0.0,0.0,0.0,0.0,0.0,0.0,0.0,0.0,0.0,0.0,0.0,0.0,0.0,0.0,0.0,0.0,0.0,0.0,0.0,0.0,0.0,0.0,0.0,0.0,0.0,0.0,0.0,0.0,0.0,0.0,0.0,0.0,0.0,0.0,0.0,0.0,0.0,0.0,0.0,0.0,0.0,0.0,0.0,0.0,0.0,0.0,0.0,0.0,0.0,0.0,0.0,0.0,0.0,0.0,0.0,0.0,0.0,0.0,0.0,0.0,0.0,0.0,0.0,0.0,0.0,0.0,0.0,0.0,0.0,0.0,0.0,0.0,0.0,0.0,0.0,0.0,0.0,0.0,0.0,0.0,0.0,0.0,0.0,0.0,0.0,0.0,0.0,0.0,0.0,0.0,0.0,0.0,0.0,0.0,0.0,0.0,0.0,0.0,0.0,0.0,0.0,0.0,0.0,0.0,0.0,0.0,0.0,0.0,0.0,0.0,0.0,0.0,0.0,0.0,0.0,0.0,0.0,0.0,0.0,0.0,0.0,0.0,0.0,0.0,0.0,0.0,0.0,0.0,0.0,0.0,0.0,0.0,0.0,0.0,0.0,0.0,0.0,0.0,0.0,0.0,0.0,0.0,0.0,0.0,0.0,0.0,0.0,0.0,0.0,0.0,0.0,0.0,0.0,0.0,0.0,0.0,0.0,0.0,0.0,0.0,0.0,0.0,0.0,0.0,0.0,0.0,0.0,0.0,0.0,0.0,0.0,0.0,0.0,0.0,0.0,0.0,0.0,0.0,0.0,0.0,0.0,0.0,0.0,0.0,0.0,0.0,0.0,0.0,0.0,0.0,0.0,0.0,0.0,0.0,0.0,0.0,0.0,0.0,0.0,0.0,0.0,0.0,0.0,0.0,0.0,0.0,0.0,0.0,0.0,0.0,0.0,0.0,0.0,0.0,0.0,0.0,0.0,0.0,0.0,0.0,0.0,0.0,0.0,0.0,0.0,0.0,0.0,0.0,0.0,0.0,0.0,0.0,0.0,0.0,0.0,0.0,0.0,0.0,0.0,0.0,0.0,0.0,0.0,0.0,0.0,0.0,0.0,0.0,0.0,0.0,0.0,0.0,0.0,0.0,0.0,0.0,0.0,0.0,0.0,0.0,0.0,0.0,0.0,0.0,0.0,0.0,0.0,0.0,0.0,0.0,0.0,0.0,0.0,0.0,0.0,0.0,0.0,0.0,0.0,0.0,0.0,0.0,0.0,0.0,0.0,0.0,0.0,0.0,0.0,0.0,0.0,0.0,0.0,0.0,0.0,0.0,0.0,0.0,0.0,0.0,0.0,0.0,0.0,0.0,0.0,0.0,0.0,0.0,0.0,0.0,0.0,0.0,0.0,0.0,0.0,0.0,0.0,0.0,0.0,0.0,0.0,0.0,0.0,0.0,0.0,0.0,0.0,0.0,0.0,0.0,0.0,0.0,0.0,0.0,0.0,0.0,0.0,0.0,0.0,0.0,0.0,0.0,0.0,0.0,0.0,0.0,0.0,0.0,0.0,0.0,0.0,0.0,0.0,0.0,0.0,0.0,0.0,0.0,0.0,0.0,0.0,0.0,0.0,0.0,0.0,0.0,0.0,0.0,0.0,0.0,0.0,0.0,0.0,0.0,0.0,0.0,0.0,0.0,0.0,0.0,0.0,-3.5801,0.0,0.0,0.0,0.0,0.0,0.0,0.0,0.0,0.0,0.0,0.0,0.0,0.0,0.0,0.0,0.0,0.0,0.0,0.0,0.0,0.0,0.0,0.0,0.0,0.0,0.0,0.0,0.0,0.0,0.0,0.0,0.0,0.0,0.0,0.0,0.0,0.0,0.0,0.0,0.0,0.0,0.0,0.0,0.0,0.0,0.0,0.0,0.0,0.0,0.0,0.0,0.0,0.0,0.0,0.0,0.0,0.0,0.0,0.0,0.0,0.0,0.0,0.0,0.0,0.0,0.0,0.0,0.0,0.0,0.0,0.0,0.0,0.0,0.0,0.0,0.0,0.0,0.0,0.0,0.0,0.0,0.0,0.0,0.0,0.0,0.0,0.0,0.0,0.0,0.0,0.0,0.0,0.0,0.0,0.0,0.0,0.0,0.0,0.0,0.0,0.0,0.0,0.0,0.0,0.0,0.0,0.0,0.0,0.0,0.0,-3.6016,-3.6016,-3.6016,-3.6016,-3.5976,0.0,0.0,0.0,0.0,0.0,0.0,0.0,0.0,0.0,0.0,0.0,0.0,0.0,0.0,0.0,0.0,0.0,0.0,0.0,0.0,0.0,0.0,0.0,0.0,0.0,0.0,0.0,0.0,0.0,0.0,0.0,0.0,0.0,0.0,0.0,0.0,0.0,0.0,0.0,0.0,0.0,0.0,0.0,0.0,0.0,0.0,0.0,0.0,0.0,0.0,0.0,0.0,0.0,0.0,0.0,0.0,0.0,0.0,0.0,0.0,0.0,0.0,0.0,0.0,0.0,0.0,0.0,0.0,0.0,0.0,0.0,0.0,0.0,0.0,0.0,0.0,0.0,0.0,0.0,0.0,0.0,0.0,0.0,0.0,0.0,0.0,0.0,0.0,0.0,0.0,0.0,0.0,0.0,0.0,0.0,0.0,0.0,0.0,0.0,0.0,0.0,0.0,0.0,0.0,0.0,0.0,0.0,0.0,0.0,0.0,0.0,0.0,-3.6016,-3.6016,-3.5957,0.0,0.0,0.0,0.0,0.0,0.0,0.0,0.0,0.0,0.0,0.0,0.0,0.0,0.0,0.0,0.0,0.0,0.0,0.0,0.0,0.0,0.0,0.0,0.0,0.0,0.0,0.0,0.0,0.0,0.0,0.0,0.0,0.0,0.0,0.0,0.0,0.0,0.0,0.0,0.0,0.0,0.0,0.0,0.0,0.0,0.0,0.0,0.0,0.0,0.0,0.0,0.0,0.0,0.0,0.0,0.0,0.0,0.0,0.0,0.0,0.0,0.0,0.0,0.0,0.0,0.0,0.0,0.0,0.0,0.0,0.0,0.0,0.0,0.0,0.0,0.0,0.0,0.0,0.0,0.0,0.0,0.0,0.0,0.0,0.0,0.0,0.0,0.0,0.0,0.0,0.0,0.0,0.0,0.0,0.0,0.0,0.0,0.0,0.0,0.0,0.0,0.0,0.0,0.0,0.0,0.0,0.0,0.0,0.0,0.0,-3.6016,-3.6016,-3.6016,0.0,-3.5937,0.0,0.0,0.0,0.0,0.0,0.0,0.0,0.0,0.0,0.0,0.0,0.0,0.0,0.0,0.0,0.0,0.0,0.0,0.0,0.0,0.0,0.0,0.0,0.0,0.0,0.0,0.0,0.0,0.0,0.0,0.0,0.0,0.0,0.0,0.0,0.0,0.0,0.0,0.0,0.0,0.0,0.0,0.0,0.0,0.0,0.0,0.0,0.0,0.0,0.0,0.0,0.0,0.0,0.0,0.0,0.0,0.0,0.0,0.0,0.0,0.0,0.0,0.0,0.0,0.0,0.0,0.0,0.0,0.0,0.0,0.0,0.0,0.0,0.0,0.0,0.0,0.0,0.0,0.0,0.0,0.0,0.0,0.0,0.0,0.0,0.0,0.0,0.0,0.0,0.0,0.0,0.0,0.0,0.0,0.0,0.0,0.0,0.0,0.0,0.0,0.0,0.0,0.0,0.0,0.0,0.0,0.0,0.0,0.0,0.0,-3.6016,-3.6016,-3.6016,-3.6016,0.0,0.0,0.0,0.0,0.0,0.0,0.0,0.0,0.0,0.0,0.0,0.0,0.0,0.0,0.0,0.0,0.0,0.0,0.0,0.0,0.0,0.0,0.0,0.0,0.0,0.0,0.0,0.0,0.0,0.0,0.0,0.0,0.0,0.0,0.0,0.0,0.0,0.0,0.0,0.0,0.0,0.0,0.0,0.0,0.0,0.0,0.0,0.0,0.0,0.0,0.0,0.0,0.0,0.0,0.0,0.0,0.0,0.0,0.0,0.0,0.0,0.0,0.0,0.0,0.0,0.0,0.0,0.0,0.0,0.0,0.0,0.0,0.0,0.0,0.0,0.0,0.0,0.0,0.0,0.0,0.0,0.0,0.0,0.0,0.0,0.0,0.0,0.0,0.0,0.0,0.0,0.0,0.0,0.0,0.0,0.0,0.0,0.0,0.0,0.0,0.0,0.0,0.0,0.0,0.0,0.0,0.0,0.0,0.0,0.0,-3.6016,-3.6016,-3.6016,-3.6016,-3.6016,-3.5996,0.0,0.0,0.0,0.0,0.0,0.0,0.0,0.0,0.0,0.0,0.0,0.0,0.0,0.0,0.0,0.0,0.0,0.0,0.0,0.0,0.0,0.0,0.0,0.0,0.0,0.0,0.0,0.0,0.0,0.0,0.0,0.0,0.0,0.0,0.0,0.0,0.0,0.0,0.0,0.0,0.0,0.0,0.0,0.0,0.0,0.0,0.0,0.0,0.0,0.0,0.0,0.0,0.0,0.0,0.0,0.0,0.0,0.0,0.0,0.0,0.0,0.0,0.0,0.0,0.0,0.0,0.0,0.0,0.0,0.0,0.0,0.0,0.0,0.0,0.0,0.0,0.0,0.0,0.0,0.0,0.0,0.0,0.0,0.0,0.0,0.0,0.0,0.0,0.0,0.0,0.0,0.0,0.0,0.0,0.0,0.0,0.0,0.0,0.0,0.0,0.0,0.0,0.0,0.0,0.0,0.0,0.0,0.0,-3.6016,-3.6016,-3.6016,-3.6016,-3.6016,-3.6016,0.0,0.0,0.0,0.0,0.0,0.0,0.0,0.0,0.0,0.0,0.0,0.0,0.0,0.0,0.0,0.0,0.0,0.0,0.0,0.0,0.0,0.0,0.0,0.0,0.0,0.0,0.0,0.0,0.0,0.0,0.0,0.0,0.0,0.0,0.0,0.0,0.0,0.0,0.0,0.0,0.0,0.0,0.0,0.0,0.0,0.0,0.0,0.0,0.0,0.0,0.0,0.0,0.0,0.0,0.0,0.0,0.0,0.0,0.0,0.0,0.0,0.0,0.0,0.0,0.0,0.0,0.0,0.0,0.0,0.0,0.0,0.0,0.0,0.0,0.0,0.0,0.0,0.0,0.0,0.0,0.0,0.0,0.0,0.0,0.0,0.0,0.0,0.0,0.0,0.0,0.0,0.0,0.0,0.0,0.0,0.0,0.0,0.0,0.0,0.0,0.0,0.0,0.0,0.0,0.0,0.0,0.0,0.0,0.0,-3.6016,-3.6016,-3.6016,-3.6016,-3.6016,-3.6016,0.0,0.0,0.0,0.0,0.0,0.0,0.0,0.0,0.0,0.0,0.0,0.0,0.0,0.0,0.0,0.0,0.0,0.0,0.0,0.0,0.0,0.0,0.0,0.0,0.0,0.0,0.0,0.0,0.0,0.0,0.0,0.0,0.0,0.0,0.0,0.0,0.0,0.0,0.0,0.0,0.0,0.0,0.0,0.0,0.0,0.0,0.0,0.0,0.0,0.0,0.0,0.0,0.0,0.0,0.0,0.0,0.0,0.0,0.0,0.0,0.0,0.0,0.0,0.0,0.0,0.0,0.0,0.0,0.0,0.0,0.0,0.0,0.0,0.0,0.0,0.0,0.0,0.0,0.0,0.0,0.0,0.0,0.0,0.0,0.0,0.0,0.0,0.0,0.0,0.0,0.0,0.0,0.0,0.0,0.0,0.0,0.0,0.0,0.0,0.0,0.0,0.0,0.0,0.0,0.0,0.0,0.0,0.0,0.0,-3.5996,0.0,-3.5703,0.0,-3.6016,-3.6016,0.0,0.0,0.0,0.0,0.0,0.0,0.0,0.0,0.0,0.0,0.0,0.0,0.0,0.0,0.0,0.0,0.0,0.0,0.0,0.0,0.0,0.0,0.0,0.0,0.0,0.0,0.0,0.0,0.0,0.0,0.0,0.0,0.0,0.0,0.0,0.0,0.0,0.0,0.0,0.0,0.0,0.0,0.0,0.0,0.0,0.0,0.0,0.0,0.0,0.0,0.0,0.0,0.0,0.0,0.0,0.0,0.0,0.0,0.0,0.0,0.0,0.0,0.0,0.0,0.0,0.0,0.0,0.0,0.0,0.0,0.0,0.0,0.0,0.0,0.0,0.0,0.0,0.0,0.0,0.0,0.0,0.0,0.0,0.0,0.0,0.0,0.0,0.0,0.0,0.0,0.0,0.0,0.0,0.0,0.0,0.0,0.0,0.0,0.0,0.0,0.0,0.0,0.0,0.0,0.0,0.0,0.0,0.0,-3.5976,-3.5976,-3.5195,-3.5176,-3.5957,-3.5996,-3.5996,0.0,0.0,0.0,0.0,0.0,0.0,0.0,0.0,0.0,0.0,0.0,0.0,0.0,0.0,0.0,0.0,0.0,0.0,0.0,0.0,0.0,0.0,0.0,0.0,0.0,0.0,0.0,0.0,0.0,0.0,0.0,0.0,0.0,0.0,0.0,0.0,0.0,0.0,0.0,0.0,0.0,0.0,0.0,0.0,0.0,0.0,0.0,0.0,0.0,0.0,0.0,0.0,0.0,0.0,0.0,0.0,0.0,0.0,0.0,0.0,0.0,0.0,0.0,0.0,0.0,0.0,0.0,0.0,0.0,0.0,0.0,0.0,0.0,0.0,0.0,0.0,0.0,0.0,0.0,0.0,0.0,0.0,0.0,0.0,0.0,0.0,0.0,0.0,0.0,0.0,0.0,0.0,0.0,0.0,0.0,0.0,0.0,0.0,0.0,0.0,0.0,0.0,0.0,0.0,0.0,0.0,0.0,0.0,0.0,-3.5976,-3.5723,-3.5449,-3.5137,-3.5684,-3.5723,0.0,0.0,0.0,0.0,0.0,0.0,0.0,0.0,0.0,0.0,0.0,0.0,0.0,0.0,0.0,0.0,0.0,0.0,0.0,0.0,0.0,0.0,0.0,0.0,0.0,0.0,0.0,0.0,0.0,0.0,0.0,0.0,0.0,0.0,0.0,0.0,0.0,0.0,0.0,0.0,0.0,0.0,0.0,0.0,0.0,0.0,0.0,0.0,0.0,0.0,0.0,0.0,0.0,0.0,0.0,0.0,0.0,0.0,0.0,0.0,0.0,0.0,0.0,0.0,0.0,0.0,0.0,0.0,0.0,0.0,0.0,0.0,0.0,0.0,0.0,0.0,0.0,0.0,0.0,0.0,0.0,0.0,0.0,0.0,0.0,0.0,0.0,0.0,0.0,0.0,0.0,0.0,0.0,0.0,0.0,0.0,0.0,0.0,0.0,0.0,0.0,0.0,0.0,0.0,0.0,0.0,0.0,0.0,0.0,-3.5957,-3.5684,-3.5254,-3.4707,-3.5547,-3.5586,-3.4766,0.0,0.0,0.0,0.0,0.0,0.0,0.0,0.0,0.0,0.0,0.0,0.0,0.0,0.0,0.0,0.0,0.0,0.0,0.0,0.0,0.0,0.0,0.0,0.0,0.0,0.0,0.0,0.0,0.0,0.0,0.0,0.0,0.0,0.0,0.0,0.0,0.0,0.0,0.0,0.0,0.0,0.0,0.0,0.0,0.0,0.0,0.0,0.0,0.0,0.0,0.0,0.0,0.0,0.0,0.0,0.0,0.0,0.0,0.0,0.0,0.0,0.0,0.0,0.0,0.0,0.0,0.0,0.0,0.0,0.0,0.0,0.0,0.0,0.0,0.0,0.0,0.0,0.0,0.0,0.0,0.0,0.0,0.0,0.0,0.0,0.0,0.0,0.0,0.0,0.0,0.0,0.0,0.0,0.0,0.0,0.0,0.0,0.0,0.0,0.0,0.0,0.0,0.0,0.0,0.0,0.0,0.0,0.0,-3.6016,-3.5195,-3.4726,-3.4629,-3.5508,-3.5566,0.0,0.0,0.0,0.0,0.0,0.0,0.0,0.0,0.0,0.0,0.0,0.0,0.0,0.0,0.0,0.0,0.0,0.0,0.0,0.0,0.0,0.0,0.0,0.0,0.0,0.0,0.0,0.0,0.0,0.0,0.0,0.0,0.0,0.0,0.0,0.0,0.0,0.0,0.0,0.0,0.0,0.0,0.0,0.0,0.0,0.0,0.0,0.0,0.0,0.0,0.0,0.0,0.0,0.0,0.0,0.0,0.0,0.0,0.0,0.0,0.0,0.0,0.0,0.0,0.0,0.0,0.0,0.0,0.0,0.0,0.0,0.0,0.0,0.0,0.0,0.0,0.0,0.0,0.0,0.0,0.0,0.0,0.0,0.0,0.0,0.0,0.0,0.0,0.0,0.0,0.0,0.0,0.0,0.0,0.0,0.0,0.0,0.0,0.0,0.0,0.0,0.0,0.0,0.0,0.0,0.0,0.0,0.0,0.0,-3.5993,-3.5779,-3.5038,-3.3828,-3.5195,-3.5293,0.0,0.0,0.0,0.0,0.0,0.0,0.0,0.0,0.0,0.0,0.0,0.0,0.0,0.0,0.0,0.0,0.0,0.0,0.0,0.0,0.0,0.0,0.0,0.0,0.0,0.0,0.0,0.0,0.0,0.0,0.0,0.0,0.0,0.0,0.0,0.0,0.0,0.0,0.0,0.0,0.0,0.0,0.0,0.0,0.0,0.0,0.0,0.0,0.0,0.0,0.0,0.0,0.0,0.0,0.0,0.0,0.0,0.0,0.0,0.0,0.0,0.0,0.0,0.0,0.0,0.0,0.0,0.0,0.0,0.0,0.0,0.0,0.0,0.0,0.0,0.0,0.0,0.0,0.0,0.0,0.0,0.0,0.0,0.0,0.0,0.0,0.0,0.0,0.0,0.0,0.0,0.0,0.0,0.0,0.0,0.0,0.0,0.0,0.0,0.0,0.0,0.0,0.0,0.0,0.0,0.0,0.0,0.0,-3.5983,-3.6004,-3.5983,-3.5321,-3.398,-3.4921,-3.498,0.0,0.0,0.0,0.0,0.0,0.0,0.0,0.0,0.0,0.0,0.0,0.0,0.0,0.0,0.0,0.0,0.0,0.0,0.0,0.0,0.0,0.0,0.0,0.0,0.0,0.0,0.0,0.0,0.0,0.0,0.0,0.0,0.0,0.0,0.0,0.0,0.0,0.0,0.0,0.0,0.0,0.0,0.0,0.0,0.0,0.0,0.0,0.0,0.0,0.0,0.0,0.0,0.0,0.0,0.0,0.0,0.0,0.0,0.0,0.0,0.0,0.0,0.0,0.0,0.0,0.0,0.0,0.0,0.0,0.0,0.0,0.0,0.0,0.0,0.0,0.0,0.0,0.0,0.0,0.0,0.0,0.0,0.0,0.0,0.0,0.0,0.0,0.0,0.0,0.0,0.0,0.0,0.0,0.0,0.0,0.0,0.0,0.0,0.0,0.0,0.0,0.0,0.0,0.0,0.0,0.0,0.0,0.0,-3.5919,-3.5985,-3.5919,-3.5568,-3.4854,-3.4757,-3.4667,0.0,0.0,0.0,0.0,0.0,0.0,0.0,0.0,0.0,0.0,0.0,0.0,0.0,0.0,0.0,0.0,0.0,0.0,0.0,0.0,0.0,0.0,0.0,0.0,0.0,0.0,0.0,0.0,0.0,0.0,0.0,0.0,0.0,0.0,0.0,0.0,0.0,0.0,0.0,0.0,0.0,0.0,0.0,0.0,0.0,0.0,0.0,0.0,0.0,0.0,0.0,0.0,0.0,0.0,0.0,0.0,0.0,0.0,0.0,0.0,0.0,0.0,0.0,0.0,0.0,0.0,0.0,0.0,0.0,0.0,0.0,0.0,0.0,0.0,0.0,0.0,0.0,0.0,0.0,0.0,0.0,0.0,0.0,0.0,0.0,0.0,0.0,0.0,0.0,0.0,0.0,0.0,0.0,0.0,0.0,0.0,0.0,0.0,0.0,0.0,0.0,0.0,0.0,0.0,0.0,0.0,0.0,0.0,-3.5833,-3.5836,-3.5883,-3.5814,-3.5651,-3.5015,-3.4386,0.0,0.0,0.0,0.0,0.0,0.0,0.0,0.0,0.0,0.0,0.0,0.0,0.0,0.0,0.0,0.0,0.0,0.0,0.0,0.0,0.0,0.0,0.0,0.0,0.0,0.0,0.0,0.0,0.0,0.0,0.0,0.0,0.0,0.0,0.0,0.0,0.0,0.0,0.0,0.0,0.0,0.0,0.0,0.0,0.0,0.0,0.0,0.0,-3.0404,0.0,0.0,0.0,0.0,0.0,0.0,0.0,0.0,0.0,0.0,0.0,0.0,0.0,0.0,0.0,0.0,0.0,0.0,0.0,0.0,0.0,0.0,0.0,0.0,0.0,0.0,0.0,0.0,0.0,0.0,0.0,0.0,0.0,0.0,0.0,0.0,0.0,0.0,0.0,0.0,0.0,0.0,0.0,0.0,0.0,0.0,0.0,0.0,0.0,0.0,0.0,0.0,0.0,0.0,0.0,0.0,0.0,0.0,0.0,-3.5154,-3.5166,-3.5574,-3.5799,-3.5751,-3.4637,-3.3994,0.0,0.0,0.0,0.0,0.0,0.0,0.0,0.0,0.0,0.0,0.0,0.0,0.0,0.0,0.0,0.0,0.0,0.0,0.0,0.0,0.0,0.0,0.0,0.0,0.0,0.0,0.0,0.0,0.0,0.0,0.0,0.0,0.0,0.0,0.0,0.0,0.0,0.0,0.0,0.0,0.0,0.0,0.0,0.0,0.0,0.0,0.0,0.0,0.0,0.0,0.0,0.0,0.0,0.0,0.0,0.0,0.0,0.0,0.0,0.0,0.0,0.0,0.0,0.0,0.0,0.0,0.0,0.0,0.0,0.0,0.0,0.0,0.0,0.0,0.0,0.0,0.0,0.0,0.0,0.0,0.0,0.0,0.0,0.0,0.0,0.0,0.0,0.0,0.0,0.0,0.0,0.0,0.0,0.0,0.0,0.0,0.0,0.0,0.0,0.0,0.0,0.0,0.0,0.0,0.0,0.0,0.0,-3.3955,-3.4386,-3.4425,-3.5243,-3.5679,-3.566,-3.4057,-3.3605,-3.4398,0.0,0.0,0.0,0.0,0.0,0.0,0.0,0.0,0.0,0.0,0.0,0.0,0.0,0.0,0.0,0.0,0.0,0.0,0.0,0.0,0.0,0.0,0.0,0.0,0.0,0.0,0.0,0.0,0.0,0.0,0.0,0.0,0.0,0.0,0.0,0.0,0.0,0.0,-2.9294,-2.9948,0.0,0.0,0.0,0.0,0.0,0.0,0.0,0.0,-2.9102,0.0,0.0,0.0,0.0,0.0,0.0,0.0,0.0,0.0,0.0,0.0,0.0,0.0,0.0,0.0,0.0,0.0,0.0,0.0,0.0,0.0,0.0,0.0,0.0,0.0,0.0,0.0,0.0,0.0,0.0,0.0,0.0,0.0,0.0,0.0,0.0,0.0,0.0,0.0,0.0,0.0,0.0,0.0,0.0,0.0,0.0,0.0,0.0,0.0,0.0,0.0,0.0,0.0,0.0,0.0,0.0,-3.3045,-3.389,-3.4309,-3.4334,-3.5168,-3.5623,-3.5571,-3.3993,-3.3204,-3.3371,0.0,0.0,0.0,0.0,0.0,0.0,0.0,0.0,0.0,0.0,0.0,0.0,0.0,0.0,0.0,0.0,0.0,0.0,0.0,0.0,0.0,0.0,0.0,0.0,0.0,0.0,0.0,0.0,0.0,0.0,0.0,0.0,0.0,0.0,0.0,0.0,0.0,0.0,0.0,-3.0308,-3.0404,0.0,0.0,0.0,0.0,0.0,0.0,0.0,0.0,-2.8665,0.0,0.0,0.0,0.0,0.0,0.0,0.0,0.0,0.0,0.0,0.0,0.0,0.0,0.0,0.0,0.0,0.0,0.0,0.0,0.0,0.0,0.0,0.0,0.0,0.0,0.0,0.0,0.0,0.0,0.0,0.0,0.0,0.0,0.0,0.0,0.0,0.0,0.0,0.0,0.0,0.0,0.0,0.0,0.0,0.0,0.0,0.0,0.0,0.0,0.0,0.0,0.0,0.0,0.0,0.0,-3.2366,-3.3164,-3.3788,-3.425,-3.5091,-3.5554,-3.5514,-3.3925,-3.3089,0.0,0.0,0.0,0.0,0.0,0.0,0.0,0.0,0.0,0.0,0.0,0.0,0.0,0.0,0.0,0.0,0.0,0.0,0.0,0.0,0.0,0.0,0.0,0.0,0.0,0.0,0.0,0.0,0.0,0.0,0.0,0.0,0.0,0.0,0.0,0.0,0.0,0.0,0.0,0.0,-3.0404,-3.0404,-3.0404,0.0,0.0,0.0,0.0,0.0,0.0,-2.9679,-2.8819,0.0,0.0,0.0,0.0,0.0,0.0,0.0,0.0,0.0,0.0,0.0,0.0,0.0,0.0,0.0,0.0,0.0,0.0,0.0,0.0,0.0,0.0,0.0,0.0,0.0,0.0,0.0,0.0,0.0,0.0,0.0,0.0,0.0,0.0,0.0,0.0,0.0,0.0,0.0,0.0,0.0,0.0,0.0,0.0,0.0,0.0,0.0,0.0,0.0,0.0,0.0,0.0,0.0,0.0,0.0,-3.1715,-3.2499,-3.3333,-3.4186,-3.5045,-3.5501,-3.5457,-3.3859,-3.2997,0.0,0.0,0.0,0.0,0.0,0.0,0.0,0.0,0.0,0.0,0.0,0.0,0.0,0.0,0.0,0.0,0.0,0.0,0.0,0.0,0.0,0.0,0.0,0.0,0.0,0.0,0.0,0.0,0.0,0.0,0.0,0.0,0.0,0.0,0.0,0.0,0.0,0.0,0.0,0.0,0.0,-3.0404,-3.0404,-3.0404,0.0,0.0,0.0,0.0,-3.0404,-2.9833,0.0,0.0,0.0,0.0,0.0,0.0,0.0,0.0,0.0,0.0,0.0,0.0,0.0,0.0,0.0,0.0,0.0,0.0,0.0,0.0,0.0,0.0,0.0,0.0,0.0,0.0,0.0,0.0,0.0,0.0,0.0,0.0,0.0,0.0,0.0,0.0,0.0,0.0,0.0,0.0,0.0,0.0,0.0,0.0,0.0,0.0,0.0,0.0,0.0,0.0,0.0,0.0,0.0,0.0,0.0,0.0,-3.1705,-3.2487,-3.3314,-3.4186,-3.5045,-3.5481,-3.5468,-3.3814,-3.2935,0.0,0.0,0.0,0.0,0.0,0.0,0.0,0.0,0.0,0.0,0.0,0.0,0.0,0.0,0.0,0.0,0.0,0.0,0.0,0.0,0.0,0.0,0.0,0.0,0.0,0.0,0.0,0.0,0.0,0.0,0.0,0.0,0.0,0.0,0.0,0.0,0.0,0.0,0.0,0.0,0.0,-3.0404,-3.0404,-3.0404,-3.0404,0.0,0.0,0.0,-3.0404,-3.0308,0.0,0.0,0.0,0.0,0.0,0.0,0.0,0.0,0.0,0.0,0.0,0.0,0.0,0.0,0.0,0.0,0.0,0.0,0.0,0.0,0.0,0.0,0.0,0.0,0.0,0.0,0.0,0.0,0.0,0.0,0.0,0.0,0.0,0.0,0.0,0.0,0.0,0.0,0.0,0.0,0.0,0.0,0.0,0.0,0.0,0.0,0.0,0.0,0.0,0.0,0.0,0.0,0.0,0.0,0.0,-3.1038,-3.2333,-3.2718,-3.3564,-3.4891,-3.5308,-3.55,-3.5481,-3.3814,-3.2897,0.0,0.0,0.0,0.0,0.0,0.0,0.0,0.0,0.0,0.0,0.0,0.0,0.0,0.0,0.0,0.0,0.0,0.0,0.0,0.0,0.0,0.0,0.0,0.0,0.0,0.0,0.0,0.0,0.0,0.0,0.0,0.0,0.0,0.0,0.0,0.0,0.0,0.0,0.0,0.0,0.0,0.0,-3.0404,-3.0404,0.0,0.0,0.0,-3.0404,-3.0404,0.0,0.0,0.0,0.0,0.0,0.0,0.0,0.0,0.0,0.0,0.0,0.0,0.0,0.0,0.0,0.0,0.0,0.0,0.0,0.0,0.0,0.0,0.0,0.0,0.0,0.0,0.0,0.0,0.0,0.0,0.0,0.0,0.0,0.0,0.0,0.0,0.0,0.0,0.0,0.0,0.0,0.0,0.0,0.0,0.0,0.0,0.0,0.0,0.0,0.0,0.0,0.0,0.0,0.0,0.0,0.0,0.0,-3.2852,-3.2891,-3.375,-3.5423,-3.55,-3.55,-3.5462,-3.3814,0.0,0.0,0.0,0.0,0.0,0.0,0.0,0.0,0.0,0.0,0.0,0.0,0.0,0.0,0.0,0.0,0.0,0.0,0.0,0.0,0.0,0.0,0.0,0.0,0.0,0.0,0.0,-2.9931,0.0,0.0,0.0,0.0,0.0,0.0,0.0,0.0,0.0,0.0,0.0,0.0,0.0,0.0,-3.0404,-3.0404,-3.0404,-3.0404,0.0,0.0,-3.0404,-3.0404,-3.0404,-3.0173,0.0,0.0,0.0,0.0,0.0,0.0,0.0,0.0,0.0,0.0,0.0,0.0,0.0,0.0,0.0,0.0,0.0,0.0,0.0,0.0,0.0,0.0,0.0,0.0,0.0,0.0,0.0,0.0,0.0,0.0,0.0,0.0,0.0,0.0,0.0,0.0,0.0,0.0,0.0,0.0,0.0,0.0,0.0,0.0,0.0,0.0,0.0,0.0,0.0,0.0,0.0,0.0,0.0,0.0,0.0,-3.2833,-3.2891,-3.3737,-3.5404,-3.55,-3.55,-3.5481,-3.3808,-3.291,0.0,0.0,0.0,0.0,0.0,0.0,0.0,0.0,0.0,0.0,0.0,0.0,0.0,0.0,0.0,0.0,0.0,0.0,0.0,0.0,0.0,0.0,0.0,0.0,0.0,0.0,0.0,0.0,0.0,0.0,0.0,0.0,0.0,0.0,0.0,0.0,0.0,0.0,0.0,0.0,0.0,-3.0404,-3.0404,-3.0404,-3.0404,0.0,0.0,-3.0404,-3.0404,-3.0404,-3.0385,-3.0327,0.0,0.0,0.0,0.0,0.0,0.0,0.0,0.0,0.0,0.0,0.0,0.0,0.0,0.0,0.0,0.0,0.0,0.0,0.0,0.0,0.0,0.0,0.0,0.0,0.0,0.0,0.0,0.0,0.0,0.0,0.0,0.0,0.0,0.0,0.0,0.0,0.0,0.0,0.0,0.0,0.0,0.0,0.0,0.0,0.0,0.0,0.0,0.0,0.0,0.0,0.0,0.0,0.0,-3.1231,-3.2872,-3.2891,-3.3737,-3.5404,-3.55,-3.55,-3.55,-3.4334,-3.3449,0.0,0.0,0.0,0.0,0.0,0.0,0.0,0.0,0.0,0.0,0.0,0.0,0.0,0.0,0.0,0.0,0.0,0.0,0.0,0.0,0.0,0.0,0.0,0.0,0.0,0.0,0.0,0.0,-3.0939,-3.1361,-3.166,0.0,0.0,0.0,0.0,0.0,0.0,0.0,0.0,0.0,0.0,-3.0404,-3.0404,-3.0404,0.0,0.0,-3.0404,-3.0404,-3.0404,-3.0404,-3.0404,-3.0404,-3.0115,0.0,0.0,0.0,0.0,0.0,0.0,0.0,0.0,0.0,0.0,0.0,0.0,0.0,0.0,0.0,0.0,0.0,0.0,0.0,0.0,0.0,0.0,0.0,0.0,0.0,0.0,0.0,0.0,0.0,0.0,0.0,0.0,0.0,0.0,0.0,0.0,0.0,0.0,0.0,0.0,0.0,0.0,0.0,0.0,0.0,0.0,0.0,0.0,0.0,0.0,0.0,0.0,-3.1212,-3.2891,-3.2891,-3.375,-3.5462,-3.55,-3.55,-3.5481,-3.4661,-3.3782,0.0,0.0,0.0,0.0,0.0,0.0,0.0,0.0,0.0,0.0,0.0,0.0,0.0,0.0,0.0,0.0,0.0,0.0,0.0,0.0,0.0,0.0,0.0,0.0,0.0,0.0,0.0,0.0,-3.0997,-3.1311,-3.1306,0.0,0.0,0.0,0.0,0.0,0.0,0.0,0.0,0.0,0.0,-3.0404,-3.0404,-3.0404,-3.0404,-3.0404,-3.0404,-3.0404,-3.0404,-3.0404,-3.0404,-3.0404,0.0,0.0,0.0,0.0,0.0,0.0,0.0,0.0,0.0,0.0,0.0,0.0,0.0,0.0,0.0,0.0,0.0,0.0,0.0,0.0,0.0,0.0,0.0,0.0,0.0,0.0,0.0,0.0,0.0,0.0,0.0,0.0,0.0,0.0,0.0,0.0,0.0,0.0,0.0,0.0,0.0,0.0,0.0,0.0,0.0,0.0,0.0,0.0,0.0,0.0,0.0,0.0,0.0,0.0,-3.2872,-3.2929,-3.3757,-3.5423,-3.55,-3.55,-3.5481,-3.468,-3.3801,-3.2968,0.0,0.0,0.0,0.0,0.0,0.0,0.0,0.0,0.0,0.0,0.0,0.0,0.0,0.0,0.0,0.0,0.0,0.0,0.0,0.0,0.0,0.0,0.0,0.0,0.0,0.0,-3.061,-3.0515,-3.0455,0.0,0.0,0.0,0.0,0.0,0.0,0.0,0.0,0.0,0.0,-3.0404,-3.0404,-3.0404,-3.0404,-3.0404,-3.0404,-3.0404,-3.0404,-3.0404,-3.0404,-3.0404,0.0,0.0,0.0,0.0,0.0,0.0,0.0,0.0,0.0,0.0,0.0,0.0,0.0,0.0,0.0,0.0,0.0,0.0,0.0,0.0,0.0,0.0,0.0,0.0,0.0,0.0,0.0,0.0,0.0,0.0,0.0,0.0,0.0,0.0,0.0,0.0,0.0,0.0,0.0,0.0,-3.5028,-3.5124,0.0,0.0,0.0,0.0,0.0,0.0,0.0,0.0,0.0,0.0,0.0,0.0,-3.1808,-3.2872,-3.3487,-3.4314,-3.5442,-3.55,-3.55,-3.55,-3.5212,-3.4661,-3.3795,0.0,0.0,0.0,0.0,0.0,0.0,0.0,0.0,0.0,0.0,0.0,0.0,0.0,0.0,0.0,0.0,0.0,0.0,0.0,0.0,0.0,0.0,0.0,0.0,0.0,-3.0665,0.0,0.0,0.0,0.0,0.0,0.0,0.0,0.0,0.0,0.0,0.0,-3.0404,-3.0404,-3.0404,-3.0404,-3.0404,-3.0404,-3.0404,0.0,0.0,0.0,0.0,0.0,0.0,0.0,0.0,0.0,0.0,0.0,0.0,0.0,0.0,-2.8107,-2.7563,-2.6774,-2.6154,-2.6154,0.0,0.0,0.0,0.0,0.0,0.0,0.0,0.0,0.0,0.0,0.0,0.0,0.0,0.0,0.0,0.0,-3.6648,0.0,0.0,0.0,0.0,0.0,0.0,0.0,0.0,-3.4751,-3.4782,-3.4841,-3.4936,-3.5009,0.0,-3.5171,-3.486,0.0,0.0,0.0,0.0,0.0,0.0,0.0,0.0,-3.2237,-3.3314,-3.3898,-3.4603,-3.5442,-3.55,-3.55,-3.5481,-3.5212,-3.4776,-3.4205,-3.366,-3.3622,0.0,0.0,0.0,0.0,0.0,0.0,0.0,0.0,0.0,0.0,0.0,0.0,0.0,0.0,0.0,0.0,0.0,0.0,0.0,0.0,0.0,0.0,0.0,-3.0688,0.0,0.0,0.0,0.0,0.0,0.0,0.0,0.0,0.0,-3.0404,-3.0404,-3.0404,-3.0404,-3.0404,-3.0404,-3.0404,0.0,0.0,0.0,0.0,0.0,0.0,0.0,-3.0404,-3.0404,-3.0404,-3.0404,-3.0404,-3.0404,-3.0404,-3.0404,0.0,0.0,-2.8467,-2.7626,-2.7044,-2.7063,-2.6582,-2.6197,-2.6192,-2.6212,-2.6212,0.0,0.0,0.0,0.0,0.0,0.0,0.0,0.0,-3.8689,-3.867,0.0,-3.7804,0.0,0.0,0.0,0.0,0.0,0.0,0.0,0.0,-3.4517,-3.4564,-3.4693,-3.4759,-3.4868,-3.4992,-3.5053,-3.4762,-3.4127,-3.3333,0.0,0.0,0.0,0.0,0.0,0.0,-3.2602,-3.4186,-3.4302,-3.4718,-3.5577,-3.5577,-3.5519,-3.5481,-3.4699,-3.4282,-3.4263,-3.4244,-3.4244,-3.4244,-3.5045,0.0,0.0,0.0,0.0,0.0,0.0,0.0,0.0,0.0,0.0,0.0,0.0,0.0,0.0,0.0,0.0,0.0,0.0,0.0,0.0,-3.0803,0.0,0.0,0.0,0.0,0.0,0.0,0.0,0.0,0.0,0.0,-3.0404,-3.0404,-3.0404,-3.0404,0.0,0.0,0.0,0.0,-3.0404,-3.0404,-3.0404,-3.0404,-3.0404,-3.0404,-3.0404,-3.0404,0.0,0.0,-3.0404,-3.0404,-3.0404,-3.0404,-3.0365,-3.0135,-2.9275,-2.8492,-2.7953,-2.7934,-2.7852,-2.7871,-2.7871,-2.7717,-2.7775,-3.8707,0.0,0.0,0.0,0.0,-3.8707,-3.8707,-3.8707,-3.8707,-3.8707,-3.8652,-3.786,0.0,0.0,0.0,0.0,0.0,0.0,-3.4191,-3.4245,-3.4269,-3.4316,-3.4356,-3.4454,-3.4583,-3.471,-3.487,-3.4912,-3.4781,-3.4048,-3.3304,-3.2564,0.0,0.0,0.0,0.0,-3.4026,-3.5096,-3.5699,-3.6392,-3.7276,-3.6673,-3.6077,-3.55,-3.525,-3.5135,-3.5135,-3.5122,-3.5122,-3.5141,-3.5365,0.0,0.0,0.0,0.0,0.0,0.0,0.0,0.0,0.0,0.0,0.0,0.0,0.0,0.0,0.0,0.0,0.0,0.0,0.0,-3.0812,-3.0796,-3.0788,0.0,0.0,0.0,0.0,0.0,0.0,0.0,0.0,0.0,-3.0481,-3.0404,-3.0404,0.0,0.0,-3.0404,-3.0404,-3.0404,-3.0404,-3.0404,0.0,0.0,0.0,-3.0404,-3.0404,-3.0404,-3.0404,-3.0404,-3.0404,-3.0404,-3.0404,-3.0404,-3.0404,-3.0308,-3.0058,-2.9352,-2.8794,-2.8742,-2.8313,-2.7909,-2.789,-2.789,-2.7909,-3.8982,-3.8707,-3.8707,-3.8707,-3.8707,-3.8707,-3.8707,-3.8707,-3.8707,-3.8707,-3.867,-3.8193,-3.7804,-3.7419,-3.6101,0.0,0.0,0.0,-3.5016,-3.506,-3.5099,-3.5112,-3.5125,-3.5225,-3.5335,-3.5483,-3.5657,-3.5815,-3.5979,-3.5574,-3.5195,-3.4748,0.0,0.0,-3.343,-3.4276,-3.5122,-3.5981,-3.6808,-3.7469,-3.7969,-3.7135,-3.6462,-3.6,-3.5673,-3.55,-3.55,-3.55,-3.55,-3.55,-3.55,-3.55,0.0,0.0,0.0,0.0,0.0,0.0,0.0,0.0,0.0,0.0,0.0,-3.0917,-3.0918,0.0,0.0,0.0,-3.0918,-3.0878,-3.0836,-3.0827,0.0,0.0,0.0,0.0,0.0,0.0,0.0,-3.0933,-3.1666,-3.1987,-3.1442,-3.1404,-3.1141,-3.05,-3.0404,-3.0519,-3.0865,0.0,-3.1019,-3.1352,-3.141,-3.1385,-3.141,-3.1385,-3.1288,-3.0962,-3.0904,-3.0769,-3.0442,-3.0404,-3.0404,-3.0404,-3.0404,-3.0404,-3.0404,-2.9948,-2.9621,-2.9602,-2.9236,-2.8909,-2.8909,-2.889,-2.889,-3.9478,-3.8799,-3.8726,-3.8707,-3.8707,-3.8707,-3.8707,-3.8707,-3.8707,-3.8707,-3.8707,-3.8707,-3.8248,-3.7456,-3.6721,0.0,0.0,-3.6366,-3.6394,-3.6482,-3.6482,-3.6482,-3.6464,-3.6532,-3.6658,-3.6775,-3.6919,-3.7088,-3.7244,-3.7373,-3.7519,-3.7591,-3.4722,-3.3658,-3.4507,-3.5308,-3.6089,-3.6904,-3.77,-3.8104,-3.8104,-3.7257,-3.6776,-3.6692,-3.5923,-3.55,-3.55,-3.55,-3.55,-3.55,-3.55,-3.55,-3.55,0.0,0.0,0.0,0.0,0.0,0.0,0.0,0.0,0.0,0.0,0.0,0.0,0.0,0.0,0.0,-3.0918,0.0,-3.0918,-3.0895,0.0,0.0,0.0,-3.0895,-3.0816,-3.1458,-3.1871,-3.1821,0.0,0.0,0.0,0.0,-3.2416,-3.0808,-3.0596,-3.0885,-3.1698,-3.1795,-3.2064,-3.2699,-3.2872,-3.2872,-3.2718,-3.2756,-3.2526,-3.1904,-3.175,-3.1391,-3.0692,-3.0423,-3.0423,-3.0404,-3.0404,-3.0404,-3.0404,-3.0365,-3.0404,-3.0346,-3.0346,-3.0346,-3.0269,-3.0269,-3.0231,-3.979,-3.9551,-3.8964,-3.8707,-3.8707,-3.8707,-3.8707,-3.8707,-3.8707,-3.8707,-3.8707,-3.8707,-3.8248,-3.7492,-3.7309,-3.6886,-3.6313,-3.6313,-3.6346,-3.636,-3.6342,-3.636,-3.6342,-3.6412,-3.6496,-3.6578,-3.6756,-3.6882,-3.6996,-3.7126,-3.7268,-3.7345,-3.6673,-3.6568,-3.7026,-3.7218,-3.7778,-3.8669,-3.888,-3.8977,-3.8957,-3.8142,-3.7373,-3.6692,-3.5923,-3.55,-3.55,-3.55,-3.55,-3.55,-3.55,-3.55,-3.55,-3.55,0.0,0.0,0.0,0.0,0.0,0.0,0.0,0.0,0.0,-3.0915,-3.0917,0.0,-3.0918,0.0,-3.0918,-3.0918,-3.0918,-3.1444,0.0,0.0,-3.2319,-3.2661,-3.26,-3.2712,-3.2788,-3.277,-3.3475,-3.371,-3.3069,-3.3525,-3.35,-3.2468,-3.2295,-3.2391,-3.2602,-3.2622,-3.2679,-3.2891,-3.2968,-3.2891,-3.2968,-3.2891,-3.2891,-3.266,-3.2102,-3.1621,-3.1423,-3.0827,-3.0404,-3.0404,-3.0404,-3.0404,-3.0404,-3.0404,-3.0404,-3.0404,-3.0404,-3.0404,-3.0404,-3.0404,-3.0404,-4.0763,-4.0377,-3.957,-3.9239,-3.9203,-3.8854,-3.8707,-3.8707,-3.8707,-3.8707,-3.8707,-3.8707,-3.845,-3.8043,-3.8043,-3.779,-3.7367,-3.7367,-3.7367,-3.7367,-3.7367,-3.7367,-3.7367,-3.7412,-3.7452,-3.752,-3.7678,-3.7782,-3.7856,-3.7997,-3.8124,-3.8241,-3.8345,-3.8553,-3.8829,-3.8544,-3.8684,-3.9246,-3.9615,-3.9669,-3.9284,-3.843,-3.7584,-3.6731,-3.5923,-3.55,-3.55,-3.55,-3.55,-3.55,-3.55,-3.55,-3.55,-3.55,-3.4731,0.0,0.0,0.0,0.0,0.0,0.0,0.0,0.0,0.0,0.0,0.0,-3.0918,0.0,-3.0918,0.0,-3.0918,-3.164,-3.2106,-3.2097,-3.2838,-3.3327,-3.3252,-3.353,-3.3708,-3.3682,-3.4384,-3.4697,-3.4223,-3.4513,-3.461,-3.4135,-3.4058,-3.3904,-3.3545,-3.3487,-3.3609,-3.3987,-3.4064,-3.4064,-3.4064,-3.4064,-3.393,-3.3526,-3.3122,-3.2602,-3.1852,-3.1308,-3.0865,-3.05,-3.0404,-3.0404,-3.0404,-3.0404,-3.0404,-3.0404,-3.0404,-3.0404,-3.0404,-3.0404,-3.0404,-4.1882,-4.1187,-4.0396,-4.0047,-3.9992,-3.9203,-3.8799,-3.8707,-3.8707,-3.8707,-3.8707,-3.8707,-3.8707,-3.8707,-3.8707,-3.8707,-3.8707,-3.8799,-3.8854,-3.8872,-3.8854,-3.8854,-3.8854,-3.8762,-3.8735,-3.8792,-3.8848,-3.8906,-3.8983,-3.9281,-3.944,-3.9518,-3.982,-4.0049,-4.0187,-3.969,-3.9399,-3.938,-4.0119,-4.0142,-3.9477,-3.8604,-3.7757,-3.6885,-3.6077,-3.5596,-3.55,-3.55,-3.55,-3.55,-3.55,-3.55,-3.55,-3.55,-3.4769,0.0,-3.3115,0.0,0.0,0.0,0.0,0.0,0.0,0.0,0.0,-3.0918,-3.0918,-3.0918,-3.0918,-3.0937,-3.1055,-3.1777,-3.2302,-3.2451,-3.3216,-3.3715,-3.3679,-3.4268,-3.465,-3.4594,-3.5195,-3.5626,-3.5538,-3.554,-3.5502,-3.5393,-3.5348,-3.509,-3.4552,-3.4353,-3.4603,-3.5423,-3.55,-3.5288,-3.5327,-3.5404,-3.5173,-3.4526,-3.418,-3.368,-3.2333,-3.1852,-3.1442,-3.0788,-3.05,-3.0404,-3.0404,-3.0404,-3.0404,-3.0404,-3.0404,-3.0404,-3.0404,-3.0404,-3.0404,-4.2194,-4.2011,-4.1187,-4.0875,-4.0802,-4.001,-3.9294,-3.8707,-3.8707,-3.8707,-3.8707,-3.8707,-3.8707,-3.8707,-3.8707,-3.8707,-3.8744,-3.9368,-3.9662,-3.968,-3.9662,-3.9662,-3.9625,-3.9001,-3.8689,-3.8738,-3.8777,-3.8818,-3.8851,-3.9568,-3.9989,-4.008,-4.0901,-4.137,0.0,0.0,0.0,0.0,-4.0414,-4.0419,-4.0265,-3.9477,-3.8642,-3.7777,-3.693,0.0,-3.5538,-3.55,-3.55,-3.55,-3.55,0.0,0.0,0.0,0.0,0.0,0.0,0.0,0.0,0.0,0.0,0.0,-3.0763,-3.0817,-3.0894,-3.0917,-3.0918,-3.0918,-3.0918,-3.1191,-3.1894,-3.2676,-3.3437,-3.4135,-3.4988,-3.548,-3.5437,-3.5489,-3.5558,-3.5545,-3.5636,-3.5643,-3.5615,-3.5587,-3.5546,-3.5522,-3.5502,-3.5444,-3.5276,-3.5199,-3.5308,-3.5462,-3.55,-3.55,-3.55,-3.55,-3.5462,-3.5192,-3.4603,-3.4103,-3.3667,-3.2545,-3.175,-3.141,-3.0865,-3.0423,-3.0404,-3.0404,-3.0404,-3.0404,-3.0404,-3.0404,-3.0404,-3.0404,-3.0404,-4.2892,0.0,-4.2029,-4.1699,0.0,-4.0836,-4.0286,-3.9811,-3.9038,-3.8707,-3.8707,-3.8707,-3.8707,-3.8707,-3.8707,-3.8707,-3.8744,-3.9533,-3.9882,-3.9882,-3.9882,-3.9882,-3.9863,-3.9074,-3.8927,-3.9276,-3.9323,-3.9574,-3.9926,-4.0409,-4.0674,-4.072,-4.1278,-4.1611,-4.1768,-4.2077,-4.1821,-4.0949,-4.0581,-4.0238,-3.9861,-3.9477,-3.885,-3.8007,0.0,0.0,0.0,0.0,0.0,0.0,0.0,0.0,0.0,0.0,0.0,-3.4263,-3.4218,-3.3672,-3.2522,-3.2449,-3.2156,-3.1352,-3.0986,-3.0817,-3.0894,-3.0917,-3.1074,-3.1464,-3.1523,-3.1894,-3.2715,-3.3555,-3.4238,-3.4683,-3.548,-3.5955,-3.5897,-3.5867,-3.5827,-3.5807,-3.5765,-3.5728,-3.5653,-3.5626,-3.5587,-3.5546,-3.554,-3.5541,-3.5502,-3.5494,-3.55,-3.55,-3.55,-3.55,-3.55,-3.55,-3.55,-3.5423,-3.5141,-3.4699,-3.4257,-3.3506,-3.2699,-3.1929,-3.1308,-3.0942,-3.0481,-3.0404,-3.0404,-3.0404,-3.0404,-3.0404,-3.0404,-3.0404,-3.0404,-4.3479,-4.3441,-4.28,-4.2506,-4.2451,-4.1662,-4.1224,-4.0985,0.0,0.0,0.0,-3.8707,-3.8707,-3.8707,-3.8707,-3.8781,-3.8964,-3.9753,-4.0194,-4.0304,-4.0175,-4.0102,-4.0065,-3.9148,-3.9111,-3.9863,-3.9882,-4.0304,-4.1093,-4.1287,-4.1392,-4.1409,-4.1662,-4.189,-4.2102,-4.2339,-4.2134,-4.1512,-4.0855,-4.0161,-3.9413,-3.9402,-3.9023,-3.8216,-3.7512,-3.6993,-3.6704,-3.6058,-3.5654,-3.55,-3.55,-3.55,-3.55,-3.55,-3.5192,-3.4507,-3.4436,-3.4058,-3.3296,-3.3283,-3.2972,-3.2205,-3.1605,-3.1185,-3.1125,-3.111,-3.1443,-3.2244,-3.2382,-3.2734,-3.3535,-3.4258,-3.4765,-3.4918,-3.5578,-3.5977,-3.5906,-3.5904,-3.5872,-3.5834,-3.5807,-3.5773,-3.5737,-3.5678,-3.5621,-3.5599,-3.5602,-3.5572,-3.5522,-3.5515,-3.55,-3.55,-3.55,-3.55,-3.55,-3.55,-3.55,-3.5481,-3.5481,-3.5238,-3.4641,-3.4302,-3.366,-3.2506,-3.2058,-3.1635,-3.1019,-3.0808,-3.0654,-3.0615,-3.05,-3.0404,-3.0404,-3.0404,-3.0404,-4.3479,-4.3496,-4.3369,-4.3349,-4.3259,-4.247,-4.1754,-4.1022,-4.0139,-3.935,-3.8707,-3.8707,-3.8707,-3.8707,-3.8707,-3.9074,-3.9772,-4.0561,-4.1313,0.0,-4.1277,-4.093,-4.0855,-3.9405,-3.9111,-3.9861,-3.9882,-4.0322,-4.1095,-4.1809,-4.2138,-4.2246,-4.2936,-4.3396,-4.3612,-4.3226,-4.265,-4.2027,-4.1561,-4.095,-4.0172,-4.0206,-3.9802,-3.8994,-3.8873,-3.8166,-3.6745,-3.6601,-3.6212,-3.5538,-3.55,-3.55,-3.55,-3.55,-3.5442,-3.5346,-3.5327,-3.4956,-3.4191,-3.4129,-3.3839,-3.3186,-3.3009,-3.268,-3.1993,-3.1925,-3.2301,-3.3104,-3.3241,-3.3593,-3.4394,-3.4668,-3.5039,-3.5682,-3.5914,-3.5986,-3.5988,-3.5945,-3.5899,-3.5875,-3.5822,-3.5799,-3.5773,-3.5728,-3.5658,-3.5626,-3.5618,-3.5589,-3.5591,-3.5547,-3.5507,-3.55,-3.55,-3.55,-3.55,-3.55,-3.55,-3.55,-3.55,-3.5462,-3.5269,-3.4718,-3.418,-3.3853,-3.316,-3.2699,-3.2449,-3.1968,-3.1596,-3.1487,-3.1038,-3.0596,-3.0596,-3.0577,-3.05,-4.3479,-4.3479,-4.3479,-4.3479,-4.3478,-4.3094,-4.2488,-4.1754,-4.1368,-4.0487,-3.9386,-3.935,-3.9111,-3.8707,-3.8707,-3.8909,-3.9294,-4.0084,-4.0634,-4.0946,-4.0616,-4.0432,-4.0341,-3.9258,-3.9368,-4.0506,-4.0561,-4.1203,-4.2341,-4.2782,-4.2947,-4.2982,-4.3468,-4.3783,-4.3923,-4.3815,-4.3404,-4.2696,-4.1795,-4.0974,-4.0215,-4.0252,-4.0116,-3.9749,-3.938,-3.8826,-3.8082,-3.7609,-3.6998,-3.6192,-3.6154,-3.5942,-3.5538,-3.55,-3.55,-3.55,-3.55,-3.5361,-3.5026,-3.4638,-3.4279,-3.3965,-3.3534,-3.3375,-3.3464,-3.3062,-3.3172,-3.3998,-3.4099,-3.4452,-3.5312,-3.539,-3.5566,-3.5956,-3.6012,-3.6007,-3.5995,-3.598,-3.5938,-3.5914,-3.5862,-3.5849,-3.5803,-3.5788,-3.5732,-3.5659,-3.5637,-3.5618,-3.5608,-3.5579,-3.556,-3.5521,-3.5494,-3.5481,-3.55,-3.55,-3.55,-3.55,-3.55,-3.55,-3.5481,-3.5103,-3.4757,-3.4295,-3.384,-3.3449,-3.3064,-3.2622,-3.2391,-3.2314,-3.2083,-3.1775,-3.1756,-3.1756,-3.1442,-4.3479,-4.3479,-4.3479,-4.3479,-4.3479,-4.3479,-4.313,-4.2598,-4.2543,-4.1754,-4.0506,-4.0065,-3.9533,-3.9001,-3.8781,-3.8817,-3.9038,-3.9606,-3.9992,-4.0139,-3.9974,-3.9882,-3.9808,-3.9074,-3.9536,-4.0948,-4.1113,-4.1919,-4.3332,-4.3479,-4.3479,-4.3496,-4.3651,-4.3804,-4.3883,-4.4101,-4.3851,-4.3132,-4.2146,-4.1234,-4.0389,-4.0224,-4.0187,-4.0233,-3.9684,-3.9287,-3.9136,-3.8538,-3.7794,-3.7043,-3.6974,-3.6615,-3.5846,-3.5769,-3.5673,-3.5538,-3.55,-3.5534,-3.5553,-3.5095,-3.4768,-3.4792,-3.4224,-3.4166,-3.472,-3.4324,-3.4231,-3.4868,-3.4994,-3.5271,-3.5819,-3.5976,-3.6016,-3.6015,-3.6013,-3.6009,-3.6019,-3.6009,-3.5974,-3.5929,-3.5914,-3.5869,-3.5822,-3.5792,-3.5763,-3.5737,-3.5659,-3.5637,-3.5623,-3.562,-3.5565,-3.5534,-3.5515,-3.5527,-3.5501,-3.5494,-3.5494,-3.5488,-3.55,-3.55,-3.5481,-3.5481,-3.5288,-3.468,-3.4526,-3.4295,-3.366,-3.3295,-3.3237,-3.3179,-3.2961,-3.2814,-3.2768,-3.2775,-3.2532,-4.3479,-4.3479,-4.3479,-4.3479,-4.3479,-4.3479,-4.3441,-4.3351,-4.3386,-4.2892,-4.1956,-4.0543,-3.9898,-3.9698,-3.9019,-3.9056,-3.968,-3.9845,-4.0249,-4.0781,-4.023,-3.9882,-3.9772,-3.9056,-3.9551,-4.0948,-4.1113,-4.1937,-4.3441,-4.3479,-4.3479,-4.3496,-4.3583,-4.3684,-4.3802,-4.3961,-4.3658,-4.2951,-4.3006,-4.2398,-4.1162,-4.0384,-4.0087,-4.0196,-4.0139,-3.9784,-3.9206,-3.909,-3.8669,-3.7882,-3.7851,-3.7481,-3.6712,-3.6577,-3.6269,-3.5615,-3.5538,-3.5534,-3.5611,-3.5588,-3.5616,-3.5683,-3.5577,-3.553,-3.5725,-3.568,-3.5682,-3.5811,-3.5845,-3.5891,-3.5975,-3.6014,-3.6015,-3.6016,-3.6015,-3.6013,-3.6009,-3.6019,-3.6007,-3.5997,-3.5934,-3.5886,-3.5875,-3.584,-3.5792,-3.5788,-3.5737,-3.5694,-3.5702,-3.5637,-3.559,-3.5601,-3.561,-3.556,-3.5515,-3.5483,-3.5509,-3.5494,-3.5488,-3.5494,-3.5514,-3.5494,-3.543,-3.5258,-3.5283,-3.5167,-3.4994,-3.468,-3.4109,-3.4045,-3.3679,-3.31,-3.3008,-3.3151,-3.2986,-4.3479,-4.3479,-4.3479,-4.3479,-4.3479,-4.3479,-4.3479,-4.3479,-4.3479,-4.3296,-4.2892,-4.1809,-4.0799,-3.9863,-3.9056,-3.8891,-3.9184,-3.9184,-3.9368,-3.9646,-3.9331,-3.9203,-3.9148,-3.8872,-3.9536,-4.1003,-4.1113,-4.1919,-4.324,-4.3479,-4.3479,-4.3496,-4.3565,-4.3634,-4.3684,-4.3849,-4.3791,-4.3549,-4.32,-4.2819,-4.2322,-4.1275,-4.0496,-4.0093,-4.0147,-4.0072,-3.9794,-3.9808,-3.9484,-3.8757,-3.8693,-3.8324,-3.7507,-3.7469,-3.7315,-3.7007,-3.6983,-3.7005,-3.7077,-3.6667,-3.6433,-3.6488,-3.6075,-3.5811,-3.5845,-3.5866,-3.5899,-3.594,-3.5985,-3.6022,-3.6028,-3.6012,-3.6014,-3.6015,-3.6015,-3.6034,-3.6013,-3.6026,-3.6017,-3.6007,-3.5974,-3.5955,-3.5899,-3.5888,-3.5849,-3.5807,-3.5801,-3.5799,-3.5757,-3.5694,-3.5654,-3.5658,-3.5676,-3.5651,-3.5578,-3.5579,-3.5566,-3.5554,-3.5554,-3.5547,-3.5567,-3.5547,-3.5554,-3.5547,-3.5567,-3.5567,-3.5496,-3.538,-3.504,-3.4905,-3.4905,-3.4544,-3.4556,-3.4544,-3.4532,-4.3479,-4.3479,-4.3479,-4.3479,-4.3479,-4.3479,-4.3479,-4.3479,-4.3479,-4.3479,-4.3387,-4.2653,-4.1662,-4.0524,-3.9496,-3.8927,-3.8726,-3.8707,-3.8707,-3.8707,-3.8707,-3.8707,-3.8707,-3.8707,-3.9551,-4.0875,-4.1113,-4.1937,-4.3332,-4.3479,-4.3479,-4.3496,-4.3566,-4.3582,-4.3615,-4.3751,-4.3881,-4.3918,-4.3441,-4.32,-4.3006,-4.2228,-4.1271,-4.0355,-4.016,-4.0128,-4.0187,-4.0262,-4.0057,-3.9539,-3.9544,-3.9165,-3.8389,-3.8346,-3.8257,-3.8027,-3.7998,-3.8013,-3.8067,-3.7571,-3.727,-3.726,-3.6779,-3.6472,-3.6498,-3.6572,-3.6609,-3.6671,-3.6664,-3.6685,-3.6372,-3.636,-3.6442,-3.6659,-3.6699,-3.6718,-3.6737,-3.6694,-3.6768,-3.6703,-3.6869,-3.6661,-3.664,-3.6671,-3.6664,-3.6326,-3.6219,-3.6021,-3.5845,-3.5765,-3.5722,-3.5718,-3.5713,-3.5667,-3.562,-3.5616,-3.561,-3.5617,-3.5611,-3.5591,-3.5617,-3.5598,-3.5598,-3.5598,-3.5611,-3.5617,-3.5605,-3.5591,-3.5571,-3.561,-3.5552,-3.55,-3.5396,-3.5564,-3.5552,-4.3479,-4.3479,-4.3479,-4.3479,-4.3479,-4.3479,-4.3479,-4.3479,-4.3479,-4.3479,-4.3387,-4.269,-4.2268,-4.1992,-4.0543,-3.9441,-3.8799,-3.8726,-3.8707,-3.8707,-3.8707,-3.8707,-3.8707,-3.8726,-3.9551,-4.1003,-4.1113,-4.1937,-4.3406,-4.3479,-4.3479,-4.3479,-4.3496,-4.3531,-4.3582,-4.3615,-4.3699,-4.3862,-4.3865,-4.3624,-4.3062,-4.303,-4.2391,-4.1238,-4.0366,-4.0053,-4.0157,-4.0187,-4.0195,-4.0211,-4.0317,-4.0021,-3.9253,-3.9204,-3.8892,-3.8207,-3.8075,-3.8077,-3.8148,-3.8132,-3.8143,-3.8115,-3.7976,-3.8082,-3.7991,-3.8033,-3.8078,-3.8296,-3.8171,-3.7944,-3.743,-3.7268,-3.753,-3.82,-3.8377,-3.8359,-3.8398,-3.8221,-3.8455,-3.8353,-3.8189,-3.8097,-3.8252,-3.8385,-3.7865,-3.7341,-3.7125,-3.6867,-3.6145,-3.5889,-3.5888,-3.5788,-3.5742,-3.5669,-3.5637,-3.5635,-3.5626,-3.5633,-3.5639,-3.5616,-3.5623,-3.5617,-3.5623,-3.561,-3.5622,-3.5608,-3.561,-3.561,-3.5614,-3.562,-3.5612,-3.5623,-3.566,-3.5637,-3.5631,-4.3479,-4.3479,-4.3479,-4.3479,-4.3479,-4.3479,-4.3479,-4.3479,-4.3479,-4.3479,-4.346,-4.3185,-4.2782,-4.2249,-4.1699,-4.0708,-3.9496,-3.8946,-3.8707,-3.8707,-3.8707,-3.8707,-3.8707,-3.8707,-3.9551,-4.0893,-4.1113,-4.1937,-4.3332,-4.3479,-4.3479,-4.3479,-4.3479,-4.3532,-4.3549,-4.3582,-4.3632,-4.3718,-4.3865,-4.3809,-4.3571,-4.3204,-4.281,-4.2448,-4.1335,-4.0501,-4.0034,-4.0138,-4.0206,-4.0233,-4.0325,-4.027,-4.0079,-4.005,-3.9938,-3.965,-3.96,-3.9615,-3.9605,-3.9164,-3.8916,-3.8916,-3.8464,-3.8266,-3.8281,-3.8331,-3.841,-3.8467,-3.8497,-3.8511,-3.8783,-3.842,-3.8206,-3.8506,-3.8629,-3.867,-3.8613,-3.8613,-3.8612,-3.8591,-3.8566,-3.8555,-3.8622,-3.853,-3.838,-3.81,-3.8026,-3.7617,-3.6959,-3.6687,-3.6494,-3.6009,-3.5811,-3.5747,-3.5735,-3.5679,-3.5664,-3.5658,-3.5672,-3.5672,-3.5667,-3.5657,-3.5662,-3.5657,-3.5657,-3.5651,-3.5651,-3.5681,-3.5667,-3.5672,-3.5658,-3.5664,-3.5698,-3.5683,-3.5664,-4.3479,-4.3479,-4.3479,-4.3479,-4.3479,-4.3479,-4.3479,-4.3479,-4.3479,-4.3479,-4.3479,-4.3479,-4.3167,-4.269,-4.2415,-4.1754,-4.0616,-3.9606,-3.9074,-3.9056,-3.8817,-3.8707,-3.8707,-3.8707,-3.9536,-4.0985,-4.1664,-4.2488,-4.3351,-4.3479,-4.3479,-4.3479,-4.3479,-4.3479,-4.3496,-4.3548,-4.3583,-4.3615,-4.3751,-4.3849,-4.3902,-4.3515,-4.3189,-4.3016,-4.2259,-4.1354,-4.0363,-4.0188,-4.0138,-4.0196,-4.0233,-4.0334,-4.0474,-4.0495,-4.05,-4.0496,-4.0477,-4.0523,-4.0508,-4.0022,-3.9743,-3.9772,-3.9335,-3.9005,-3.9015,-3.9101,-3.918,-3.9203,-3.9245,-3.9581,-3.9902,-3.9663,-3.9339,-3.9396,-3.9406,-3.9409,-3.9411,-3.9433,-3.9453,-3.951,-3.9527,-3.9424,-3.934,-3.9369,-3.9244,-3.8984,-3.8911,-3.8585,-3.7854,-3.7333,-3.7049,-3.6433,-3.6038,-3.5887,-3.5818,-3.5803,-3.5751,-3.5742,-3.5704,-3.5713,-3.5718,-3.5718,-3.5713,-3.5713,-3.5708,-3.5713,-3.5718,-3.5722,-3.5747,-3.5747,-3.5727,-3.5722,-3.5732,-3.5732,-3.5727,-4.3479,-4.3479,-4.3479,-4.3479,-4.3479,-4.3479,-4.3479,-4.3479,-4.3479,-4.3479,-4.3479,-4.3479,-4.3442,-4.3277,-4.2708,-4.2304,-4.1956,-4.0708,-3.9974,-3.9845,-3.9148,-3.8817,-3.8817,-3.8726,-3.9551,-4.1132,-4.269,-4.3387,-4.3461,-4.3479,-4.3479,-4.3479,-4.3479,-4.3479,-4.3479,-4.3496,-4.3531,-4.3582,-4.3615,-4.3718,-4.3881,-4.3884,-4.3608,-4.31,-4.3016,-4.2454,-4.1268,-4.0449,-4.0129,-4.0253,-4.0215,-4.0298,-4.0458,-4.0502,-4.0507,-4.0508,-4.0496,-4.0496,-4.0496,-4.0508,-4.0446,-4.0456,-4.0544,-4.0417,-4.0378,-4.0498,-4.0563,-4.0587,-4.066,-4.0831,-4.0834,-4.0779,-4.0769,-4.1044,-4.0803,-4.0808,-4.0891,-4.1012,-4.1054,-4.0937,-4.0838,-4.1032,-4.1048,-4.0826,-4.0486,-3.9956,-3.9788,-3.9501,-3.8679,-3.8027,-3.7415,-3.7077,-3.6651,-3.6245,-3.606,-3.5911,-3.5869,-3.581,-3.5765,-3.5736,-3.5769,-3.5769,-3.5754,-3.5754,-3.5754,-3.5758,-3.5786,-3.5814,-3.5799,-3.5799,-3.5795,-3.5795,-3.5799,-3.5799,-3.5799,-4.3479,-4.3479,-4.3479,-4.3479,-4.3479,-4.3479,-4.3479,-4.3479,-4.3479,-4.3479,-4.3479,-4.3479,-4.3479,-4.3442,-4.3204,-4.3112,-4.302,-4.2029,-4.1277,-4.0671,-3.9918,-3.9515,-3.9423,-3.8982,-3.9551,-4.1132,-4.2727,-4.3479,-4.3479,-4.3479,-4.3479,-4.3479,-4.3479,-4.3479,-4.3479,-4.3479,-4.3496,-4.3513,-4.3583,-4.3651,-4.3718,-4.383,-4.3828,-4.3646,-4.3245,-4.2815,-4.2535,-4.1418,-4.0832,-4.0889,-4.0432,-4.0262,-4.0407,-4.0466,-4.0487,-4.0508,-4.0496,-4.0496,-4.0496,-4.0523,-4.0546,-4.0607,-4.061,-4.0653,-4.0707,-4.0726,-4.075,-4.0826,-4.0873,-4.0906,-4.0932,-4.0967,-4.1025,-4.1083,-4.1103,-4.1112,-4.1117,-4.1107,-4.1112,-4.1113,-4.1113,-4.1111,-4.111,-4.1105,-4.0985,-4.0731,-4.0627,-4.0306,-3.9559,-3.9084,-3.8701,-3.8207,-3.7454,-3.6806,-3.6762,-3.6479,-3.6144,-3.6038,-3.5931,-3.5792,-3.5815,-3.5815,-3.5819,-3.5799,-3.5803,-3.5827,-3.5853,-3.5861,-3.5868,-3.5868,-3.5868,-3.5864,-3.5861,-3.5864,-3.5868,-4.3479,-4.3479,-4.3479,-4.3479,-4.3479,-4.3479,-4.3479,-4.3479,-4.3479,-4.3479,-4.3479,-4.3479,-4.3479,-4.3479,-4.3479,-4.3479,-4.3441,-4.2947,-4.2471,-4.1814,-4.0802,-4.0359,-4.0359,-4.0194,-4.0471,-4.157,-4.2873,-4.3479,-4.3479,-4.3479,-4.3479,-4.3479,-4.3479,-4.3479,-4.3479,-4.3479,-4.3479,-4.3515,-4.3549,-4.3583,-4.3615,-4.3716,-4.3849,-4.3868,-4.3534,-4.3409,-4.3512,-4.2523,-4.1853,-4.1579,-4.1001,-4.0597,-4.041,-4.0432,-4.0474,-4.0503,-4.0508,-4.0496,-4.0496,-4.0496,-4.0504,-4.0546,-4.058,-4.0603,-4.066,-4.0681,-4.0726,-4.0769,-4.0821,-4.0859,-4.0912,-4.0932,-4.0986,-4.1039,-4.1079,-4.1099,-4.1108,-4.1101,-4.1108,-4.1111,-4.1113,-4.1113,-4.1113,-4.1111,-4.1109,-4.1108,-4.1105,-4.1023,-4.0376,-4.0001,-3.9525,-3.899,-3.8323,-3.787,-3.765,-3.7154,-3.6504,-3.6289,-3.6134,-3.596,-3.5872,-3.5872,-3.5853,-3.5856,-3.5859,-3.5843,-3.5869,-3.5936,-3.5942,-3.5939,-3.5933,-3.5939,-3.5942,-3.5942,-3.5945,-4.3479,-4.3479,-4.3479,-4.3479,-4.3479,-4.3479,-4.3479,-4.3479,-4.3479,-4.3479,-4.3497,-4.348,-4.348,-4.348,-4.3444,-4.3463,-4.3462,-4.3389,-4.3281,-4.2862,-4.1945,-4.1227,-4.0989,-4.1502,-4.1906,-4.2252,-4.3058,-4.3479,-4.3462,-4.3497,-4.3479,-4.3479,-4.3479,-4.3479,-4.3479,-4.3479,-4.3479,-4.3496,-4.3515,-4.3549,-4.36,-4.3599,-4.3701,-4.3899,-4.3902,-4.3989,-4.4038,-4.3535,-4.295,-4.2389,-4.1732,-4.1198,-4.0652,-4.0496,-4.0731,-4.0828,-4.0657,-4.0635,-4.0604,-4.0535,-4.0496,-4.0504,-4.0565,-4.0588,-4.0603,-4.0653,-4.0688,-4.0726,-4.0744,-4.0815,-4.0878,-4.0893,-4.0935,-4.0976,-4.1042,-4.1081,-4.1104,-4.1114,-4.11,-4.1106,-4.1109,-4.1111,-4.1112,-4.1113,-4.1112,-4.1112,-4.111,-4.1029,-4.0911,-4.0479,-4.0108,-3.9636,-3.9161,-3.8827,-3.8569,-3.7923,-3.7333,-3.7154,-3.6787,-3.6287,-3.5994,-3.5914,-3.5911,-3.5914,-3.5902,-3.5907,-3.5909,-3.5968,-3.5992,-3.599,-3.5992,-3.6003,-3.6001,-3.5994,-3.5992,-4.3479,-4.3479,-4.3479,-4.3479,-4.3479,-4.3479,-4.3479,-4.3479,-4.3479,-4.3463,-4.3429,-4.3447,-4.3376,-4.3268,-4.3304,-4.3286,-4.3286,-4.3304,-4.3268,-4.3196,-4.2922,-4.1917,-4.1241,-4.1697,-4.2117,-4.2245,-4.3009,-4.3429,-4.341,-4.3463,-4.3479,-4.3479,-4.3479,-4.3479,-4.3479,-4.3479,-4.3479,-4.3479,-4.3479,-4.3515,-4.3532,-4.36,-4.3667,-4.3802,-4.3881,-4.4023,-4.4229,-4.4195,-4.3565,-4.2503,-4.2365,-4.2264,-4.2001,-4.2039,-4.2065,-4.2089,-4.1692,-4.1391,-4.1327,-4.0893,-4.0573,-4.0496,-4.062,-4.0558,-4.0588,-4.0603,-4.0653,-4.0681,-4.0726,-4.0763,-4.0809,-4.0853,-4.0898,-4.0932,-4.099,-4.1034,-4.1081,-4.1101,-4.1112,-4.1115,-4.1104,-4.1108,-4.1109,-4.1111,-4.1113,-4.1113,-4.1113,-4.1111,-4.1013,-4.0972,-4.06,-4.0502,-4.0147,-3.9776,-3.9345,-3.87,-3.8251,-3.8095,-3.7562,-3.6732,-3.6327,-3.5979,-3.5977,-3.5958,-3.5966,-3.5951,-3.5966,-3.6001,-3.6005,-3.6015,-3.6013,-3.6015,-3.6009,-3.6001,-3.6005,-4.348,-4.3464,-4.3464,-4.3428,-4.3375,-4.3375,-4.3393,-4.3393,-4.3357,-4.3339,-4.3323,-4.3323,-4.3269,-4.3214,-4.3214,-4.3214,-4.3214,-4.3214,-4.3178,-4.3142,-4.3032,-4.2559,-4.2085,-4.2357,-4.2503,-4.254,-4.3031,-4.3286,-4.3323,-4.3358,-4.341,-4.3445,-4.3445,-4.3481,-4.3479,-4.3479,-4.3479,-4.3479,-4.3479,-4.3479,-4.3515,-4.3549,-4.3617,-4.3719,-4.38,-4.3947,-4.4184,-4.4387,-4.3979,-4.3199,-4.3012,-4.296,-4.2725,-4.2756,-4.2795,-4.2889,-4.2446,-4.2232,-4.2198,-4.1783,-4.1396,-4.1135,-4.1046,-4.085,-4.0662,-4.0573,-4.061,-4.0646,-4.0681,-4.072,-4.0763,-4.0815,-4.0854,-4.0882,-4.0925,-4.0967,-4.1031,-4.1081,-4.1097,-4.1104,-4.1114,-4.1102,-4.1103,-4.1108,-4.111,-4.1111,-4.1113,-4.1113,-4.1094,-4.1132,-4.1111,-4.0915,-4.0817,-4.0464,-4.0131,-3.9564,-3.9075,-3.892,-3.8413,-3.7529,-3.6722,-3.622,-3.6025,-3.6027,-3.6028,-3.6007,-3.6006,-3.6006,-3.6013,-3.6016,-3.601,-3.6009,-3.6007,-3.6022,-3.6004,-4.3428,-4.3376,-4.3376,-4.3305,-4.3233,-4.3214,-4.3233,-4.3214,-4.3233,-4.3196,-4.3196,-4.3196,-4.3142,-4.316,-4.3105,-4.3123,-4.3123,-4.3087,-4.3068,-4.2975,-4.2899,-4.2718,-4.285,-4.2814,-4.2941,-4.2996,-4.3124,-4.3178,-4.3196,-4.3214,-4.3269,-4.334,-4.3358,-4.341,-4.3463,-4.348,-4.3479,-4.3479,-4.3479,-4.3479,-4.3479,-4.3496,-4.3548,-4.3634,-4.3751,-4.3931,-4.4135,-4.4321,-4.4207,-4.3811,-4.381,-4.3574,-4.3071,-4.2981,-4.309,-4.3149,-4.3158,-4.307,-4.3057,-4.2913,-4.2623,-4.2041,-4.1915,-4.1635,-4.1131,-4.0981,-4.0869,-4.0911,-4.0749,-4.07,-4.0713,-4.0767,-4.0812,-4.0859,-4.0878,-4.0928,-4.0986,-4.105,-4.1074,-4.1107,-4.1099,-4.1109,-4.1116,-4.1102,-4.1106,-4.1107,-4.111,-4.1112,-4.1112,-4.1113,-4.1113,-4.1074,-4.1034,-4.1073,-4.0779,-4.0465,-4.0036,-3.9684,-3.9177,-3.8376,-3.7242,-3.6672,-3.6262,-3.6086,-3.6042,-3.6003,-3.6005,-3.6007,-3.6087,-3.6008,-3.6003,-3.6006,-3.6009,-3.6004,-3.6002,-4.334,-4.3269,-4.3251,-4.3233,-4.3214,-4.3214,-4.3196,-4.3196,-4.3196,-4.3142,-4.3123,-4.3123,-4.3012,-4.2899,-4.288,-4.2823,-4.2767,-4.2747,-4.2709,-4.2707,-4.2668,-4.2668,-4.2728,-4.2728,-4.2785,-4.2879,-4.2938,-4.3013,-4.3105,-4.3142,-4.3214,-4.3233,-4.3269,-4.3286,-4.3394,-4.3411,-4.3445,-4.3497,-4.3479,-4.3479,-4.3479,-4.3515,-4.3531,-4.3599,-4.3749,-4.3913,-4.4039,-4.4195,-4.4283,-4.4358,-4.4474,-4.4402,-4.4296,-4.4421,-4.4499,-4.4428,-4.4077,-4.3877,-4.3828,-4.3415,-4.2916,-4.2806,-4.2746,-4.2697,-4.2566,-4.1862,-4.1617,-4.1486,-4.1046,-4.0761,-4.0688,-4.0713,-4.0756,-4.0815,-4.0872,-4.0888,-4.0939,-4.0983,-4.1019,-4.1034,-4.1069,-4.1107,-4.1099,-4.1108,-4.1115,-4.11,-4.1104,-4.1108,-4.1108,-4.1109,-4.1111,-4.1113,-4.1113,-4.1113,-4.1016,-4.0781,-4.0566,-4.0292,-3.9883,-3.9316,-3.8183,-3.748,-3.7206,-3.6638,-3.603,-3.6128,-3.6559,-3.6324,-3.6461,-3.6245,-3.6187,-3.6383,-3.6501,-3.6304,-3.6422,-4.3251,-4.3123,-4.3068,-4.3031,-4.2994,-4.2938,-4.2919,-4.2919,-4.2919,-4.2899,-4.2879,-4.286,-4.2803,-4.2725,-4.2688,-4.2668,-4.2609,-4.2512,-4.2512,-4.2492,-4.2412,-4.2351,-4.2369,-4.2348,-4.2427,-4.2649,-4.2746,-4.2804,-4.2861,-4.2956,-4.3013,-4.3068,-4.3142,-4.3196,-4.3287,-4.3323,-4.3376,-4.3446,-4.3445,-4.3463,-4.3479,-4.3496,-4.3549,-4.3582,-4.3699,-4.3816,-4.3961,-4.4055,-4.4195,-4.4373,-4.4597,-4.4789,-4.4883,-4.4991,-4.5103,-4.5096,-4.4902,-4.4659,-4.4527,-4.4336,-4.3963,-4.3568,-4.3595,-4.3372,-4.3148,-4.2607,-4.2478,-4.2271,-4.1736,-4.1118,-4.0731,-4.0688,-4.072,-4.0757,-4.0818,-4.0856,-4.0859,-4.0909,-4.0963,-4.0981,-4.1022,-4.1061,-4.1096,-4.1087,-4.1113,-4.1099,-4.1114,-4.1099,-4.1102,-4.1103,-4.1108,-4.111,-4.111,-4.111,-4.111,-4.1014,-4.0936,-4.076,-4.0584,-4.0037,-3.9256,-3.871,-3.8301,-3.7636,-3.6971,-3.7284,-3.7558,-3.7245,-3.7088,-3.7362,-3.7441,-3.7284,-3.7264,-3.7421,-3.7577,-4.3123,-4.303,-4.2918,-4.2805,-4.2764,-4.2668,-4.2609,-4.2571,-4.2589,-4.2589,-4.255,-4.255,-4.255,-4.2512,-4.251,-4.251,-4.247,-4.2389,-4.2328,-4.2308,-4.2184,-4.2142,-4.2118,-4.2115,-4.2199,-4.2508,-4.255,-4.257,-4.2609,-4.2688,-4.2823,-4.2862,-4.2993,-4.3068,-4.3142,-4.3178,-4.3251,-4.3358,-4.3358,-4.3411,-4.3463,-4.348,-4.3515,-4.3565,-4.3615,-4.3682,-4.3832,-4.3945,-4.4036,-4.4184,-4.4362,-4.4578,-4.4757,-4.4883,-4.4931,-4.5068,-4.5041,-4.5058,-4.5093,-4.5137,-4.4919,-4.4394,-4.4422,-4.4152,-4.3642,-4.3389,-4.328,-4.3028,-4.2571,-4.1828,-4.1121,-4.1238,-4.1138,-4.1003,-4.0977,-4.091,-4.0801,-4.0845,-4.0915,-4.0964,-4.0967,-4.1003,-4.1045,-4.1061,-4.1086,-4.1113,-4.1113,-4.1106,-4.1109,-4.1112,-4.1116,-4.11,-4.11,-4.1107,-4.1108,-4.1108,-4.103,-4.101,-4.097,-4.0619,-4.015,-3.9899,-3.9393,-3.8671,-3.8281,-3.8418,-3.8379,-3.8086,-3.8144,-3.8593,-3.8457,-3.8027,-3.8183,-3.8555,-3.8652,-4.29,-4.2822,-4.2707,-4.2649,-4.2629,-4.2609,-4.253,-4.2452,-4.2432,-4.2409,-4.2348,-4.2348,-4.2287,-4.2207,-4.2187,-4.2142,-4.2118,-4.2072,-4.2051,-4.2034,-4.197,-4.1966,-4.1945,-4.1923,-4.2009,-4.2132,-4.2222,-4.231,-4.2432,-4.257,-4.2609,-4.265,-4.2783,-4.2899,-4.2975,-4.3068,-4.3142,-4.3214,-4.3251,-4.3305,-4.3376,-4.3429,-4.3445,-4.3532,-4.3565,-4.3615,-4.3666,-4.3832,-4.3961,-4.4036,-4.418,-4.434,-4.4537,-4.4725,-4.4821,-4.4919,-4.4991,-4.5061,-4.5136,-4.5192,-4.5188,-4.5126,-4.5092,-4.5151,-4.4825,-4.442,-4.4082,-4.382,-4.3365,-4.2791,-4.2734,-4.2448,-4.2263,-4.1972,-4.1717,-4.1564,-4.1074,-4.0909,-4.1003,-4.1087,-4.1021,-4.0918,-4.0983,-4.1023,-4.1036,-4.1067,-4.1086,-4.1076,-4.1081,-4.1083,-4.1107,-4.1115,-4.1103,-4.1116,-4.1106,-4.1105,-4.1086,-4.1084,-4.1044,-4.1044,-4.0771,-4.0872,-4.0483,-3.9622,-3.9057,-3.8903,-3.8844,-3.8883,-3.8942,-3.9177,-3.8942,-3.8707,-3.9001,-3.9314,-3.9372,-4.2689,-4.2571,-4.249,-4.2409,-4.2348,-4.2305,-4.2264,-4.2202,-4.2202,-4.2181,-4.2178,-4.2139,-4.2097,-4.2034,-4.1973,-4.1888,-4.1797,-4.1728,-4.1688,-4.1688,-4.1626,-4.1582,-4.1604,-4.1604,-4.1582,-4.1626,-4.1758,-4.1995,-4.2181,-4.2269,-4.2389,-4.2432,-4.255,-4.2631,-4.2765,-4.2879,-4.2974,-4.305,-4.3105,-4.3196,-4.3286,-4.3359,-4.3429,-4.3497,-4.3549,-4.3565,-4.3615,-4.3666,-4.3798,-4.3926,-4.4039,-4.4195,-4.4325,-4.4468,-4.4632,-4.4757,-4.4883,-4.4955,-4.5003,-4.5091,-4.5162,-4.5235,-4.5307,-4.5369,-4.5323,-4.5026,-4.4699,-4.4313,-4.4079,-4.3536,-4.3099,-4.3161,-4.2888,-4.2653,-4.2575,-4.2411,-4.2026,-4.1654,-4.1518,-4.1402,-4.1164,-4.1033,-4.0932,-4.0957,-4.0979,-4.1016,-4.1033,-4.1039,-4.1042,-4.107,-4.1098,-4.1089,-4.1081,-4.1094,-4.1109,-4.1112,-4.1115,-4.1114,-4.1112,-4.1112,-4.1111,-4.1073,-4.0893,-4.0381,-3.9938,-3.9599,-3.9916,-4.0151,-3.9974,-3.9817,-3.9876,-3.9934,-3.9935,-4.0013,-4.0051,-4.247,-4.2313,-4.2267,-4.2163,-4.2019,-4.197,-4.1923,-4.188,-4.188,-4.1858,-4.1819,-4.1819,-4.1819,-4.1797,-4.1714,-4.1609,-4.1515,-4.1408,-4.1386,-4.1363,-4.13,-4.1232,-4.1209,-4.1209,-4.1255,-4.13,-4.1363,-4.1577,-4.1884,-4.2016,-4.2121,-4.2225,-4.231,-4.2412,-4.2568,-4.2667,-4.2765,-4.2861,-4.2974,-4.3068,-4.3196,-4.3323,-4.3411,-4.348,-4.3479,-4.3532,-4.3583,-4.3599,-4.3682,-4.3798,-4.3894,-4.4023,-4.4135,-4.4211,-4.4373,-4.4592,-4.4745,-4.4808,-4.4883,-4.4979,-4.5061,-4.5106,-4.5222,-4.5267,-4.5329,-4.5275,-4.5132,-4.466,-4.4532,-4.4365,-4.394,-4.3695,-4.3558,-4.3373,-4.3378,-4.3312,-4.2934,-4.2597,-4.2304,-4.1996,-4.1476,-4.1133,-4.1024,-4.0917,-4.0943,-4.096,-4.098,-4.0979,-4.0986,-4.1042,-4.1052,-4.1064,-4.1056,-4.1083,-4.1096,-4.1103,-4.1107,-4.1113,-4.1111,-4.1111,-4.1107,-4.1103,-4.0903,-4.0749,-4.0803,-4.0584,-4.1001,-4.1101,-4.0723,-4.0603,-4.0942,-4.0962,-4.0644,-4.0585,-4.0663,-4.2267,-4.2124,-4.2072,-4.1966,-4.1823,-4.1801,-4.167,-4.1493,-4.1493,-4.1386,-4.1363,-4.1323,-4.1346,-4.1323,-4.1323,-4.1277,-4.1249,-4.1226,-4.1163,-4.114,-4.114,-4.1117,-4.1186,-4.1209,-4.1117,-4.1117,-4.1163,-4.1368,-4.1582,-4.1736,-4.1884,-4.1991,-4.2079,-4.2187,-4.2308,-4.245,-4.2512,-4.2631,-4.2765,-4.2936,-4.3123,-4.3287,-4.3358,-4.3429,-4.3463,-4.3496,-4.3532,-4.3565,-4.3615,-4.3649,-4.3769,-4.3899,-4.4008,-4.402,-4.4128,-4.431,-4.4473,-4.4592,-4.4706,-4.4833,-4.4919,-4.4967,-4.5038,-4.5148,-4.5235,-4.5329,-4.5333,-4.5437,-4.5312,-4.5204,-4.5019,-4.5171,-4.4872,-4.4476,-4.4232,-4.3863,-4.3474,-4.3381,-4.3103,-4.2809,-4.235,-4.1576,-4.1106,-4.0983,-4.0898,-4.0917,-4.0917,-4.092,-4.0921,-4.098,-4.1022,-4.1013,-4.1023,-4.1052,-4.1058,-4.1084,-4.1089,-4.1081,-4.1081,-4.1081,-4.1075,-4.1073,-4.1083,-4.1013,-4.1083,-4.1083,-4.1085,-4.1085,-4.1103,-4.1111,-4.1099,-4.1113,-4.1061,-4.1105,-4.1095,-4.1805,-4.1805,-4.1692,-4.1582,-4.1475,-4.1475,-4.1391,-4.1318,-4.1295,-4.1255,-4.1209,-4.1209,-4.1186,-4.1129,-4.1152,-4.1059,-4.0948,-4.0924,-4.0877,-4.0813,-4.0813,-4.0813,-4.0789,-4.0789,-4.0806,-4.0853,-4.0901,-4.0971,-4.1203,-4.1386,-4.152,-4.1648,-4.1758,-4.1888,-4.2058,-4.2228,-4.2351,-4.2472,-4.2649,-4.286,-4.3012,-4.3142,-4.3287,-4.3394,-4.3429,-4.3445,-4.3497,-4.3532,-4.3565,-4.3582,-4.3667,-4.3753,-4.3883,-4.3929,-4.4008,-4.4131,-4.4255,-4.4416,-4.4565,-4.4672,-4.4745,-4.4846,-4.4931,-4.5038,-4.517,-4.5286,-4.5369,-4.5429,-4.5438,-4.5476,-4.5522,-4.5531,-4.5395,-4.5143,-4.493,-4.4803,-4.4377,-4.4036,-4.3829,-4.3528,-4.3184,-4.2439,-4.1622,-4.1162,-4.1009,-4.0842,-4.0863,-4.0859,-4.0859,-4.0902,-4.0928,-4.0953,-4.0984,-4.1015,-4.1022,-4.1045,-4.1025,-4.1032,-4.1032,-4.1036,-4.1036,-4.1039,-4.1029,-4.1046,-4.1026,-4.1026,-4.1046,-4.107,-4.1089,-4.1091,-4.1113,-4.1086,-4.1081,-4.1093,-4.11,-4.1358,-4.1426,-4.138,-4.1295,-4.118,-4.114,-4.1094,-4.1088,-4.1007,-4.1024,-4.1024,-4.1001,-4.0971,-4.0959,-4.0912,-4.084,-4.0673,-4.0648,-4.0583,-4.0534,-4.051,-4.0517,-4.0541,-4.0517,-4.0517,-4.051,-4.0631,-4.0728,-4.0806,-4.0971,-4.1134,-4.134,-4.1453,-4.1604,-4.178,-4.1973,-4.2124,-4.2331,-4.253,-4.2707,-4.288,-4.3012,-4.3142,-4.3251,-4.334,-4.3394,-4.3463,-4.348,-4.3497,-4.3548,-4.3565,-4.3634,-4.3734,-4.3783,-4.3865,-4.3961,-4.4073,-4.4195,-4.434,-4.4482,-4.4605,-4.4725,-4.4846,-4.4986,-4.5072,-4.5192,-4.5297,-4.5369,-4.538,-4.541,-4.5448,-4.5476,-4.5446,-4.5454,-4.5453,-4.5558,-4.5518,-4.4919,-4.4589,-4.4471,-4.4063,-4.3424,-4.2577,-4.1648,-4.1164,-4.0858,-4.0779,-4.079,-4.0818,-4.0844,-4.0845,-4.0878,-4.0902,-4.0958,-4.0967,-4.0971,-4.0971,-4.0975,-4.098,-4.098,-4.0968,-4.0968,-4.0968,-4.0964,-4.096,-4.0964,-4.0976,-4.1039,-4.1073,-4.1061,-4.1055,-4.1064,-4.1048,-4.1056,-4.1061,-4.1047,-4.0965,-4.1134,-4.1175,-4.107,-4.0959,-4.0864,-4.0752,-4.0631,-4.059,-4.0614,-4.0583,-4.059,-4.0583,-4.0607,-4.0583,-4.051,-4.0534,-4.0485,-4.0485,-4.051,-4.0461,-4.0461,-4.0461,-4.0461,-4.0461,-4.051,-4.051,-4.0534,-4.0631,-4.0877,-4.1163,-4.1226,-4.1386,-4.1542,-4.1692,-4.1934,-4.2145,-4.2348,-4.253,-4.2727,-4.288,-4.2994,-4.3105,-4.3178,-4.3269,-4.3376,-4.3394,-4.3446,-4.3496,-4.3513,-4.3531,-4.3634,-4.3667,-4.3716,-4.38,-4.3899,-4.4011,-4.4101,-4.4296,-4.444,-4.4565,-4.4725,-4.487,-4.4967,-4.5049,-4.5159,-4.5267,-4.5298,-4.533,-4.5371,-4.541,-4.5457,-4.5485,-4.5513,-4.5531,-4.5559,-4.5519,-4.5248,-4.5295,-4.4889,-4.4201,-4.3439,-4.249,-4.1575,-4.1248,-4.0732,-4.0725,-4.0767,-4.0771,-4.0787,-4.0804,-4.0809,-4.0858,-4.0893,-4.0903,-4.0898,-4.0907,-4.0912,-4.0912,-4.0912,-4.0912,-4.0893,-4.0912,-4.0912,-4.0912,-4.0917,-4.0956,-4.098,-4.0984,-4.0988,-4.0999,-4.1006,-4.0993,-4.1,-4.0769,-4.0655,-4.0734,-4.0758,-4.0745,-4.068,-4.0631,-4.0583,-4.051,-4.051,-4.0493,-4.051,-4.051,-4.051,-4.051,-4.0461,-4.0387,-4.0362,-4.0337,-4.0288,-4.0263,-4.0263,-4.0263,-4.0288,-4.0263,-4.0288,-4.0337,-4.0387,-4.0387,-4.0436,-4.0541,-4.0765,-4.0924,-4.1105,-4.1284,-4.1493,-4.174,-4.1956,-4.2184,-4.2407,-4.247,-4.2727,-4.288,-4.2957,-4.3086,-4.316,-4.3269,-4.3358,-4.3394,-4.3446,-4.348,-4.3515,-4.3549,-4.3583,-4.3634,-4.3684,-4.3786,-4.3851,-4.3897,-4.4135,-4.4329,-4.4501,-4.4605,-4.4706,-4.4846,-4.4962,-4.5038,-4.5117,-4.5203,-4.5256,-4.5329,-4.538,-4.5419,-4.5438,-4.5467,-4.5485,-4.5504,-4.5522,-4.5549,-4.5423,-4.5287,-4.49,-4.4119,-4.3299,-4.2402,-4.1617,-4.1079,-4.0662,-4.0687,-4.0712,-4.0724,-4.0742,-4.0748,-4.0779,-4.0821,-4.0832,-4.0823,-4.0828,-4.0853,-4.0853,-4.0853,-4.0839,-4.0839,-4.0844,-4.0863,-4.0858,-4.0863,-4.0859,-4.0878,-4.0926,-4.0939,-4.0943,-4.0952,-4.0941,-4.0949,-4.0558,-4.0436,-4.0419,-4.0461,-4.051,-4.0461,-4.0419,-4.0436,-4.0387,-4.037,-4.037,-4.0387,-4.0387,-4.0387,-4.0387,-4.0337,-4.0263,-4.0238,-4.0188,-4.0163,-4.0138,-4.0113,-4.0113,-4.0113,-4.0138,-4.0121,-4.0163,-4.0238,-4.0238,-4.0337,-4.0412,-4.051,-4.0648,-4.0817,-4.1076,-4.1312,-4.1542,-4.178,-4.1931,-4.2205,-4.2287,-4.251,-4.2725,-4.2786,-4.2918,-4.303,-4.3105,-4.3215,-4.3287,-4.3358,-4.3393,-4.3463,-4.3497,-4.3532,-4.3566,-4.3617,-4.3667,-4.3736,-4.3802,-4.3979,-4.4211,-4.4358,-4.4487,-4.4605,-4.4738,-4.4827,-4.4895,-4.5033,-4.5091,-4.5148,-4.5224,-4.5277,-4.5348,-4.5351,-4.5419,-4.5438,-4.5457,-4.5476,-4.5513,-4.5493,-4.5376,-4.525,-4.4652,-4.3756,-4.2402,-4.1581,-4.0961,-4.0609,-4.0629,-4.0649,-4.0681,-4.0675,-4.0687,-4.0732,-4.075,-4.0744,-4.0718,-4.0738,-4.0744,-4.0775,-4.0781,-4.0773,-4.0804,-4.0823,-4.0823,-4.0804,-4.0804,-4.0834,-4.0842,-4.0873,-4.0883,-4.0893,-4.0874,-4.0864,-4.0893,-4.0412,-4.033,-4.0288,-4.0362,-4.0444,-4.0362,-4.0305,-4.0288,-4.0188,-4.0146,-4.0163,-4.0163,-4.0163,-4.0163,-4.0188,-4.0163,-4.0163,-4.0138,-4.0113,-4.0113,-4.0113,-4.0113,-4.0113,-4.0113,-4.0113,-4.0113,-4.0138,-4.0138,-4.0138,-4.0163,-4.0238,-4.0305,-4.0404,-4.0576,-4.0871,-4.1094,-4.1323,-4.1582,-4.1609,-4.1892,-4.2124,-4.2287,-4.245,-4.2589,-4.2707,-4.2823,-4.2956,-4.305,-4.316,-4.3214,-4.3323,-4.3394,-4.3411,-4.3481,-4.3515,-4.3513,-4.3565,-4.3599,-4.3651,-4.3881,-4.4055,-4.4229,-4.4344,-4.4487,-4.4524,-4.4632,-4.4764,-4.4877,-4.4938,-4.4998,-4.508,-4.517,-4.5224,-4.5277,-4.5338,-4.5389,-4.538,-4.5429,-4.5477,-4.5485,-4.5504,-4.5398,-4.4914,-4.4113,-4.2513,-4.1486,-4.0836,-4.0581,-4.0581,-4.0607,-4.0621,-4.0635,-4.0655,-4.0649,-4.0662,-4.0629,-4.0615,-4.0635,-4.0655,-4.0681,-4.0713,-4.0745,-4.0752,-4.0777,-4.0758,-4.0739,-4.0758,-4.0797,-4.0788,-4.0779,-4.0821,-4.0812,-4.0812,-4.0804,-4.0833,-4.0288,-4.0163,-4.0163,-4.0188,-4.0221,-4.0188,-4.0163,-4.0146,-4.0121,-4.0113,-4.0113,-4.0113,-4.0113,-4.0113,-4.0113,-4.0113,-4.0113,-4.0113,-4.0113,-4.0113,-4.0113,-4.0113,-4.0113,-4.0113,-4.0113,-4.0113,-4.0113,-4.0113,-4.0113,-4.0113,-4.0113,-4.0163,-4.028,-4.0478,-4.0721,-4.0918,-4.1105,-4.1284,-4.1471,-4.1692,-4.1849,-4.2058,-4.2246,-4.2371,-4.249,-4.2629,-4.2804,-4.2899,-4.2994,-4.3105,-4.3215,-4.3287,-4.3358,-4.3429,-4.3464,-4.348,-4.3531,-4.3566,-4.3582,-4.3732,-4.3846,-4.4023,-4.4211,-4.4344,-4.443,-4.4528,-4.4605,-4.4699,-4.4789,-4.4877,-4.4955,-4.5033,-4.5103,-4.5159,-4.5213,-4.5277,-4.5319,-4.5389,-4.5429,-4.5429,-4.5438,-4.5131,-4.4716,-4.4369,-4.3022,-4.1808,-4.1155,-4.0677,-4.0561,-4.0576,-4.0617,-4.0605,-4.06,-4.0588,-4.0588,-4.0574,-4.0574,-4.06,-4.0614,-4.0609,-4.0641,-4.0687,-4.0674,-4.0681,-4.0674,-4.0648,-4.0681,-4.0707,-4.0681,-4.0681,-4.0725,-4.0775,-4.0761,-4.0779,-4.0815,-4.0171,-4.0113,-4.0113,-4.0113,-4.0113,-4.0113,-4.0113,-4.0113,-4.0113,-4.0113,-4.0113,-4.0113,-4.0113,-4.0113,-4.0113,-4.0113,-4.0113,-4.0113,-4.0113,-4.0113,-4.0113,-4.0113,-4.0113,-4.0113,-4.0113,-4.0113,-4.0113,-4.0113,-4.0113,-4.0113,-4.0113,-4.0138,-4.0188,-4.0337,-4.0534,-4.0745,-4.0912,-4.1076,-4.1267,-4.1471,-4.1631,-4.1805,-4.2016,-4.2163,-4.2308,-4.2432,-4.2609,-4.2746,-4.2861,-4.2974,-4.3086,-4.316,-4.3269,-4.3376,-4.3394,-4.3445,-4.3497,-4.3532,-4.3548,-4.3599,-4.3716,-4.383,-4.4026,-4.4165,-4.4266,-4.4354,-4.4468,-4.4565,-4.4659,-4.4751,-4.4827,-4.4883,-4.4943,-4.5033,-4.5103,-4.514,-4.5213,-4.5286,-4.5328,-4.5341,-4.5323,-4.4969,-4.469,-4.4219,-4.3576,-4.2499,-4.1487,-4.1022,-4.0566,-4.055,-4.0573,-4.0561,-4.0569,-4.0557,-4.0545,-4.0537,-4.0537,-4.0552,-4.0559,-4.0593,-4.06,-4.0633,-4.0607,-4.0588,-4.0602,-4.0628,-4.0602,-4.0595,-4.0621,-4.0635,-4.0655,-4.0707,-4.0726,-4.0745,-4.0757,-4.0113,-4.0113,-4.0113,-4.0113,-4.0113,-4.0113,-4.0113,-4.0113,-4.0113,-4.0113,-4.0113,-4.0113,-4.0113,-4.0113,-4.0113,-4.0113,-4.0113,-4.0113,-4.0113,-4.0113,-4.0113,-4.0113,-4.0113,-4.0113,-4.0113,-4.0113,-4.0113,-4.0113,-4.0113,-4.0113,-4.0113,-4.0113,-4.0138,-4.0213,-4.0362,-4.0551,-4.0721,-4.0912,-4.1053,-4.1284,-4.1448,-4.1582,-4.1736,-4.1927,-4.21,-4.2225,-4.2369,-4.2492,-4.2649,-4.2783,-4.288,-4.2975,-4.3087,-4.3287,-4.3359,-4.3429,-4.3481,-4.348,-4.3532,-4.3565,-4.3582,-4.3682,-4.3846,-4.3942,-4.4051,-4.4192,-4.431,-4.4397,-4.4496,-4.4592,-4.4672,-4.4751,-4.4808,-4.487,-4.4943,-4.5014,-4.508,-4.5136,-4.5181,-4.5216,-4.5277,-4.5138,-4.5074,-4.4681,-4.4077,-4.2982,-4.1963,-4.127,-4.0825,-4.0511,-4.0535,-4.0531,-4.0512,-4.0504,-4.0504,-4.0519,-4.0527,-4.0534,-4.0561,-4.0569,-4.0583,-4.0571,-4.0571,-4.0559,-4.0574,-4.0574,-4.0559,-4.0559,-4.0593,-4.06,-4.06,-4.0628,-4.0674,-4.0648,-4.0636,-4.0113,-4.0113,-4.0113,-4.0113,-4.0113,-4.0113,-4.0113,-4.0113,-4.0113,-4.0113,-4.0113,-4.0113,-4.0113,-4.0113,-4.0113,-4.0113,-4.0113,-4.0113,-4.0113,-4.0113,-4.0113,-4.0113,-4.0113,-4.0113,-4.0113,-4.0113,-4.0113,-4.0113,-4.0113,-4.0113,-4.0113,-4.0113,-4.0113,-4.0138,-4.0213,-4.033,-4.0551,-4.0738,-4.0864,-4.1076,-4.1221,-4.1312,-4.1493,-4.1692,-4.1801,-4.1952,-4.2124,-4.2287,-4.2447,-4.255,-4.2745,-4.2879,-4.2957,-4.3105,-4.3215,-4.3394,-4.3411,-4.3446,-4.3497,-4.3532,-4.3513,-4.3531,-4.3666,-4.38,-4.3913,-4.4023,-4.4147,-4.4252,-4.4325,-4.4411,-4.451,-4.4592,-4.464,-4.4719,-4.4796,-4.4858,-4.4938,-4.4979,-4.5038,-4.5106,-4.5151,-4.5216,-4.5213,-4.5177,-4.4508,-4.3407,-4.2457,-4.1698,-4.1025,-4.0694,-4.0487,-4.0484,-4.0473,-4.0484,-4.05,-4.0516,-4.0496,-4.0496,-4.0516,-4.0516,-4.0523,-4.0512,-4.0527,-4.0527,-4.0527,-4.0527,-4.0508,-4.0534,-4.0561,-4.0534,-4.0534,-4.0564,-4.0593,-4.0574,-4.0574,-4.0113,-4.0113,-4.0113,-4.0113,-4.0113,-4.0113,-4.0113,-4.0113,-4.0113,-4.0113,-4.0113,-4.0113,-4.0113,-4.0113,-4.0113,-4.0113,-4.0113,-4.0113,-4.0113,-4.0113,-4.0113,-4.0113,-4.0113,-4.0113,-4.0113,-4.0113,-4.0113,-4.0113,-4.0113,-4.0113,-4.0113,-4.0113,-4.0113,-4.0113,-4.0138,-4.0213,-4.0313,-4.0527,-4.0721,-4.0864,-4.0989,-4.1105,-4.129,-4.1408,-4.1515,-4.1719,-4.1892,-4.2076,-4.2243,-4.2348,-4.2568,-4.2706,-4.2842,-4.303,-4.316,-4.3287,-4.3323,-4.3376,-4.3446,-4.3464,-4.348,-4.3497,-4.3549,-4.3632,-4.3751,-4.3865,-4.3992,-4.4101,-4.4162,-4.4237,-4.4325,-4.4411,-4.4496,-4.4565,-4.4646,-4.4712,-4.4776,-4.4833,-4.4907,-4.4991,-4.508,-4.5136,-4.5203,-4.5246,-4.4885,-4.3768,-4.2823,-4.2087,-4.134,-4.0722,-4.0518,-4.0427,-4.0436,-4.0444,-4.046,-4.0468,-4.046,-4.0452,-4.0444,-4.0444,-4.046,-4.046,-4.046,-4.046,-4.046,-4.046,-4.0468,-4.0484,-4.0511,-4.0492,-4.05,-4.0519,-4.0542,-4.0542,-4.0549,-4.0113,-4.0113,-4.0113,-4.0113,-4.0113,-4.0113,-4.0113,-4.0113,-4.0113,-4.0113,-4.0113,-4.0113,-4.0113,-4.0113,-4.0113,-4.0113,-4.0113,-4.0113,-4.0113,-4.0113,-4.0113,-4.0113,-4.0113,-4.0113,-4.0113,-4.0113,-4.0113,-4.0113,-4.0113,-4.0113,-4.0113,-4.0113,-4.0113,-4.0113,-4.0096,-4.0096,-4.0213,-4.0313,-4.051,-4.068,-4.0823,-4.0982,-4.1099,-4.1203,-4.1363,-4.156,-4.1644,-4.1819,-4.2051,-4.2163,-4.2348,-4.249,-4.2725,-4.2955,-4.3068,-4.316,-4.3178,-4.3269,-4.334,-4.3376,-4.3411,-4.3445,-4.3497,-4.3513,-4.3617,-4.3718,-4.3849,-4.3945,-4.4008,-4.4101,-4.4192,-4.4252,-4.431,-4.4397,-4.4482,-4.4551,-4.4605,-4.468,-4.477,-4.4858,-4.4931,-4.5022,-4.5057,-4.5065,-4.4816,-4.3879,-4.3073,-4.2333,-4.1571,-4.0815,-4.0525,-4.0379,-4.0413,-4.0422,-4.0422,-4.0422,-4.0432,-4.0415,-4.0396,-4.0405,-4.043,-4.0413,-4.0407,-4.0413,-4.043,-4.0413,-4.0432,-4.0458,-4.0474,-4.0482,-4.0479,-4.0492,-4.0508,-4.0508,-4.0512,-4.0113,-4.0113,-4.0113,-4.0113,-4.0113,-4.0113,-4.0113,-4.0113,-4.0113,-4.0113,-4.0113,-4.0113,-4.0113,-4.0113,-4.0113,-4.0113,-4.0113,-4.0113,-4.0113,-4.0113,-4.0113,-4.0113,-4.0113,-4.0113,-4.0113,-4.0113,-4.0113,-4.0113,-4.0113,-4.0113,-4.0113,-4.0113,-4.0113,-4.0113,-4.0113,-4.0113,-4.0138,-4.0188,-4.0313,-4.0461,-4.059,-4.0721,-4.084,-4.0965,-4.1129,-4.1267,-4.138,-4.1542,-4.1675,-4.1784,-4.2142,-4.2389,-4.2611,-4.2783,-4.2899,-4.2975,-4.3068,-4.316,-4.3233,-4.3251,-4.3286,-4.3304,-4.3358,-4.3411,-4.3481,-4.3583,-4.3684,-4.3783,-4.3883,-4.3961,-4.4039,-4.4085,-4.4131,-4.4222,-4.4329,-4.4387,-4.4458,-4.4551,-4.4659,-4.4719,-4.4796,-4.4846,-4.4883,-4.4761,-4.4478,-4.3878,-4.3104,-4.2318,-4.1527,-4.0796,-4.0434,-4.0299,-4.037,-4.0379,-4.0389,-4.0363,-4.0345,-4.0363,-4.0344,-4.0381,-4.0398,-4.0389,-4.0372,-4.0398,-4.0407,-4.0389,-4.0381,-4.0407,-4.0424,-4.0432,-4.0449,-4.0455,-4.0447,-4.0447,-4.0468,-4.0113,-4.0113,-4.0113,-4.0113,-4.0113,-4.0113,-4.0113,-4.0113,-4.0113,-4.0113,-4.0113,-4.0113,-4.0113,-4.0113,-4.0113,-4.0113,-4.0113,-4.0113,-4.0113,-4.0113,-4.0113,-4.0113,-4.0113,-4.0113,-4.0113,-4.0113,-4.0113,-4.0113,-4.0113,-4.0113,-4.0113,-4.0113,-4.0113,-4.0113,-4.0113,-4.0113,-4.0113,-4.0113,-4.0188,-4.0263,-4.0345,-4.051,-4.0673,-4.0817,-4.0935,-4.1053,-4.1175,-4.134,-4.1475,-4.1653,-4.2016,-4.2246,-4.245,-4.257,-4.2668,-4.2767,-4.288,-4.3012,-4.3068,-4.3105,-4.3142,-4.3196,-4.3251,-4.3304,-4.3304,-4.3392,-4.3513,-4.3599,-4.3701,-4.3781,-4.3883,-4.3931,-4.3995,-4.4058,-4.4131,-4.4207,-4.4296,-4.4416,-4.4482,-4.4532,-4.46,-4.4672,-4.4725,-4.4764,-4.4493,-4.4252,-4.3421,-4.2545,-4.1691,-4.0813,-4.046,-4.0186,-4.0215,-4.0262,-4.0244,-4.0234,-4.0244,-4.0263,-4.0281,-4.0291,-4.0281,-4.0318,-4.0364,-4.0345,-4.0336,-4.0336,-4.0345,-4.0354,-4.0353,-4.0362,-4.0398,-4.0415,-4.0398,-4.0381,-4.0405,-4.0113,-4.0113,-4.0113,-4.0113,-4.0113,-4.0113,-4.0113,-4.0113,-4.0113,-4.0113,-4.0113,-4.0113,-4.0113,-4.0113,-4.0113,-4.0113,-4.0113,-4.0113,-4.0113,-4.0113,-4.0113,-4.0113,-4.0113,-4.0113,-4.0113,-4.0113,-4.0113,-4.0113,-4.0113,-4.0113,-4.0113,-4.0113,-4.0113,-4.0113,-4.0113,-4.0113,-4.0113,-4.0113,-4.0138,-4.0113,-4.0213,-4.0337,-4.0502,-4.0648,-4.0793,-4.0894,-4.1012,-4.1152,-4.1312,-4.156,-4.1823,-4.2058,-4.2246,-4.2351,-4.247,-4.2589,-4.2707,-4.2804,-4.288,-4.2937,-4.3012,-4.3087,-4.3142,-4.316,-4.316,-4.3232,-4.3357,-4.3427,-4.3513,-4.3617,-4.3719,-4.3804,-4.3835,-4.3899,-4.3976,-4.4036,-4.4162,-4.427,-4.4296,-4.435,-4.444,-4.4496,-4.4551,-4.4613,-4.4521,-4.429,-4.3743,-4.2919,-4.2061,-4.1135,-4.0474,-4.0146,-3.9988,-4.0017,-4.0106,-4.0127,-4.0147,-4.0166,-4.0177,-4.0176,-4.0176,-4.0215,-4.0244,-4.0263,-4.0263,-4.0244,-4.0253,-4.0244,-4.0272,-4.0262,-4.0281,-4.0281,-4.0281,-4.0281,-4.0308,-4.0113,-4.0113,-4.0113,-4.0113,-4.0113,-4.0113,-4.0113,-4.0113,-4.0113,-4.0113,-4.0113,-4.0113,-4.0113,-4.0113,-4.0113,-4.0113,-4.0113,-4.0113,-4.0113,-4.0113,-4.0113,-4.0113,-4.0113,-4.0113,-4.0113,-4.0113,-4.0113,-4.0113,-4.0113,-4.0113,-4.0113,-4.0113,-4.0113,-4.0113,-4.0113,-4.0113,-4.0113,-4.0113,-4.0113,-4.0113,-4.0138,-4.0238,-4.0313,-4.0412,-4.051,-4.0631,-4.0769,-4.0894,-4.1012,-4.1221,-4.1515,-4.178,-4.1995,-4.2163,-4.2267,-4.2369,-4.2528,-4.2609,-4.2668,-4.2689,-4.2767,-4.2823,-4.2862,-4.2957,-4.3013,-4.3123,-4.3196,-4.325,-4.3339,-4.348,-4.3566,-4.3617,-4.3667,-4.3769,-4.3849,-4.3929,-4.4042,-4.407,-4.4113,-4.4207,-4.4296,-4.4325,-4.434,-4.4411,-4.4463,-4.4172,-4.3719,-4.2936,-4.2322,-4.1424,-4.0589,-4.0261,-3.997,-3.9933,-4.0046,-4.0046,-4.0057,-4.0086,-4.0096,-4.0057,-4.0067,-4.0098,-4.0137,-4.0137,-4.0137,-4.0137,-4.0128,-4.0138,-4.0138,-4.0147,-4.0138,-4.0138,-4.0157,-4.0177,-4.0206]},{"header":{"parameterUnit":"m.s-1","parameterCategory":1,"la1":31.0,"la2":29.5877,"lo1":-88.7671,"lo2":-86.6584,"dy":0.0162,"dx":0.0185,"nx":115,"ny":88,"refTime":"2023-05-04T00:00:00:Z","depth":0,"parameterNumber":3,"parameterNumberName":"V-component_of_WINDS"},"data":[0.0,0.0,0.0,0.0,0.0,0.0,0.0,0.0,0.0,0.0,0.0,0.0,0.0,0.0,0.0,0.0,0.0,0.0,0.0,0.0,0.0,0.0,0.0,0.0,0.0,0.0,0.0,0.0,0.0,0.0,0.0,0.0,0.0,0.0,0.0,0.0,0.0,0.0,0.0,0.0,0.0,0.0,0.0,0.0,0.0,0.0,0.0,0.0,0.0,0.0,0.0,0.0,0.0,0.0,0.0,0.0,0.0,0.0,0.0,0.0,0.0,0.0,0.0,0.0,0.0,0.0,0.0,0.0,0.0,0.0,0.0,0.0,0.0,0.0,0.0,0.0,0.0,0.0,0.0,0.0,0.0,0.0,0.0,0.0,0.0,0.0,0.0,0.0,0.0,0.0,0.0,0.0,0.0,0.0,0.0,0.0,0.0,0.0,0.0,0.0,0.0,0.0,0.0,0.0,0.0,0.0,0.0,0.0,0.0,0.0,0.0,0.0,0.0,0.0,0.0,0.0,0.0,0.0,0.0,0.0,0.0,0.0,0.0,0.0,0.0,0.0,0.0,0.0,0.0,0.0,0.0,0.0,0.0,0.0,0.0,0.0,0.0,0.0,0.0,0.0,0.0,0.0,0.0,0.0,0.0,0.0,0.0,0.0,0.0,0.0,0.0,0.0,0.0,0.0,0.0,0.0,0.0,0.0,0.0,0.0,0.0,0.0,0.0,0.0,0.0,0.0,0.0,0.0,0.0,0.0,0.0,0.0,0.0,0.0,0.0,0.0,0.0,0.0,0.0,0.0,0.0,0.0,0.0,0.0,0.0,0.0,0.0,0.0,0.0,0.0,0.0,0.0,0.0,0.0,0.0,0.0,0.0,0.0,0.0,0.0,0.0,0.0,0.0,0.0,0.0,0.0,0.0,0.0,0.0,0.0,0.0,0.0,0.0,0.0,0.0,0.0,0.0,0.0,0.0,0.0,0.0,0.0,0.0,0.0,0.0,0.0,0.0,0.0,0.0,0.0,0.0,0.0,0.0,0.0,0.0,0.0,0.0,0.0,0.0,0.0,0.0,0.0,0.0,0.0,0.0,0.0,0.0,0.0,0.0,0.0,0.0,0.0,0.0,0.0,0.0,0.0,0.0,0.0,0.0,0.0,0.0,0.0,0.0,0.0,0.0,0.0,0.0,0.0,0.0,0.0,0.0,0.0,0.0,0.0,0.0,0.0,0.0,0.0,0.0,0.0,0.0,0.0,0.0,0.0,0.0,0.0,0.0,0.0,0.0,0.0,0.0,0.0,0.0,0.0,0.0,0.0,0.0,0.0,0.0,0.0,0.0,0.0,0.0,0.0,0.0,0.0,0.0,0.0,0.0,0.0,0.0,0.0,0.0,0.0,0.0,0.0,0.0,0.0,0.0,0.0,0.0,0.0,0.0,0.0,0.0,0.0,0.0,0.0,0.0,0.0,0.0,0.0,0.0,0.0,0.0,0.0,0.0,0.0,0.0,0.0,0.0,0.0,0.0,0.0,0.0,0.0,0.0,0.0,0.0,0.0,0.0,0.0,0.0,0.0,0.0,0.0,0.0,0.0,0.0,0.0,0.0,0.0,0.0,0.0,0.0,0.0,0.0,0.0,0.0,0.0,0.0,0.0,0.0,0.0,0.0,0.0,0.0,0.0,0.0,0.0,0.0,0.0,0.0,0.0,0.0,0.0,0.0,0.0,0.0,0.0,0.0,0.0,0.0,0.0,0.0,0.0,0.0,0.0,0.0,0.0,0.0,0.0,0.0,0.0,0.0,0.0,0.0,0.0,0.0,0.0,0.0,0.0,0.0,0.0,0.0,0.0,0.0,0.0,0.0,0.0,0.0,0.0,0.0,0.0,0.0,0.0,0.0,0.0,0.0,0.0,0.0,0.0,0.0,0.0,0.0,0.0,0.0,0.0,0.0,0.0,0.0,0.0,0.0,0.0,0.0,0.0,0.0,0.0,0.0,0.0,0.0,0.0,0.0,0.0,0.0,0.0,0.0,0.0,0.0,0.0,0.0,0.0,0.0,0.0,0.0,0.0,0.0,0.0,0.0,0.0,0.0,0.0,0.0,0.0,0.0,0.0,0.0,0.0,0.0,0.0,0.0,0.0,0.0,0.0,0.0,0.0,0.0,0.0,0.0,0.0,0.0,0.0,0.0,0.0,0.0,0.0,0.0,0.0,0.0,0.0,0.0,0.0,0.0,0.0,0.0,0.0,0.0,0.0,0.0,0.0,0.0,0.0,0.0,0.0,0.0,0.0,0.0,0.0,0.0,0.0,0.0,0.0,0.0,0.0,0.0,0.0,0.0,0.0,0.0,0.0,0.0,0.0,0.0,0.0,0.0,0.0,0.0,0.0,0.0,0.0,0.0,0.0,0.0,0.0,0.0,0.0,0.0,0.0,0.0,0.0,0.0,0.0,0.0,0.0,0.0,0.0,0.0,0.0,0.0,0.0,0.0,0.0,0.0,0.0,0.0,0.0,0.0,0.0,0.0,0.0,0.0,0.0,0.0,0.0,0.0,0.0,0.0,0.0,0.0,0.0,0.0,0.0,0.0,0.0,0.0,0.0,0.0,0.0,0.0,0.0,0.0,0.0,0.0,0.0,0.0,0.0,0.0,0.0,0.0,0.0,0.0,0.0,0.0,0.0,0.0,0.0,0.0,0.0,0.0,0.0,0.0,0.0,0.0,0.0,0.0,0.0,0.0,0.0,0.0,0.0,0.0,0.0,0.0,0.0,0.0,0.0,0.0,0.0,0.0,0.0,0.0,0.0,0.0,0.0,0.0,0.0,0.0,0.0,0.0,0.0,0.0,0.0,0.0,0.0,0.0,0.0,0.0,0.0,0.0,0.0,0.0,0.0,0.0,0.0,0.0,0.0,0.0,0.0,0.0,0.0,0.0,0.0,0.0,0.0,0.0,0.0,0.0,0.0,0.0,0.0,0.0,0.0,0.0,0.0,0.0,0.0,0.0,0.0,0.0,0.0,0.0,0.0,0.0,0.0,0.0,0.0,0.0,0.0,0.0,0.0,0.0,0.0,0.0,0.0,0.0,0.0,0.0,0.0,0.0,0.0,0.0,0.0,0.0,0.0,0.0,0.0,0.0,0.0,0.0,0.0,0.0,0.0,0.0,0.0,0.0,0.0,0.0,0.0,0.0,0.0,0.0,0.0,0.0,0.0,0.0,0.0,0.0,0.0,0.0,0.0,0.0,0.0,0.0,0.0,0.0,0.0,0.0,0.0,0.0,0.0,0.0,0.0,0.0,0.0,0.0,0.0,0.0,0.0,0.0,0.0,0.0,0.0,0.0,0.0,0.0,0.0,0.0,0.0,0.0,0.0,0.0,0.0,0.0,0.0,0.0,0.0,0.0,0.0,0.0,0.0,0.0,0.0,0.0,0.0,0.0,0.0,0.0,0.0,0.0,0.0,0.0,0.0,0.0,0.0,0.0,0.0,0.0,0.0,0.0,0.0,0.0,0.0,0.0,0.0,0.0,0.0,0.0,0.0,0.0,0.0,0.0,0.0,0.0,0.0,0.0,0.0,0.0,0.0,0.0,0.0,0.0,0.0,0.0,0.0,0.0,0.0,0.0,0.0,0.0,0.0,0.0,0.0,0.0,0.0,0.0,0.0,0.0,0.0,0.0,0.0,0.0,0.0,0.0,0.0,0.0,0.0,0.0,0.0,0.0,0.0,0.0,0.0,0.0,0.0,0.0,0.0,0.0,0.0,0.0,0.0,0.0,0.0,0.0,0.0,0.0,0.0,0.0,0.0,0.0,0.0,0.0,0.0,0.0,0.0,0.0,0.0,0.0,0.0,0.0,0.0,0.0,0.0,0.0,0.0,0.0,0.0,0.0,0.0,0.0,0.0,0.0,0.0,0.0,0.0,0.0,0.0,0.0,0.0,0.0,0.0,0.0,0.0,0.0,0.0,0.0,0.0,0.0,0.0,0.0,0.0,0.0,0.0,0.0,0.0,0.0,0.0,0.0,0.0,0.0,0.0,0.0,0.0,0.0,0.0,0.0,0.0,0.0,0.0,0.0,0.0,0.0,0.0,0.0,0.0,0.0,0.0,0.0,0.0,0.0,0.0,0.0,0.0,0.0,0.0,0.0,0.0,0.0,0.0,0.0,0.0,0.0,0.0,0.0,0.0,0.0,0.0,0.0,0.0,0.0,0.0,0.0,0.0,0.0,0.0,0.0,0.0,0.0,0.0,0.0,0.0,0.0,0.0,0.0,0.0,0.0,0.0,0.0,0.0,0.0,0.0,0.0,0.0,0.0,0.0,0.0,0.0,0.0,0.0,0.0,0.0,0.0,0.0,0.0,0.0,0.0,0.0,0.0,0.0,0.0,0.0,0.0,0.0,0.0,0.0,0.0,0.0,0.0,0.0,0.0,0.0,0.0,0.0,0.0,0.0,0.0,0.0,0.0,0.0,0.0,0.0,0.0,0.0,0.0,0.0,0.0,0.0,0.0,0.0,0.0,0.0,0.0,0.0,0.0,0.0,0.0,0.0,0.0,0.0,0.0,0.0,0.0,0.0,0.0,0.0,0.0,0.0,0.0,0.0,0.0,0.0,0.0,0.0,0.0,0.0,0.0,0.0,0.0,0.0,0.0,0.0,0.0,0.0,0.0,0.0,0.0,0.0,0.0,0.0,0.0,0.0,0.0,0.0,0.0,0.0,0.0,0.0,0.0,0.0,0.0,0.0,0.0,0.0,0.0,0.0,0.0,0.0,0.0,0.0,0.0,0.0,0.0,0.0,0.0,0.0,0.0,0.0,0.0,0.0,0.0,0.0,0.0,0.0,0.0,0.0,0.0,0.0,0.0,0.0,0.0,0.0,0.0,0.0,0.0,0.0,0.0,0.0,0.0,0.0,0.0,0.0,0.0,0.0,0.0,0.0,0.0,0.0,0.0,0.0,0.0,0.0,0.0,0.0,0.0,0.0,0.0,0.0,0.0,0.0,0.0,0.0,0.0,0.0,0.0,0.0,0.0,0.0,0.0,0.0,0.0,0.0,0.0,0.0,0.0,0.0,0.0,0.0,0.0,0.0,0.0,0.0,0.0,0.0,0.0,0.0,0.0,0.0,0.0,0.0,0.0,0.0,0.0,0.0,0.0,0.0,0.0,0.0,0.0,0.0,0.0,0.0,0.0,0.0,0.0,0.0,0.0,0.0,0.0,0.0,0.0,0.0,0.0,0.0,0.0,0.0,0.0,0.0,0.0,0.0,0.0,0.0,0.0,0.0,0.0,0.0,0.0,0.0,0.0,0.0,0.0,0.0,0.0,0.0,0.0,0.0,0.0,0.0,0.0,0.0,0.0,0.0,0.0,0.0,0.0,0.0,0.0,0.0,0.0,0.0,0.0,0.0,0.0,0.0,0.0,0.0,0.0,0.0,0.0,0.0,0.0,0.0,0.0,0.0,0.0,0.0,0.0,0.0,0.0,0.0,0.0,0.0,0.0,0.0,0.0,0.0,0.0,0.0,0.0,0.0,0.0,0.0,0.0,0.0,0.0,0.0,0.0,0.0,0.0,0.0,0.0,0.0,0.0,0.0,0.0,0.0,0.0,0.0,0.0,0.0,0.0,0.0,0.0,0.0,0.0,0.0,0.0,0.0,0.0,0.0,0.0,0.0,0.0,0.0,0.0,0.0,0.0,0.0,0.0,0.0,0.0,0.0,0.0,0.0,0.0,0.0,0.0,0.0,0.0,0.0,0.0,0.0,0.0,0.0,0.0,0.0,0.0,0.0,0.0,0.0,0.0,0.0,0.0,0.0,0.0,0.0,0.0,0.0,0.0,0.0,0.0,0.0,0.0,0.0,0.0,0.0,0.0,0.0,0.0,0.0,0.0,0.0,0.0,0.0,0.0,0.0,0.0,0.0,0.0,0.0,0.0,0.0,0.0,0.0,0.0,0.0,0.0,0.0,0.0,0.0,0.0,0.0,0.0,0.0,0.0,0.0,0.0,0.0,0.0,0.0,0.0,0.0,0.0,0.0,0.0,0.0,0.0,0.0,0.0,0.0,0.0,0.0,0.0,0.0,0.0,0.0,0.0,0.0,0.0,0.0,0.0,0.0,0.0,0.0,0.0,0.0,0.0,0.0,0.0,0.0,0.0,0.0,0.0,0.0,0.0,0.0,0.0,0.0,0.0,0.0,0.0,0.0,0.0,0.0,0.0,0.0,0.0,0.0,0.0,0.0,0.0,0.0,0.0,0.0,0.0,0.0,0.0,0.0,0.0,0.0,0.0,0.0,0.0,0.0,0.0,0.0,0.0,0.0,0.0,0.0,0.0,0.0,0.0,0.0,0.0,0.0,0.0,0.0,0.0,0.0,0.0,0.0,0.0,0.0,0.0,0.0,0.0,0.0,0.0,0.0,0.0,0.0,0.0,0.0,0.0,0.0,0.0,0.0,0.0,0.0,0.0,0.0,0.0,0.0,0.0,0.0,0.0,0.0,0.0,0.0,0.0,0.0,0.0,0.0,0.0,0.0,0.0,0.0,0.0,0.0,0.0,0.0,0.0,0.0,0.0,0.0,0.0,0.0,0.0,0.0,0.0,0.0,0.0,0.0,0.0,0.0,0.0,0.0,0.0,0.0,0.0,0.0,0.0,0.0,0.0,0.0,0.0,0.0,0.0,0.0,0.0,0.0,0.0,0.0,0.0,0.0,0.0,0.0,0.0,0.0,0.0,0.0,0.0,0.0,0.0,0.0,0.0,0.0,0.0,0.0,0.0,0.0,0.0,0.0,0.0,0.0,0.0,0.0,0.0,0.0,0.0,0.0,0.0,0.0,0.0,0.0,0.0,0.0,0.0,0.0,0.0,0.0,0.0,0.0,0.0,0.0,0.0,0.0,0.0,0.0,0.0,0.0,0.0,0.0,0.0,0.0,0.0,0.0,0.0,0.0,0.0,0.0,0.0,0.0,0.0,0.0,0.0,0.0,0.0,0.0,0.0,0.0,0.0,0.0,0.0,0.0,0.0,0.0,0.0,0.0,0.0,0.0,0.0,0.0,0.0,0.0,0.0,0.0,0.0,0.0,0.0,0.0,0.0,0.0,0.0,0.0,0.0,0.0,0.0,0.0,0.0,0.0,0.0,0.0,0.0,0.0,0.0,0.0,0.0,0.0,0.0,0.0,0.0,0.0,0.0,0.0,0.0,0.0,0.0,0.0,0.0,0.0,0.0,0.0,0.0,0.0,0.0,0.0,0.0,0.0,0.0,0.0,0.0,0.0,0.0,0.0,0.0,0.0,0.0,0.0,0.0,0.0,0.0,0.0,0.0,0.0,0.0,0.0,0.0,0.0,0.0,0.0,0.0,0.0,0.0,0.0,0.0,0.0,0.0,0.0,0.0,0.0,0.0,0.0,0.0,0.0,0.0,0.0,0.0,0.0,0.0,0.0,0.0,0.0,0.0,0.0,0.0,0.0,0.0,0.0,0.0,0.0,0.0,0.0,0.0,0.0,0.0,0.0,0.0,0.0,0.0,0.0,0.0,0.0,0.0,0.0,0.0,0.0,0.0,0.0,0.0,0.0,0.0,0.0,0.0,0.0,0.0,0.0,0.0,0.0,0.0,0.0,0.0,0.0,0.0,0.0,0.0,0.0,0.0,0.0,0.0,0.0,0.0,0.0,0.0,0.0,0.0,0.0,0.0,0.0,0.0,0.0,0.0,0.0,0.0,0.0,0.0,0.0,0.0,0.0,0.0,0.0,0.0,0.0,0.0,0.0,0.0,0.0,0.0,0.0,0.0,0.0,0.0,0.0,0.0,0.0,0.0,0.0,0.0,0.0,0.0,0.0,0.0,0.0,0.0,0.0,0.0,0.0,0.0,0.0,0.0,0.0,0.0,0.0,0.0,0.0,0.0,0.0,0.0,0.0,0.0,0.0,0.0,0.0,0.0,0.0,0.0,0.0,0.0,0.0,0.0,0.0,0.0,0.0,0.0,0.0,0.0,0.0,0.0,0.0,0.0,0.0,0.0,0.0,0.0,0.0,0.0,0.0,0.0,0.0,0.0,0.0,0.0,0.0,0.0,0.0,0.0,0.0,0.0,0.0,0.0,0.0,0.0,0.0,0.0,0.0,0.0,0.0,0.0,0.0,0.0,0.0,0.0,0.0,0.0,0.0,0.0,0.0,0.0,0.0,0.0,0.0,0.0,0.0,0.0,0.0,0.0,0.0,0.0,0.0,0.0,0.0,0.0,0.0,0.0,0.0,0.0,0.0,0.0,0.0,0.0,0.0,0.0,0.0,0.0,0.0,0.0,0.0,0.0,0.0,0.0,0.0,0.0,0.0,0.0,0.0,0.0,0.0,0.0,0.0,0.0,0.0,0.0,0.0,0.0,0.0,0.0,0.0,0.0,0.0,0.0,0.0,0.0,0.0,0.0,0.0,0.0,0.0,0.0,0.0,0.0,0.0,0.0,0.0,0.0,0.0,0.0,0.0,0.0,0.0,0.0,0.0,0.0,0.0,0.0,0.0,0.0,0.0,0.0,0.0,0.0,0.0,0.0,0.0,0.0,0.0,0.0,0.0,0.0,0.0,0.0,0.0,0.0,0.0,0.0,0.0,0.0,0.0,0.0,0.0,0.0,0.0,0.0,0.0,0.0,0.0,0.0,0.0,0.0,0.0,0.0,0.0,0.0,0.0,0.0,0.0,0.0,0.0,0.0,0.0,0.0,0.0,0.0,0.0,0.0,0.0,0.0,0.0,0.0,0.0,0.0,0.0,0.0,0.0,0.0,0.0,0.0,0.0,0.0,0.0,0.0,0.0,0.0,0.0,0.0,0.0,0.0,0.0,0.0,0.0,0.0,0.0,0.0,0.0,0.0,0.0,0.0,0.0,0.0,0.0,0.0,0.0,0.0,0.0,0.0,0.0,0.0,0.0,0.0,0.0,0.0,0.0,0.0,0.0,0.0,0.0,0.0,0.0,0.0,0.0,0.0,0.0,0.0,0.0,0.0,0.0,0.0,0.0,0.0,0.0,0.0,0.0,0.0,0.0,0.0,0.0,0.0,0.0,0.0,0.0,0.0,0.0,0.0,0.0,0.0,0.0,0.0,0.0,0.0,0.0,0.0,0.0,0.0,0.0,0.0,0.0,0.0,0.0,0.0,0.0,0.0,0.0,0.0,0.0,0.0,0.0,0.0,0.0,0.0,0.0,0.0,0.0,0.0,0.0,0.0,0.0,0.0,0.0,0.0,0.0,0.0,0.0,0.0,0.0,0.0,0.0,0.0,0.0,0.0,0.0,0.0,0.0,0.0,0.0,0.0,0.0,0.0,0.0,0.0,0.0,0.0,0.0,0.0,0.0,0.0,0.0,0.0,0.0,0.0,0.0,0.0,0.0,0.0,0.0,0.0,0.0,0.0,0.0,0.0,0.0,0.0,0.0,0.0,0.0,0.0,0.0,0.0,0.0,0.0,0.0,0.0,0.0,0.0,0.0,0.0,0.0,0.0,0.0,0.0,0.0,0.0,0.0,0.0,0.0,0.0,0.0,0.0,0.0,0.0,0.0,0.0,0.0,0.0,0.0,0.0,0.0,0.0,0.0,0.0,0.0,0.0,0.0,0.0,0.0,0.0,0.0,0.0,0.0,0.0,0.0,0.0,0.0,0.0,0.0,0.0,0.0,0.0,0.0,0.0,0.0,0.0,0.0,0.0,0.0,0.0,0.0,0.0,0.0,0.0,0.0,0.0,0.0,0.0,0.0,0.0,0.0,0.0,0.0,0.0,0.0,0.0,0.0,0.0,0.0,0.0,0.0,0.0,0.0,0.0,0.0,0.0,0.0,0.0,0.0,0.0,0.0,0.0,0.0,0.0,0.0,0.0,0.0,0.0,0.0,0.0,0.0,0.0,0.0,0.0,0.0,0.0,0.0,0.0,0.0,0.0,0.0,0.0,0.0,0.0,0.0,0.0,0.0,0.0,0.0,0.0,0.0,0.0,0.0,0.0,0.0,0.0,0.0,0.0,0.0,0.0,0.0,0.0,0.0,0.0,0.0,0.0,0.0,0.0,0.0,0.0,0.0,0.0,0.0,0.0,0.0,0.0,0.0,0.0,0.0,0.0,0.0,0.0,0.0,0.0,0.0,0.0,0.0,0.0,0.0,0.0,0.0,0.0,0.0,0.0,0.0,0.0,0.0,0.0,0.0,0.0,0.0,0.0,0.0,0.0,0.0,0.0,0.0,0.0,0.0,0.0,0.0,0.0,0.0,0.0,0.0,0.0,0.0,0.0,0.0,0.0,0.0,0.0,0.0,0.0,0.0,0.0,0.0,0.0,0.0,0.0,0.0,0.0,0.0,0.0,0.0,0.0,0.0,0.0039,0.0,0.0,0.0,0.0,0.0,0.0,0.0,0.0,0.0,0.0,0.0,0.0,0.0,0.0,0.0,0.0,0.0,0.0,0.0,0.0,0.0,0.0,0.0,0.0,0.0,0.0,0.0,0.0,0.0,0.0,0.0,0.0,0.0,0.0,0.0,0.0,0.0,0.0,0.0,0.0,0.0,0.0,0.0,0.0,0.0,0.0,0.0,0.0,0.0,0.0,0.0,0.0,0.0,0.0,0.0,0.0,0.0,0.0,0.0,0.0,0.0,0.0,0.0,0.0,0.0,0.0,0.0,0.0,0.0,0.0,0.0,0.0,0.0,0.0,0.0,0.0,0.0,0.0,0.0,0.0,0.0,0.0,0.0,0.0,0.0,0.0,0.0,0.0,0.0,0.0,0.0,0.0,0.0,0.0,0.0,0.0,0.0,0.0,0.0,0.0,0.0,0.0,0.0,0.0,0.0,0.0,0.0,0.0,0.0,0.0,0.0,0.0,0.0,0.0,0.0471,0.0429,0.0306,0.0,0.0,0.0,0.0,0.0,0.0,0.0,0.0,0.0,0.0,0.0,0.0,0.0,0.0,0.0,0.0,0.0,0.0,0.0,0.0,0.0,0.0,0.0,0.0,0.0,0.0,0.0,0.0,0.0,0.0,0.0,0.0,0.0,0.0,0.0,0.0,0.0,0.0,0.0,0.0,0.0,0.0,0.0,0.0,0.0,0.0,0.0,0.0,0.0,0.0,0.0,0.0,0.0,0.0,0.0,0.0,0.0,0.0,0.0,0.0,0.0,0.0,0.0,0.0,0.0,0.0,0.0,0.0,0.0,0.0,0.0,0.0,0.0,0.0,0.0,0.0,0.0,0.0,0.0,0.0,0.0,0.0,0.0,0.0,0.0,0.0,0.0,0.0,0.0,0.0,0.0,0.0,0.0,0.0,0.0,0.0,0.0,0.0,0.0,0.0,0.0,0.0,0.0,0.0,0.0,0.0,0.0,0.0,0.0,0.0,0.0,0.0982,0.0904,0.0982,0.0886,0.0556,0.0267,0.0076,0.0,0.0,0.0,0.0,0.0,0.0,0.0,0.0,0.0,0.0,0.0,0.0,0.0,0.0,0.0,0.0,0.0,0.0,0.0,0.0,0.0,0.0,0.0,0.0,0.0,0.0,0.0,0.0,0.0,0.0,0.0,0.0,0.0,0.0,0.0,0.0,0.0,0.0,0.0,0.0,0.0,0.0,0.0,0.0,0.0,0.0,0.0,0.0,0.0,0.0,0.0,0.0,0.0,0.0,0.0,0.0,0.0,0.0,0.0,0.0,0.0,0.0,0.0,0.0,0.0,0.0,0.0,0.0,0.0,0.0,0.0,0.0,0.0,0.0,0.0,0.0,0.0,0.0,0.0,0.0,0.0,0.0,0.0,0.0,0.0,0.0,0.0,0.0,0.0,0.0,0.0,0.0,0.0,0.0,0.0,0.0,0.0,0.0,0.0,0.0,0.0,0.0,0.0,0.0,0.0,0.0,0.0,0.0,0.1647,0.1492,0.1647,0.1631,0.1408,0.0758,0.0265,0.0,0.0,0.0,0.0,0.0,0.0,0.0,0.0,0.0,0.0,0.0,0.0,0.0,0.0,0.0,0.0,0.0,0.0,0.0,0.0,0.0,0.0,0.0,0.0,0.0,0.0,0.0,0.0,0.0,0.0,0.0,0.0,0.0,0.0,0.0,0.0,0.0,0.0,0.0,0.0,0.0,0.0,0.0,0.0,0.0,0.0,0.0,0.0,0.0,0.0,0.0,0.0,0.0,0.0,0.0,0.0,0.0,0.0,0.0,0.0,0.0,0.0,0.0,0.0,0.0,0.0,0.0,0.0,0.0,0.0,0.0,0.0,0.0,0.0,0.0,0.0,0.0,0.0,0.0,0.0,0.0,0.0,0.0,0.0,0.0,0.0,0.0,0.0,0.0,0.0,0.0,0.0,0.0,0.0,0.0,0.0,0.0,0.0,0.0,0.0,0.0,0.0,0.0,0.0,0.0,0.0,0.0,0.0,0.2741,0.2702,0.2588,0.2465,0.2259,0.1299,0.075,0.0,0.0,0.0,0.0,0.0,0.0,0.0,0.0,0.0,0.0,0.0,0.0,0.0,0.0,0.0,0.0,0.0,0.0,0.0,0.0,0.0,0.0,0.0,0.0,0.0,0.0,0.0,0.0,0.0,0.0,0.0,0.0,0.0,0.0,0.0,0.0,0.0,0.0,0.0,0.0,0.0,0.0,0.0,0.0,0.0,0.0,0.0,0.0,-0.5395,0.0,0.0,0.0,0.0,0.0,0.0,0.0,0.0,0.0,0.0,0.0,0.0,0.0,0.0,0.0,0.0,0.0,0.0,0.0,0.0,0.0,0.0,0.0,0.0,0.0,0.0,0.0,0.0,0.0,0.0,0.0,0.0,0.0,0.0,0.0,0.0,0.0,0.0,0.0,0.0,0.0,0.0,0.0,0.0,0.0,0.0,0.0,0.0,0.0,0.0,0.0,0.0,0.0,0.0,0.0,0.0,0.0,0.0,0.0,0.3734,0.3619,0.3661,0.3565,0.3246,0.2498,0.1819,0.0,0.0,0.0,0.0,0.0,0.0,0.0,0.0,0.0,0.0,0.0,0.0,0.0,0.0,0.0,0.0,0.0,0.0,0.0,0.0,0.0,0.0,0.0,0.0,0.0,0.0,0.0,0.0,0.0,0.0,0.0,0.0,0.0,0.0,0.0,0.0,0.0,0.0,0.0,0.0,0.0,0.0,0.0,0.0,0.0,0.0,0.0,0.0,0.0,0.0,0.0,0.0,0.0,0.0,0.0,0.0,0.0,0.0,0.0,0.0,0.0,0.0,0.0,0.0,0.0,0.0,0.0,0.0,0.0,0.0,0.0,0.0,0.0,0.0,0.0,0.0,0.0,0.0,0.0,0.0,0.0,0.0,0.0,0.0,0.0,0.0,0.0,0.0,0.0,0.0,0.0,0.0,0.0,0.0,0.0,0.0,0.0,0.0,0.0,0.0,0.0,0.0,0.0,0.0,0.0,0.0,0.0,0.4395,0.4565,0.4418,0.464,0.4618,0.43,0.388,0.3125,0.1953,0.0,0.0,0.0,0.0,0.0,0.0,0.0,0.0,0.0,0.0,0.0,0.0,0.0,0.0,0.0,0.0,0.0,0.0,0.0,0.0,0.0,0.0,0.0,0.0,0.0,0.0,0.0,0.0,0.0,0.0,0.0,0.0,0.0,0.0,0.0,0.0,0.0,0.0,-0.5165,-0.5281,0.0,0.0,0.0,0.0,0.0,0.0,0.0,0.0,-0.5131,0.0,0.0,0.0,0.0,0.0,0.0,0.0,0.0,0.0,0.0,0.0,0.0,0.0,0.0,0.0,0.0,0.0,0.0,0.0,0.0,0.0,0.0,0.0,0.0,0.0,0.0,0.0,0.0,0.0,0.0,0.0,0.0,0.0,0.0,0.0,0.0,0.0,0.0,0.0,0.0,0.0,0.0,0.0,0.0,0.0,0.0,0.0,0.0,0.0,0.0,0.0,0.0,0.0,0.0,0.0,0.0,0.4976,0.514,0.5242,0.5208,0.5177,0.5165,0.5118,0.4702,0.4261,0.3692,0.0,0.0,0.0,0.0,0.0,0.0,0.0,0.0,0.0,0.0,0.0,0.0,0.0,0.0,0.0,0.0,0.0,0.0,0.0,0.0,0.0,0.0,0.0,0.0,0.0,0.0,0.0,0.0,0.0,0.0,0.0,0.0,0.0,0.0,0.0,0.0,0.0,0.0,0.0,-0.5378,-0.5395,0.0,0.0,0.0,0.0,0.0,0.0,0.0,0.0,-0.5022,0.0,0.0,0.0,0.0,0.0,0.0,0.0,0.0,0.0,0.0,0.0,0.0,0.0,0.0,0.0,0.0,0.0,0.0,0.0,0.0,0.0,0.0,0.0,0.0,0.0,0.0,0.0,0.0,0.0,0.0,0.0,0.0,0.0,0.0,0.0,0.0,0.0,0.0,0.0,0.0,0.0,0.0,0.0,0.0,0.0,0.0,0.0,0.0,0.0,0.0,0.0,0.0,0.0,0.0,0.0,0.5271,0.5475,0.5654,0.5732,0.5794,0.575,0.5625,0.5297,0.4945,0.0,0.0,0.0,0.0,0.0,0.0,0.0,0.0,0.0,0.0,0.0,0.0,0.0,0.0,0.0,0.0,0.0,0.0,0.0,0.0,0.0,0.0,0.0,0.0,0.0,0.0,0.0,0.0,0.0,0.0,0.0,0.0,0.0,0.0,0.0,0.0,0.0,0.0,0.0,0.0,-0.5395,-0.5395,-0.5395,0.0,0.0,0.0,0.0,0.0,0.0,-0.5233,-0.5049,0.0,0.0,0.0,0.0,0.0,0.0,0.0,0.0,0.0,0.0,0.0,0.0,0.0,0.0,0.0,0.0,0.0,0.0,0.0,0.0,0.0,0.0,0.0,0.0,0.0,0.0,0.0,0.0,0.0,0.0,0.0,0.0,0.0,0.0,0.0,0.0,0.0,0.0,0.0,0.0,0.0,0.0,0.0,0.0,0.0,0.0,0.0,0.0,0.0,0.0,0.0,0.0,0.0,0.0,0.0,0.5378,0.5657,0.5878,0.599,0.6179,0.618,0.5973,0.5704,0.5411,0.0,0.0,0.0,0.0,0.0,0.0,0.0,0.0,0.0,0.0,0.0,0.0,0.0,0.0,0.0,0.0,0.0,0.0,0.0,0.0,0.0,0.0,0.0,0.0,0.0,0.0,0.0,0.0,0.0,0.0,0.0,0.0,0.0,0.0,0.0,0.0,0.0,0.0,0.0,0.0,0.0,-0.5395,-0.5395,-0.5395,0.0,0.0,0.0,0.0,-0.5395,-0.526,0.0,0.0,0.0,0.0,0.0,0.0,0.0,0.0,0.0,0.0,0.0,0.0,0.0,0.0,0.0,0.0,0.0,0.0,0.0,0.0,0.0,0.0,0.0,0.0,0.0,0.0,0.0,0.0,0.0,0.0,0.0,0.0,0.0,0.0,0.0,0.0,0.0,0.0,0.0,0.0,0.0,0.0,0.0,0.0,0.0,0.0,0.0,0.0,0.0,0.0,0.0,0.0,0.0,0.0,0.0,0.0,0.5555,0.5728,0.5874,0.599,0.6179,0.6296,0.6254,0.5962,0.5659,0.0,0.0,0.0,0.0,0.0,0.0,0.0,0.0,0.0,0.0,0.0,0.0,0.0,0.0,0.0,0.0,0.0,0.0,0.0,0.0,0.0,0.0,0.0,0.0,0.0,0.0,0.0,0.0,0.0,0.0,0.0,0.0,0.0,0.0,0.0,0.0,0.0,0.0,0.0,0.0,0.0,-0.5395,-0.5395,-0.5395,-0.5395,0.0,0.0,0.0,-0.5395,-0.5378,0.0,0.0,0.0,0.0,0.0,0.0,0.0,0.0,0.0,0.0,0.0,0.0,0.0,0.0,0.0,0.0,0.0,0.0,0.0,0.0,0.0,0.0,0.0,0.0,0.0,0.0,0.0,0.0,0.0,0.0,0.0,0.0,0.0,0.0,0.0,0.0,0.0,0.0,0.0,0.0,0.0,0.0,0.0,0.0,0.0,0.0,0.0,0.0,0.0,0.0,0.0,0.0,0.0,0.0,0.0,0.5508,0.5701,0.5769,0.5918,0.6152,0.6265,0.63,0.6296,0.5962,0.5764,0.0,0.0,0.0,0.0,0.0,0.0,0.0,0.0,0.0,0.0,0.0,0.0,0.0,0.0,0.0,0.0,0.0,0.0,0.0,0.0,0.0,0.0,0.0,0.0,0.0,0.0,0.0,0.0,0.0,0.0,0.0,0.0,0.0,0.0,0.0,0.0,0.0,0.0,0.0,0.0,0.0,0.0,-0.5395,-0.5395,0.0,0.0,0.0,-0.5395,-0.5395,0.0,0.0,0.0,0.0,0.0,0.0,0.0,0.0,0.0,0.0,0.0,0.0,0.0,0.0,0.0,0.0,0.0,0.0,0.0,0.0,0.0,0.0,0.0,0.0,0.0,0.0,0.0,0.0,0.0,0.0,0.0,0.0,0.0,0.0,0.0,0.0,0.0,0.0,0.0,0.0,0.0,0.0,0.0,0.0,0.0,0.0,0.0,0.0,0.0,0.0,0.0,0.0,0.0,0.0,0.0,0.0,0.0,0.5793,0.58,0.5989,0.6286,0.63,0.63,0.6293,0.5962,0.0,0.0,0.0,0.0,0.0,0.0,0.0,0.0,0.0,0.0,0.0,0.0,0.0,0.0,0.0,0.0,0.0,0.0,0.0,0.0,0.0,0.0,0.0,0.0,0.0,0.0,0.0,-0.3675,0.0,0.0,0.0,0.0,0.0,0.0,0.0,0.0,0.0,0.0,0.0,0.0,0.0,0.0,-0.5395,-0.5395,-0.5395,-0.5395,0.0,0.0,-0.5395,-0.5395,-0.5395,-0.5354,0.0,0.0,0.0,0.0,0.0,0.0,0.0,0.0,0.0,0.0,0.0,0.0,0.0,0.0,0.0,0.0,0.0,0.0,0.0,0.0,0.0,0.0,0.0,0.0,0.0,0.0,0.0,0.0,0.0,0.0,0.0,0.0,0.0,0.0,0.0,0.0,0.0,0.0,0.0,0.0,0.0,0.0,0.0,0.0,0.0,0.0,0.0,0.0,0.0,0.0,0.0,0.0,0.0,0.0,0.0,0.5789,0.58,0.5949,0.6282,0.63,0.63,0.6296,0.5999,0.5803,0.0,0.0,0.0,0.0,0.0,0.0,0.0,0.0,0.0,0.0,0.0,0.0,0.0,0.0,0.0,0.0,0.0,0.0,0.0,0.0,0.0,0.0,0.0,0.0,0.0,0.0,0.0,0.0,0.0,0.0,0.0,0.0,0.0,0.0,0.0,0.0,0.0,0.0,0.0,0.0,0.0,-0.5395,-0.5395,-0.5395,-0.5395,0.0,0.0,-0.5395,-0.5395,-0.5395,-0.5392,-0.5382,0.0,0.0,0.0,0.0,0.0,0.0,0.0,0.0,0.0,0.0,0.0,0.0,0.0,0.0,0.0,0.0,0.0,0.0,0.0,0.0,0.0,0.0,0.0,0.0,0.0,0.0,0.0,0.0,0.0,0.0,0.0,0.0,0.0,0.0,0.0,0.0,0.0,0.0,0.0,0.0,0.0,0.0,0.0,0.0,0.0,0.0,0.0,0.0,0.0,0.0,0.0,0.0,0.0,0.5542,0.5796,0.58,0.5949,0.6282,0.63,0.63,0.63,0.6054,0.5898,0.0,0.0,0.0,0.0,0.0,0.0,0.0,0.0,0.0,0.0,0.0,0.0,0.0,0.0,0.0,0.0,0.0,0.0,0.0,0.0,0.0,0.0,0.0,0.0,0.0,0.0,0.0,0.0,-0.4797,-0.5248,-0.5583,0.0,0.0,0.0,0.0,0.0,0.0,0.0,0.0,0.0,0.0,-0.5395,-0.5395,-0.5395,0.0,0.0,-0.5395,-0.5395,-0.5395,-0.5395,-0.5395,-0.5395,-0.5344,0.0,0.0,0.0,0.0,0.0,0.0,0.0,0.0,0.0,0.0,0.0,0.0,0.0,0.0,0.0,0.0,0.0,0.0,0.0,0.0,0.0,0.0,0.0,0.0,0.0,0.0,0.0,0.0,0.0,0.0,0.0,0.0,0.0,0.0,0.0,0.0,0.0,0.0,0.0,0.0,0.0,0.0,0.0,0.0,0.0,0.0,0.0,0.0,0.0,0.0,0.0,0.0,0.5539,0.58,0.58,0.5989,0.6293,0.63,0.63,0.6296,0.6112,0.5919,0.0,0.0,0.0,0.0,0.0,0.0,0.0,0.0,0.0,0.0,0.0,0.0,0.0,0.0,0.0,0.0,0.0,0.0,0.0,0.0,0.0,0.0,0.0,0.0,0.0,0.0,0.0,0.0,-0.4805,-0.531,-0.545,0.0,0.0,0.0,0.0,0.0,0.0,0.0,0.0,0.0,0.0,-0.5395,-0.5395,-0.5395,-0.5395,-0.5395,-0.5395,-0.5395,-0.5395,-0.5395,-0.5395,-0.5395,0.0,0.0,0.0,0.0,0.0,0.0,0.0,0.0,0.0,0.0,0.0,0.0,0.0,0.0,0.0,0.0,0.0,0.0,0.0,0.0,0.0,0.0,0.0,0.0,0.0,0.0,0.0,0.0,0.0,0.0,0.0,0.0,0.0,0.0,0.0,0.0,0.0,0.0,0.0,0.0,0.0,0.0,0.0,0.0,0.0,0.0,0.0,0.0,0.0,0.0,0.0,0.0,0.0,0.0,0.5796,0.5806,0.5952,0.6286,0.63,0.63,0.6296,0.6115,0.5922,0.5813,0.0,0.0,0.0,0.0,0.0,0.0,0.0,0.0,0.0,0.0,0.0,0.0,0.0,0.0,0.0,0.0,0.0,0.0,0.0,0.0,0.0,0.0,0.0,0.0,0.0,0.0,-0.3758,-0.4595,-0.5096,0.0,0.0,0.0,0.0,0.0,0.0,0.0,0.0,0.0,0.0,-0.5395,-0.5395,-0.5395,-0.5395,-0.5395,-0.5395,-0.5395,-0.5395,-0.5395,-0.5395,-0.5395,0.0,0.0,0.0,0.0,0.0,0.0,0.0,0.0,0.0,0.0,0.0,0.0,0.0,0.0,0.0,0.0,0.0,0.0,0.0,0.0,0.0,0.0,0.0,0.0,0.0,0.0,0.0,0.0,0.0,0.0,0.0,0.0,0.0,0.0,0.0,0.0,0.0,0.0,0.0,0.0,0.8208,0.7787,0.0,0.0,0.0,0.0,0.0,0.0,0.0,0.0,0.0,0.0,0.0,0.0,0.5644,0.5796,0.5905,0.6051,0.6289,0.63,0.63,0.63,0.6248,0.6112,0.5959,0.0,0.0,0.0,0.0,0.0,0.0,0.0,0.0,0.0,0.0,0.0,0.0,0.0,0.0,0.0,0.0,0.0,0.0,0.0,0.0,0.0,0.0,0.0,0.0,0.0,-0.3088,0.0,0.0,0.0,0.0,0.0,0.0,0.0,0.0,0.0,0.0,0.0,-0.5395,-0.5395,-0.5395,-0.5395,-0.5395,-0.5395,-0.5395,0.0,0.0,0.0,0.0,0.0,0.0,0.0,0.0,0.0,0.0,0.0,0.0,0.0,0.0,-0.4924,-0.486,-0.4721,-0.4641,-0.4641,0.0,0.0,0.0,0.0,0.0,0.0,0.0,0.0,0.0,0.0,0.0,0.0,0.0,0.0,0.0,0.0,1.2888,0.0,0.0,0.0,0.0,0.0,0.0,0.0,0.0,0.9311,0.9117,0.8889,0.8508,0.8203,0.0,0.7476,0.6855,0.0,0.0,0.0,0.0,0.0,0.0,0.0,0.0,0.5684,0.5874,0.5939,0.6101,0.6289,0.63,0.63,0.6296,0.6248,0.6132,0.5993,0.5935,0.5928,0.0,0.0,0.0,0.0,0.0,0.0,0.0,0.0,0.0,0.0,0.0,0.0,0.0,0.0,0.0,0.0,0.0,0.0,0.0,0.0,0.0,0.0,0.0,-0.2854,0.0,0.0,0.0,0.0,0.0,0.0,0.0,0.0,0.0,-0.5395,-0.5395,-0.5395,-0.5395,-0.5395,-0.5395,-0.5395,0.0,0.0,0.0,0.0,0.0,0.0,0.0,-0.5395,-0.5395,-0.5395,-0.5395,-0.5395,-0.5395,-0.5395,-0.5395,0.0,0.0,-0.502,-0.484,-0.4769,-0.4772,-0.4687,-0.4619,-0.4648,-0.4651,-0.4651,0.0,0.0,0.0,0.0,0.0,0.0,0.0,0.0,1.4082,1.4075,0.0,1.3713,0.0,0.0,0.0,0.0,0.0,0.0,0.0,0.0,1.0143,0.9911,0.9377,0.9354,0.9018,0.8441,0.8012,0.7429,0.6634,0.6103,0.0,0.0,0.0,0.0,0.0,0.0,0.5749,0.599,0.601,0.6122,0.6313,0.6313,0.6303,0.6296,0.6118,0.6006,0.6003,0.6,0.6,0.6,0.6179,0.0,0.0,0.0,0.0,0.0,0.0,0.0,0.0,0.0,0.0,0.0,0.0,0.0,0.0,0.0,0.0,0.0,0.0,0.0,0.0,-0.1513,0.0,0.0,0.0,0.0,0.0,0.0,0.0,0.0,0.0,0.0,-0.5395,-0.5395,-0.5395,-0.5395,0.0,0.0,0.0,0.0,-0.5395,-0.5395,-0.5395,-0.5395,-0.5395,-0.5395,-0.5395,-0.5395,0.0,0.0,-0.5395,-0.5395,-0.5395,-0.5395,-0.5388,-0.5347,-0.5162,-0.4992,-0.4897,-0.4894,-0.4911,-0.4914,-0.4914,-0.4887,-0.4897,1.4088,0.0,0.0,0.0,0.0,1.4088,1.4088,1.4088,1.4088,1.4088,1.4068,1.3733,0.0,0.0,0.0,0.0,0.0,0.0,1.1192,1.0962,1.0887,1.0738,1.0545,1.0288,0.9916,0.9463,0.8775,0.81,0.7433,0.6927,0.6361,0.5742,0.0,0.0,0.0,0.0,0.6,0.6228,0.6295,0.6417,0.6573,0.6508,0.6402,0.63,0.6255,0.6235,0.6235,0.6193,0.6193,0.6196,0.6276,0.0,0.0,0.0,0.0,0.0,0.0,0.0,0.0,0.0,0.0,0.0,0.0,0.0,0.0,0.0,0.0,0.0,0.0,0.0,-0.0706,-0.121,-0.1782,0.0,0.0,0.0,0.0,0.0,0.0,0.0,0.0,0.0,-0.5409,-0.5395,-0.5395,0.0,0.0,-0.5395,-0.5395,-0.5395,-0.5395,-0.5395,0.0,0.0,0.0,-0.5395,-0.5395,-0.5395,-0.5395,-0.5395,-0.5395,-0.5395,-0.5395,-0.5395,-0.5395,-0.5378,-0.5334,-0.5176,-0.5077,-0.5036,-0.4992,-0.4921,-0.4918,-0.4918,-0.4921,1.4188,1.4088,1.4088,1.4088,1.4088,1.4088,1.4088,1.4088,1.4088,1.4088,1.4075,1.3901,1.3713,1.3573,1.314,0.0,0.0,0.0,1.1929,1.1859,1.1744,1.1706,1.1667,1.136,1.1014,1.0595,0.9847,0.9179,0.8596,0.8009,0.7361,0.6715,0.0,0.0,0.5895,0.6044,0.6193,0.6385,0.6532,0.6607,0.6695,0.659,0.647,0.6388,0.633,0.63,0.63,0.63,0.63,0.63,0.63,0.63,0.0,0.0,0.0,0.0,0.0,0.0,0.0,0.0,0.0,0.0,0.0,0.0202,0.0,0.0,0.0,0.0,-0.0101,-0.0269,-0.0471,-0.0875,0.0,0.0,0.0,0.0,0.0,0.0,0.0,-0.5315,-0.5548,-0.564,-0.5579,-0.5573,-0.5491,-0.5412,-0.5395,-0.5416,-0.5477,0.0,-0.5504,-0.5528,-0.5538,-0.5569,-0.5538,-0.5569,-0.5552,-0.5494,-0.5484,-0.546,-0.5402,-0.5395,-0.5395,-0.5395,-0.5395,-0.5395,-0.5395,-0.5281,-0.5223,-0.522,-0.5155,-0.5098,-0.5098,-0.5094,-0.5094,1.4369,1.4122,1.4095,1.4088,1.4088,1.4088,1.4088,1.4088,1.4088,1.4088,1.4088,1.4088,1.3921,1.3586,1.332,0.0,0.0,1.2923,1.2843,1.2651,1.2651,1.2651,1.2644,1.2445,1.2132,1.1772,1.1111,1.046,0.9892,0.9232,0.8705,0.8205,0.6946,0.6276,0.6084,0.6265,0.6445,0.6549,0.6647,0.6719,0.6719,0.6569,0.6485,0.6511,0.6375,0.63,0.63,0.63,0.63,0.63,0.63,0.63,0.63,0.0,0.0,0.0,0.0,0.0,0.0,0.0,0.0,0.0,0.0,0.0,0.0,0.0,0.0,0.0,0.0,0.0,0.0,-0.0438,0.0,0.0,0.0,-0.2941,-0.3681,-0.4351,-0.4905,-0.5218,0.0,0.0,0.0,0.0,-0.5679,-0.5467,-0.5429,-0.5481,-0.5589,-0.5606,-0.5654,-0.5766,-0.5796,-0.5796,-0.5769,-0.5776,-0.5735,-0.5661,-0.5634,-0.5535,-0.5446,-0.5399,-0.5399,-0.5395,-0.5395,-0.5395,-0.5395,-0.5388,-0.5395,-0.5385,-0.5385,-0.5385,-0.5371,-0.5371,-0.5365,1.4482,1.4396,1.4182,1.4088,1.4088,1.4088,1.4088,1.4088,1.4088,1.4088,1.4088,1.4088,1.3921,1.36,1.3533,1.338,1.3127,1.3127,1.3094,1.3055,1.3048,1.3055,1.3048,1.285,1.2611,1.2372,1.1766,1.1232,1.0783,1.0252,0.9725,0.9181,0.8635,0.7856,0.6862,0.6898,0.6874,0.6775,0.6812,0.6829,0.6825,0.6725,0.659,0.6511,0.6375,0.63,0.63,0.63,0.63,0.63,0.63,0.63,0.63,0.63,0.0,0.0,0.0,0.0,0.0,0.0,0.0,0.0,0.0,0.0405,0.0236,0.0,0.0,0.0,0.0,0.0,0.0,-0.0274,0.0,0.0,-0.1694,-0.2463,-0.3175,-0.3944,-0.4572,-0.4971,-0.5265,-0.5528,-0.5571,-0.5685,-0.5719,-0.5725,-0.5694,-0.5711,-0.5749,-0.5752,-0.5762,-0.58,-0.5813,-0.58,-0.5813,-0.58,-0.58,-0.5759,-0.5661,-0.5576,-0.5576,-0.547,-0.5395,-0.5395,-0.5395,-0.5395,-0.5395,-0.5395,-0.5395,-0.5395,-0.5395,-0.5395,-0.5395,-0.5395,-0.5395,1.4836,1.4696,1.4402,1.4282,1.4269,1.4142,1.4088,1.4088,1.4088,1.4088,1.4088,1.4088,1.3995,1.38,1.38,1.3754,1.3601,1.3601,1.3601,1.3601,1.3601,1.3601,1.3601,1.3478,1.3308,1.3057,1.2653,1.2276,1.1981,1.1391,1.0887,1.047,1.0006,0.9256,0.8209,0.7754,0.7344,0.7097,0.703,0.695,0.6883,0.6776,0.6627,0.6518,0.6375,0.63,0.63,0.63,0.63,0.63,0.63,0.63,0.63,0.63,0.6163,0.0,0.0,0.0,0.0,0.0,0.0,0.0,0.0,0.0,0.0,0.0,0.0,0.0,0.0,0.0,0.0,-0.0173,-0.0455,-0.0876,-0.147,-0.2184,-0.2909,-0.3672,-0.4326,-0.4809,-0.5139,-0.5418,-0.5535,-0.5698,-0.5831,-0.5827,-0.5929,-0.6016,-0.5915,-0.5905,-0.5888,-0.5993,-0.6006,-0.6006,-0.6006,-0.6006,-0.5983,-0.5911,-0.584,-0.5749,-0.5616,-0.5556,-0.5477,-0.5412,-0.5395,-0.5395,-0.5395,-0.5395,-0.5395,-0.5395,-0.5395,-0.5395,-0.5395,-0.5395,-0.5395,1.5244,1.5042,1.4703,1.4576,1.4556,1.4269,1.4122,1.4088,1.4088,1.4088,1.4088,1.4088,1.4088,1.4088,1.4088,1.4088,1.4088,1.4122,1.4142,1.4148,1.4142,1.4142,1.4142,1.4108,1.3955,1.3737,1.3519,1.3349,1.3185,1.2527,1.2152,1.1894,1.1277,1.0591,0.9973,0.8935,0.8061,0.7343,0.721,0.7078,0.6916,0.6807,0.6658,0.6545,0.6402,0.6317,0.63,0.63,0.63,0.63,0.63,0.63,0.63,0.63,0.617,0.0,0.5653,0.0,0.0,0.0,0.0,0.0,0.0,0.0,0.0,0.0135,0.0,0.0,0.0,0.0,0.0,-0.0139,-0.0423,-0.0814,-0.1305,-0.1914,-0.2725,-0.3375,-0.4024,-0.4631,-0.4986,-0.5285,-0.547,-0.5709,-0.5822,-0.5883,-0.6034,-0.6148,-0.6054,-0.6057,-0.6101,-0.6286,-0.63,-0.6262,-0.6269,-0.6282,-0.6242,-0.6088,-0.6027,-0.5939,-0.5701,-0.5616,-0.5579,-0.5463,-0.5412,-0.5395,-0.5395,-0.5395,-0.5395,-0.5395,-0.5395,-0.5395,-0.5395,-0.5395,-0.5395,1.5357,1.5291,1.5042,1.4928,1.4901,1.4563,1.4302,1.4088,1.4088,1.4088,1.4088,1.4088,1.4088,1.4088,1.4088,1.4088,1.4102,1.4329,1.4436,1.4442,1.4436,1.4436,1.4422,1.4195,1.4082,1.4004,1.3779,1.3603,1.3568,1.3528,1.338,1.3168,1.2847,1.2451,0.0,0.0,0.0,0.0,0.7445,0.7309,0.7055,0.6916,0.6814,0.6661,0.6512,0.0,0.6306,0.63,0.63,0.63,0.63,0.0,0.0,0.0,0.0,0.0,0.0,0.0,0.0,0.0,0.0,0.0,0.1882,0.1177,0.0539,0.0202,0.0,0.0,0.0,0.0,0.0,-0.0036,-0.0219,-0.0633,-0.0916,-0.1394,-0.2245,-0.2871,-0.3424,-0.3932,-0.4494,-0.489,-0.5085,-0.5279,-0.555,-0.5825,-0.5941,-0.6051,-0.622,-0.6207,-0.6265,-0.6293,-0.63,-0.63,-0.63,-0.63,-0.6293,-0.6245,-0.6101,-0.6013,-0.5899,-0.5739,-0.5634,-0.5538,-0.5477,-0.5399,-0.5395,-0.5395,-0.5395,-0.5395,-0.5395,-0.5395,-0.5395,-0.5395,-0.5395,1.5611,0.0,1.5297,1.5177,0.0,1.4863,1.4663,1.4539,1.4208,1.4088,1.4088,1.4088,1.4088,1.4088,1.4088,1.4088,1.4102,1.4389,1.4516,1.4516,1.4516,1.4516,1.4509,1.4222,1.4168,1.4295,1.4167,1.416,1.4335,1.426,1.4154,1.4021,1.3711,1.332,1.282,1.1768,1.0282,0.8378,0.8026,0.7639,0.7208,0.7139,0.6982,0.6702,0.0,0.0,0.0,0.0,0.0,0.0,0.0,0.0,0.0,0.0,0.0,0.6003,0.5918,0.5635,0.5042,0.4597,0.3984,0.3088,0.2065,0.1177,0.0539,0.027,0.0136,0.0137,0.0069,0.0,0.0,0.0,-0.0149,-0.053,-0.0774,-0.1256,-0.2078,-0.2547,-0.3056,-0.3684,-0.4075,-0.4387,-0.4813,-0.5007,-0.5279,-0.555,-0.5709,-0.5828,-0.606,-0.6219,-0.63,-0.63,-0.63,-0.63,-0.63,-0.63,-0.63,-0.6286,-0.6196,-0.6118,-0.604,-0.5908,-0.5766,-0.563,-0.5556,-0.5491,-0.5409,-0.5395,-0.5395,-0.5395,-0.5395,-0.5395,-0.5395,-0.5395,-0.5395,1.5825,1.5758,1.5578,1.5471,1.5451,1.5164,1.5055,1.4968,0.0,0.0,0.0,1.4088,1.4088,1.4088,1.4088,1.4115,1.4182,1.4469,1.4629,1.4669,1.4623,1.4596,1.4583,1.4249,1.4235,1.4509,1.4516,1.4669,1.4957,1.4823,1.476,1.4714,1.4345,1.3915,1.3325,1.1991,1.0799,0.9727,0.8824,0.8034,0.7483,0.7436,0.7232,0.6868,0.6699,0.6606,0.6555,0.6399,0.6327,0.63,0.63,0.63,0.63,0.63,0.6245,0.6084,0.6033,0.5814,0.5274,0.4974,0.4377,0.3385,0.2175,0.1259,0.0679,0.0475,0.0343,0.0317,0.0141,0.0,0.0,0.0,-0.0152,-0.0533,-0.0737,-0.1178,-0.1921,-0.2275,-0.2744,-0.3411,-0.3684,-0.3997,-0.4467,-0.4776,-0.5046,-0.5201,-0.544,-0.5634,-0.5825,-0.6103,-0.63,-0.63,-0.63,-0.63,-0.63,-0.63,-0.63,-0.6296,-0.6296,-0.6213,-0.6108,-0.601,-0.5935,-0.5732,-0.5689,-0.5614,-0.5504,-0.5467,-0.544,-0.5433,-0.5412,-0.5395,-0.5395,-0.5395,-0.5395,1.5825,1.5778,1.5785,1.5724,1.5745,1.5458,1.5197,1.4981,1.4609,1.4322,1.4088,1.4088,1.4088,1.4088,1.4088,1.4222,1.4476,1.4763,1.5037,0.0,1.5023,1.4948,1.487,1.4342,1.4235,1.4459,1.4516,1.4676,1.5008,1.5217,1.5285,1.5272,1.5257,1.4889,1.4118,1.3061,1.2179,1.1359,0.9691,0.8564,0.8082,0.7906,0.7737,0.7491,0.7292,0.7031,0.6769,0.6577,0.6426,0.6306,0.63,0.63,0.63,0.63,0.6289,0.6272,0.6269,0.6007,0.5492,0.5253,0.453,0.3195,0.2525,0.1891,0.1082,0.0731,0.0493,0.0325,0.029,0.0183,0.0,0.0,-0.0076,-0.0311,-0.0549,-0.0864,-0.1414,-0.1923,-0.2353,-0.2705,-0.3331,-0.3763,-0.3997,-0.4387,-0.4774,-0.5007,-0.5204,-0.5398,-0.5637,-0.6028,-0.6261,-0.63,-0.63,-0.63,-0.63,-0.63,-0.63,-0.63,-0.63,-0.6293,-0.6259,-0.6122,-0.6027,-0.5969,-0.5847,-0.5766,-0.5722,-0.5637,-0.5607,-0.5552,-0.5508,-0.5429,-0.5429,-0.5426,-0.5412,1.5825,1.5825,1.5825,1.5825,1.5771,1.5685,1.5464,1.5197,1.5057,1.4736,1.4335,1.4322,1.4235,1.4088,1.4088,1.4162,1.4302,1.4589,1.479,1.4903,1.4783,1.4716,1.4683,1.4289,1.4329,1.4743,1.4763,1.4997,1.5411,1.5571,1.5631,1.5591,1.5393,1.5022,1.4484,1.3605,1.2805,1.2092,1.0469,0.9366,0.8823,0.8464,0.8162,0.7906,0.7655,0.7328,0.7058,0.6928,0.669,0.6422,0.6416,0.6378,0.6306,0.63,0.63,0.63,0.63,0.6076,0.5587,0.5022,0.4323,0.3458,0.2823,0.2334,0.1864,0.1263,0.0869,0.0631,0.0446,0.0263,0.0154,0.0077,-0.0078,-0.0275,-0.0471,-0.0786,-0.1218,-0.161,-0.2041,-0.2433,-0.2862,-0.3255,-0.3724,-0.4038,-0.4348,-0.4616,-0.4929,-0.5204,-0.5401,-0.5715,-0.5951,-0.6064,-0.6219,-0.6296,-0.63,-0.63,-0.63,-0.63,-0.63,-0.63,-0.6296,-0.619,-0.6129,-0.6047,-0.5929,-0.5898,-0.583,-0.5752,-0.5711,-0.5698,-0.5657,-0.5603,-0.5599,-0.5599,-0.5579,1.5825,1.5825,1.5825,1.5825,1.5825,1.5825,1.5698,1.5504,1.5484,1.5197,1.4743,1.4583,1.4389,1.4195,1.4115,1.4128,1.4208,1.4416,1.4556,1.4609,1.4549,1.4516,1.4489,1.4222,1.4439,1.4955,1.5015,1.5257,1.5772,1.5825,1.5825,1.5778,1.5404,1.5083,1.479,1.4064,1.3354,1.2623,1.1441,1.0376,0.9557,0.9056,0.8679,0.8368,0.8029,0.7726,0.7474,0.7273,0.7005,0.6657,0.6603,0.6497,0.6361,0.6347,0.633,0.6306,0.63,0.6106,0.5631,0.4854,0.4192,0.381,0.322,0.2764,0.2428,0.1874,0.1345,0.1027,0.0649,0.0423,0.0313,0.0157,0.0,-0.0236,-0.0393,-0.0668,-0.1061,-0.1375,-0.1728,-0.2198,-0.2433,-0.2784,-0.3331,-0.3643,-0.3917,-0.4309,-0.4616,-0.4929,-0.5165,-0.5323,-0.5553,-0.5747,-0.5983,-0.6145,-0.618,-0.6219,-0.6219,-0.6257,-0.63,-0.63,-0.6296,-0.6296,-0.6262,-0.6115,-0.6088,-0.6047,-0.5935,-0.5871,-0.5861,-0.585,-0.5738,-0.5675,-0.5594,-0.5669,-0.57,1.5825,1.5825,1.5825,1.5825,1.5825,1.5825,1.5758,1.5778,1.5738,1.5611,1.5271,1.4756,1.4472,1.4449,1.4202,1.4215,1.4442,1.4502,1.4649,1.4843,1.4643,1.4516,1.4476,1.4215,1.4396,1.4955,1.5015,1.5264,1.5758,1.5825,1.5825,1.5778,1.5594,1.5309,1.5029,1.4496,1.3975,1.3491,1.2637,1.1559,1.0263,0.9742,0.9301,0.8819,0.8623,0.832,0.7932,0.751,0.7211,0.7064,0.6802,0.6651,0.6515,0.6491,0.6436,0.632,0.6306,0.6106,0.564,0.5002,0.4491,0.4105,0.3818,0.3304,0.2616,0.2417,0.2065,0.1446,0.1017,0.0705,0.0353,0.0275,0.0157,0.0,-0.0236,-0.0432,-0.0668,-0.1061,-0.1415,-0.165,-0.2119,-0.2549,-0.2705,-0.3136,-0.3643,-0.4038,-0.4309,-0.4501,-0.474,-0.4929,-0.5121,-0.5321,-0.5521,-0.5712,-0.5864,-0.5938,-0.6022,-0.6219,-0.6257,-0.6219,-0.6222,-0.6219,-0.6247,-0.6098,-0.6182,-0.6161,-0.6131,-0.6115,-0.5976,-0.5888,-0.5712,-0.5502,-0.5339,-0.5436,-0.5594,1.5825,1.5825,1.5825,1.5825,1.5825,1.5825,1.5825,1.5825,1.5825,1.5758,1.5611,1.5217,1.485,1.4509,1.4215,1.4155,1.4262,1.4262,1.4329,1.4479,1.4315,1.4269,1.4249,1.4148,1.4439,1.4975,1.5015,1.5257,1.5738,1.5825,1.5825,1.5778,1.5588,1.5452,1.5309,1.4831,1.4387,1.3993,1.3414,1.2582,1.1538,1.0531,0.9862,0.9533,0.9038,0.8655,0.8368,0.8009,0.763,0.7271,0.7084,0.693,0.6614,0.6607,0.658,0.6525,0.6438,0.6192,0.5872,0.5317,0.4877,0.4601,0.411,0.3645,0.3294,0.2823,0.2353,0.2002,0.1492,0.0983,0.0708,0.0471,0.0275,0.0157,-0.0118,-0.0314,-0.0432,-0.0825,-0.114,-0.1415,-0.1728,-0.2081,-0.2353,-0.2785,-0.3255,-0.3684,-0.3921,-0.4118,-0.4311,-0.4501,-0.4654,-0.4774,-0.4935,-0.5249,-0.5595,-0.5715,-0.5792,-0.587,-0.587,-0.5909,-0.5912,-0.5909,-0.587,-0.5909,-0.5912,-0.5912,-0.586,-0.5841,-0.5746,-0.5724,-0.5724,-0.551,-0.5434,-0.551,-0.5585,1.5825,1.5825,1.5825,1.5825,1.5825,1.5825,1.5825,1.5825,1.5825,1.5825,1.5792,1.5524,1.5164,1.475,1.4376,1.4168,1.4095,1.4088,1.4088,1.4088,1.4088,1.4088,1.4088,1.4088,1.4396,1.4928,1.5015,1.5264,1.5772,1.5825,1.5825,1.5778,1.5642,1.554,1.5445,1.5118,1.4736,1.4376,1.401,1.3414,1.2637,1.1513,1.0625,1.0108,0.9503,0.9034,0.8679,0.842,0.8059,0.7551,0.7418,0.7215,0.6899,0.6805,0.6746,0.6705,0.6529,0.6319,0.6114,0.5615,0.5238,0.5029,0.4475,0.4075,0.3836,0.328,0.2841,0.2524,0.2002,0.1562,0.1032,0.0714,0.0477,0.032,0.004,-0.012,-0.0321,-0.06,-0.0842,-0.1081,-0.1368,-0.1681,-0.2081,-0.2524,-0.2886,-0.3178,-0.3488,-0.3706,-0.3886,-0.4075,-0.4268,-0.4307,-0.4504,-0.4854,-0.5323,-0.5482,-0.5521,-0.5601,-0.564,-0.5637,-0.5601,-0.5598,-0.5598,-0.5718,-0.564,-0.5601,-0.5679,-0.5637,-0.5515,-0.5521,-0.5512,-0.5464,-0.5369,-0.5434,-0.5512,1.5825,1.5825,1.5825,1.5825,1.5825,1.5825,1.5825,1.5825,1.5825,1.5825,1.5792,1.5538,1.5384,1.5284,1.4756,1.4355,1.4122,1.4095,1.4088,1.4088,1.4088,1.4088,1.4088,1.4095,1.4396,1.4975,1.5015,1.5264,1.5798,1.5825,1.5825,1.5825,1.5778,1.5683,1.554,1.5445,1.5207,1.4729,1.4411,1.4017,1.3526,1.2695,1.1657,1.0521,1.0064,0.9616,0.8995,0.8679,0.8452,0.8181,0.7746,0.7418,0.7275,0.7001,0.6858,0.6694,0.6542,0.6415,0.6341,0.5954,0.5616,0.5399,0.5126,0.476,0.4203,0.3997,0.3541,0.2804,0.2627,0.2196,0.1512,0.1139,0.0819,0.0458,0.0377,0.0126,-0.0251,-0.0334,-0.0419,-0.0669,-0.1042,-0.1455,-0.1921,-0.2348,-0.2523,-0.2734,-0.3003,-0.3266,-0.3441,-0.3653,-0.3851,-0.4038,-0.427,-0.4538,-0.4929,-0.5087,-0.5285,-0.5365,-0.5326,-0.5482,-0.5562,-0.5601,-0.5562,-0.5521,-0.5443,-0.5401,-0.5521,-0.5521,-0.5362,-0.5323,-0.5243,-0.5165,-0.5051,-0.5207,-0.5246,1.5825,1.5825,1.5825,1.5825,1.5825,1.5825,1.5825,1.5825,1.5825,1.5825,1.5764,1.5718,1.5571,1.5378,1.5177,1.4816,1.4376,1.4175,1.4088,1.4088,1.4088,1.4088,1.4088,1.4088,1.4396,1.4934,1.5015,1.5264,1.5772,1.5825,1.5825,1.5825,1.5825,1.5737,1.5689,1.554,1.5397,1.5213,1.4783,1.4393,1.4052,1.3467,1.2681,1.1672,1.069,1.0004,0.9611,0.9082,0.8684,0.846,0.8113,0.7782,0.7428,0.7152,0.6997,0.6947,0.6893,0.6807,0.6628,0.6422,0.612,0.5729,0.5448,0.5165,0.4743,0.4325,0.3952,0.3577,0.2988,0.2524,0.2245,0.1677,0.1126,0.084,0.0548,0.0337,0.0126,-0.0084,-0.0337,-0.0463,-0.0799,-0.122,-0.1517,-0.1851,-0.2095,-0.2205,-0.2451,-0.2713,-0.2868,-0.3089,-0.3273,-0.3428,-0.3645,-0.3876,-0.3992,-0.446,-0.4735,-0.4774,-0.4815,-0.4815,-0.4854,-0.4932,-0.4893,-0.4932,-0.4932,-0.4971,-0.4971,-0.4896,-0.4854,-0.4815,-0.4774,-0.4735,-0.4621,-0.4737,-0.4735,1.5825,1.5825,1.5825,1.5825,1.5825,1.5825,1.5825,1.5825,1.5825,1.5825,1.5825,1.5825,1.5712,1.5538,1.5438,1.5197,1.4783,1.4416,1.4222,1.4215,1.4128,1.4088,1.4088,1.4088,1.4439,1.4968,1.5216,1.5464,1.5778,1.5825,1.5825,1.5825,1.5825,1.5825,1.5778,1.5635,1.5594,1.5445,1.5118,1.4831,1.4424,1.4034,1.3514,1.2742,1.162,1.0695,1.0157,0.9556,0.9082,0.8727,0.846,0.8069,0.7547,0.7323,0.7187,0.7095,0.7092,0.7054,0.6915,0.6742,0.6517,0.621,0.5835,0.5525,0.531,0.4801,0.4464,0.4077,0.3649,0.3159,0.279,0.2252,0.1675,0.1204,0.0817,0.0602,0.0516,0.0172,-0.0129,-0.0345,-0.0604,-0.086,-0.1116,-0.1418,-0.1628,-0.1745,-0.2039,-0.2275,-0.2398,-0.257,-0.2713,-0.2827,-0.3113,-0.3258,-0.337,-0.3724,-0.4192,-0.427,-0.4423,-0.4345,-0.4307,-0.4307,-0.4345,-0.4345,-0.4384,-0.4345,-0.4307,-0.4268,-0.4231,-0.4231,-0.4229,-0.4268,-0.419,-0.419,-0.4229,1.5825,1.5825,1.5825,1.5825,1.5825,1.5825,1.5825,1.5825,1.5825,1.5825,1.5825,1.5825,1.5812,1.5752,1.5545,1.5398,1.5271,1.4816,1.4549,1.4502,1.4249,1.4128,1.4128,1.4095,1.4396,1.5022,1.5538,1.5792,1.5818,1.5825,1.5825,1.5825,1.5825,1.5825,1.5825,1.5778,1.5683,1.554,1.5445,1.5213,1.4736,1.4418,1.4064,1.3538,1.2742,1.1724,1.0481,1.0132,0.9634,0.9016,0.8732,0.8245,0.7635,0.7507,0.737,0.7143,0.7095,0.7095,0.7095,0.6915,0.6814,0.6634,0.6331,0.5995,0.572,0.5422,0.507,0.4535,0.4229,0.3887,0.3169,0.2852,0.2404,0.1568,0.1202,0.098,0.0758,0.0537,0.0179,-0.0223,-0.0401,-0.0492,-0.0717,-0.1069,-0.1325,-0.1395,-0.1694,-0.1984,-0.1985,-0.2118,-0.2207,-0.2308,-0.2523,-0.2733,-0.2838,-0.2984,-0.3454,-0.3843,-0.4075,-0.4151,-0.4036,-0.4036,-0.3995,-0.3995,-0.3995,-0.3956,-0.388,-0.3804,-0.3763,-0.3763,-0.3802,-0.3802,-0.3763,-0.3763,-0.3763,1.5825,1.5825,1.5825,1.5825,1.5825,1.5825,1.5825,1.5825,1.5825,1.5825,1.5825,1.5825,1.5825,1.5812,1.5725,1.5691,1.5658,1.5297,1.5023,1.4803,1.4529,1.4382,1.4349,1.4188,1.4396,1.5022,1.5551,1.5825,1.5825,1.5825,1.5825,1.5825,1.5825,1.5825,1.5825,1.5825,1.5778,1.573,1.5594,1.5404,1.5213,1.4825,1.4399,1.4076,1.3531,1.2733,1.1796,1.076,1.0133,0.9817,0.9195,0.8512,0.79,0.7591,0.7367,0.7143,0.7095,0.7095,0.7095,0.7054,0.6922,0.6795,0.6659,0.6393,0.6038,0.5769,0.5455,0.5013,0.4612,0.4119,0.3851,0.3224,0.2689,0.2018,0.157,0.1301,0.1122,0.0718,0.0359,0.0135,-0.0179,-0.0404,-0.0538,-0.0807,-0.0939,-0.0933,-0.1197,-0.1452,-0.1554,-0.1706,-0.1944,-0.2044,-0.2209,-0.2251,-0.2329,-0.2471,-0.2765,-0.3113,-0.342,-0.3643,-0.3606,-0.3606,-0.3567,-0.3565,-0.3526,-0.3489,-0.3413,-0.3335,-0.3256,-0.3256,-0.3256,-0.3295,-0.3335,-0.3295,-0.3256,1.5825,1.5825,1.5825,1.5825,1.5825,1.5825,1.5825,1.5825,1.5825,1.5825,1.5825,1.5825,1.5825,1.5825,1.5825,1.5825,1.5758,1.5631,1.5511,1.5374,1.4901,1.4689,1.4689,1.4629,1.478,1.513,1.5605,1.5825,1.5825,1.5825,1.5825,1.5825,1.5825,1.5825,1.5825,1.5825,1.5825,1.5784,1.5689,1.5594,1.5445,1.5159,1.4831,1.4465,1.404,1.3531,1.2786,1.1693,1.0873,1.0367,0.9513,0.8722,0.8084,0.7768,0.7547,0.7279,0.7143,0.7095,0.7095,0.7095,0.7051,0.6922,0.6836,0.6704,0.6349,0.608,0.5769,0.5458,0.5057,0.4565,0.4255,0.3851,0.3226,0.278,0.2108,0.166,0.1436,0.0987,0.0628,0.0448,0.0135,-0.0045,-0.0135,-0.0404,-0.0583,-0.0628,-0.0807,-0.0985,-0.1101,-0.1222,-0.1423,-0.1617,-0.1673,-0.1736,-0.185,-0.1988,-0.2073,-0.2379,-0.2646,-0.287,-0.2981,-0.2981,-0.2979,-0.294,-0.2901,-0.286,-0.2784,-0.2671,-0.2592,-0.2631,-0.271,-0.2631,-0.2592,-0.2592,-0.2553,1.5825,1.5825,1.5825,1.5825,1.5825,1.5825,1.5825,1.5825,1.5825,1.5825,1.5832,1.5879,1.5879,1.5879,1.592,1.5927,1.5872,1.59,1.5967,1.5919,1.5526,1.5158,1.5071,1.526,1.5408,1.5483,1.5725,1.5825,1.5872,1.5832,1.5825,1.5825,1.5825,1.5825,1.5825,1.5825,1.5825,1.5778,1.5784,1.5689,1.5547,1.5493,1.5261,1.4742,1.4424,1.4028,1.3411,1.2638,1.176,1.0667,0.9731,0.8992,0.8363,0.8055,0.7871,0.7567,0.7306,0.7211,0.716,0.7102,0.7095,0.7051,0.6925,0.6792,0.6704,0.6393,0.6035,0.5769,0.55,0.5102,0.4567,0.4253,0.4032,0.3585,0.2735,0.2063,0.1525,0.1256,0.1031,0.0762,0.0583,0.0404,0.0359,-0.0045,-0.0269,-0.0359,-0.0538,-0.0716,-0.0759,-0.0839,-0.0831,-0.0995,-0.1196,-0.1271,-0.1389,-0.1407,-0.1508,-0.1582,-0.1888,-0.21,-0.2399,-0.2433,-0.2472,-0.2433,-0.2314,-0.2235,-0.2196,-0.22,-0.2123,-0.2162,-0.2123,-0.1926,-0.1965,-0.2083,-0.2123,1.5825,1.5825,1.5825,1.5825,1.5825,1.5825,1.5825,1.5825,1.5825,1.5927,1.6076,1.6082,1.6218,1.6393,1.6353,1.64,1.6346,1.6353,1.6393,1.6473,1.6315,1.5881,1.5625,1.5798,1.5904,1.5952,1.6027,1.6076,1.6069,1.5927,1.5825,1.5825,1.5825,1.5825,1.5825,1.5825,1.5825,1.5825,1.5825,1.5784,1.5737,1.5547,1.5356,1.5029,1.4736,1.4304,1.3786,1.3091,1.203,1.0696,1.0024,0.9418,0.888,0.8601,0.8272,0.7943,0.7727,0.7531,0.7334,0.721,0.7109,0.7095,0.7071,0.6969,0.6792,0.6704,0.6393,0.608,0.5769,0.5502,0.5146,0.479,0.4389,0.3851,0.3181,0.2555,0.2063,0.1615,0.1301,0.1211,0.0852,0.0673,0.0583,0.0404,0.0179,0.009,-0.0179,-0.0448,-0.0447,-0.0581,-0.0664,-0.0707,-0.0876,-0.0868,-0.0901,-0.0929,-0.0918,-0.0873,-0.1107,-0.1363,-0.1705,-0.2004,-0.2043,-0.2042,-0.1885,-0.1805,-0.1885,-0.1965,-0.1887,-0.1691,-0.173,-0.1691,-0.1808,-0.1965,-0.1887,1.5879,1.5981,1.5981,1.6021,1.6109,1.6163,1.6116,1.6116,1.6157,1.6204,1.6359,1.6359,1.6447,1.6588,1.6588,1.6588,1.6588,1.6588,1.6683,1.6777,1.6951,1.6657,1.626,1.626,1.6316,1.633,1.6357,1.6346,1.6359,1.6211,1.6069,1.5974,1.5974,1.5933,1.5825,1.5825,1.5825,1.5825,1.5825,1.5825,1.5784,1.5689,1.5499,1.5267,1.4975,1.4598,1.3931,1.3201,1.2145,1.0971,1.0426,0.9968,0.9325,0.8991,0.8707,0.8337,0.8155,0.7923,0.7678,0.7556,0.7392,0.7299,0.7238,0.7111,0.6941,0.6881,0.6659,0.6438,0.608,0.5813,0.5502,0.5102,0.461,0.4162,0.3715,0.3224,0.2599,0.2063,0.1705,0.1525,0.1256,0.0942,0.0897,0.0673,0.0538,0.0448,0.0179,0.0045,-0.0045,-0.0269,-0.0448,-0.0491,-0.0534,-0.0618,-0.07,-0.0691,-0.0725,-0.0637,-0.0629,-0.086,-0.1082,-0.1463,-0.1455,-0.1415,-0.1376,-0.1415,-0.1454,-0.1454,-0.1258,-0.1179,-0.1336,-0.1375,-0.1415,-0.1533,-0.1493,1.6021,1.6218,1.6218,1.6407,1.6541,1.6588,1.6541,1.6588,1.6541,1.6581,1.6636,1.6636,1.6723,1.673,1.6871,1.677,1.6824,1.6918,1.6965,1.72,1.7441,1.7368,1.6879,1.6865,1.6861,1.6774,1.6716,1.6683,1.6636,1.6588,1.6447,1.6312,1.6265,1.6069,1.5927,1.5879,1.5825,1.5825,1.5825,1.5825,1.5825,1.5778,1.5635,1.5452,1.5118,1.4646,1.4022,1.3286,1.2416,1.1178,1.1025,1.0512,0.9746,0.943,0.911,0.8828,0.8585,0.8323,0.8077,0.8002,0.7852,0.7555,0.7485,0.7388,0.7206,0.7042,0.6885,0.6754,0.6408,0.6083,0.5722,0.5322,0.4966,0.4565,0.4387,0.3896,0.3226,0.2601,0.2198,0.193,0.166,0.1391,0.1166,0.0942,0.0762,0.0718,0.0538,0.0359,0.0269,0.0179,0.0,-0.0134,-0.0224,-0.0358,-0.0445,-0.053,-0.0524,-0.0519,-0.0427,-0.0502,-0.0528,-0.076,-0.0712,-0.0748,-0.0944,-0.0943,-0.0864,-0.0786,-0.0709,-0.0746,-0.0943,-0.0825,-0.0707,-0.0904,-0.0982,1.6258,1.6501,1.6494,1.6541,1.6588,1.6588,1.6636,1.6636,1.6636,1.6777,1.6878,1.6932,1.716,1.7441,1.7434,1.7574,1.766,1.7707,1.78,1.7854,1.7947,1.7947,1.7753,1.7753,1.7667,1.7488,1.7239,1.7052,1.6925,1.6777,1.6588,1.6541,1.6501,1.64,1.617,1.6123,1.5974,1.5832,1.5825,1.5825,1.5825,1.5784,1.5683,1.5493,1.5064,1.464,1.4256,1.3829,1.3275,1.2458,1.1657,1.1071,1.0686,1.0153,0.9713,0.9393,0.9068,0.8777,0.8519,0.839,0.8196,0.7934,0.7826,0.7769,0.7506,0.7334,0.7151,0.6989,0.6777,0.6456,0.6035,0.5722,0.5411,0.5102,0.4792,0.4478,0.3987,0.327,0.2778,0.2555,0.2287,0.193,0.166,0.1436,0.1211,0.1031,0.0852,0.0673,0.0628,0.0583,0.0404,0.0224,0.0179,0.009,0.0,-0.0089,-0.0133,-0.0176,-0.0131,-0.0129,-0.0125,-0.0245,-0.0325,-0.044,-0.0629,-0.0591,-0.0479,-0.0555,-0.0557,-0.0593,-0.0553,-0.0516,-0.0478,-0.0554,-0.0517,1.6548,1.6824,1.6911,1.7005,1.7153,1.7239,1.7286,1.7286,1.7286,1.7387,1.7488,1.7535,1.7675,1.7861,1.79,1.7947,1.8087,1.8265,1.8265,1.8311,1.8496,1.8635,1.8643,1.8689,1.8558,1.7994,1.7761,1.7621,1.7481,1.7246,1.7052,1.6911,1.6831,1.6636,1.6454,1.6359,1.6218,1.6028,1.5974,1.5927,1.5825,1.5778,1.5689,1.554,1.5207,1.4927,1.4496,1.4208,1.3829,1.3249,1.2473,1.1688,1.1243,1.0801,1.0413,0.9998,0.9698,0.934,0.911,0.8869,0.8645,0.8321,0.8178,0.799,0.7802,0.7609,0.7442,0.7263,0.7031,0.6697,0.6269,0.6035,0.5813,0.5547,0.5238,0.4926,0.4565,0.3894,0.3269,0.3045,0.2734,0.2422,0.2154,0.1929,0.1795,0.166,0.1256,0.1076,0.0942,0.0897,0.0673,0.0538,0.0538,0.0493,0.0493,0.0403,0.0313,0.0311,0.0354,0.0349,0.0343,0.0169,0.0,-0.0164,-0.0282,-0.0285,-0.0246,-0.0325,-0.0324,-0.0285,-0.0245,-0.0285,-0.0285,-0.0245,-0.0246,1.6878,1.7113,1.734,1.7567,1.7768,1.7947,1.8087,1.8125,1.8133,1.8133,1.8226,1.8226,1.8226,1.8265,1.8319,1.8319,1.8411,1.8596,1.8735,1.8781,1.9058,1.915,1.925,1.9304,1.912,1.8373,1.8226,1.8179,1.8087,1.79,1.7574,1.7426,1.7207,1.7019,1.6777,1.6683,1.6494,1.6265,1.6265,1.6123,1.5927,1.5879,1.5784,1.5588,1.5445,1.5255,1.4879,1.4544,1.4202,1.3931,1.3352,1.2467,1.1731,1.1243,1.1047,1.056,1.0243,0.9989,0.9739,0.944,0.9139,0.878,0.8534,0.8283,0.8138,0.7895,0.7729,0.7587,0.7363,0.6953,0.6559,0.6439,0.6194,0.59,0.5668,0.5431,0.5055,0.4518,0.403,0.3494,0.3224,0.3002,0.269,0.2422,0.2333,0.22,0.1795,0.148,0.1391,0.1301,0.1166,0.1031,0.1031,0.0718,0.0673,0.0673,0.0627,0.0671,0.0715,0.0709,0.0701,0.0479,0.0301,0.0211,0.0125,0.0126,0.0126,0.0125,0.0125,0.0126,0.0126,0.0124,0.0125,0.0084,0.0084,1.7333,1.7628,1.7854,1.7994,1.804,1.8087,1.8272,1.8404,1.845,1.855,1.8689,1.8689,1.8827,1.8958,1.9004,1.915,1.925,1.9396,1.9442,1.9433,1.9571,1.9625,1.9671,1.9716,1.9533,1.9312,1.902,1.8727,1.845,1.8179,1.8087,1.7939,1.7721,1.7441,1.72,1.7019,1.6831,1.6588,1.6548,1.6407,1.6218,1.6076,1.5974,1.5737,1.5588,1.5445,1.5302,1.4879,1.4496,1.4202,1.3877,1.3292,1.2613,1.1932,1.1487,1.1096,1.0801,1.0507,1.0265,1.0019,0.976,0.9489,0.9174,0.8879,0.8612,0.8333,0.812,0.7924,0.7695,0.7353,0.7103,0.6913,0.6836,0.6554,0.6281,0.598,0.5681,0.5295,0.4853,0.4273,0.395,0.358,0.327,0.3004,0.2825,0.2647,0.2333,0.2153,0.2063,0.2018,0.193,0.175,0.157,0.1166,0.0762,0.0807,0.0807,0.0896,0.094,0.094,0.089,0.0758,0.0618,0.0735,0.0639,0.0467,0.0508,0.0509,0.051,0.0427,0.0467,0.0549,0.0468,0.0386,0.0472,1.7846,1.8125,1.8365,1.855,1.8689,1.8835,1.8928,1.9066,1.9066,1.9112,1.9166,1.9204,1.9296,1.9433,1.9517,1.97,1.9936,2.0127,2.0164,2.0164,2.0246,2.0337,2.0292,2.0292,2.0337,2.0246,1.9973,1.9471,1.9112,1.8819,1.8596,1.845,1.8226,1.7986,1.7714,1.7488,1.7254,1.7012,1.6871,1.669,1.64,1.6319,1.6076,1.5832,1.5689,1.5588,1.5445,1.5302,1.4921,1.4538,1.4256,1.3829,1.334,1.2856,1.2273,1.1731,1.1243,1.0949,1.0752,1.0462,1.0064,0.9821,0.9579,0.9282,0.9015,0.8701,0.8436,0.8163,0.7921,0.7628,0.7406,0.7271,0.7129,0.6994,0.6743,0.6528,0.6328,0.604,0.5604,0.5129,0.4645,0.4222,0.3851,0.3583,0.3315,0.3093,0.2869,0.278,0.2735,0.2602,0.2469,0.2288,0.2063,0.1794,0.1391,0.1301,0.1211,0.1256,0.1301,0.1301,0.1346,0.13,0.1428,0.1542,0.1351,0.0907,0.0697,0.0657,0.0698,0.0738,0.074,0.0741,0.0697,0.0698,0.0786,1.8411,1.8673,1.8874,1.9104,1.9371,1.9571,1.9716,1.9808,1.9808,1.9853,1.9891,1.9891,1.9891,1.9936,2.0065,2.0238,2.0473,2.0645,2.069,2.0736,2.0817,2.0952,2.0997,2.0997,2.0907,2.0817,2.0736,2.0391,1.9754,1.9425,1.9196,1.8966,1.8727,1.8496,1.8234,1.8001,1.7714,1.7481,1.7254,1.7019,1.669,1.6359,1.6123,1.5879,1.5825,1.5737,1.5594,1.5493,1.5255,1.4921,1.4634,1.4304,1.4022,1.3781,1.3249,1.2419,1.178,1.1536,1.1243,1.085,1.0507,1.031,0.9974,0.9673,0.9377,0.9057,0.8671,0.8328,0.8053,0.7873,0.7698,0.7508,0.7387,0.7307,0.7162,0.6957,0.6848,0.6604,0.6322,0.5855,0.5322,0.4914,0.4493,0.421,0.3942,0.3764,0.354,0.3315,0.3226,0.3005,0.2871,0.2691,0.2511,0.2378,0.2154,0.2019,0.193,0.1795,0.184,0.184,0.193,0.2019,0.2099,0.2046,0.1737,0.1329,0.1074,0.0987,0.1244,0.1329,0.1117,0.1073,0.1286,0.1284,0.1287,1.8874,1.9142,1.9396,1.9625,1.9837,1.9882,2.0155,2.0518,2.0518,2.069,2.0736,2.0772,2.0727,2.0772,2.0772,2.0862,2.0961,2.1006,2.1087,2.1132,2.1132,2.1177,2.1042,2.0997,2.1177,2.1177,2.1087,2.0682,2.0337,2.0019,1.9754,1.9525,1.9288,1.9004,1.8781,1.8458,1.8265,1.7986,1.7714,1.7402,1.6932,1.6454,1.6265,1.6076,1.5927,1.5778,1.5737,1.5588,1.5445,1.535,1.5124,1.4742,1.4352,1.425,1.3913,1.3389,1.291,1.2419,1.1927,1.1438,1.1096,1.09,1.0605,1.0216,0.9821,0.9377,0.8966,0.8421,0.8347,0.8174,0.7989,0.7914,0.7811,0.7692,0.7501,0.734,0.7178,0.7017,0.6779,0.6637,0.614,0.5612,0.5138,0.4851,0.4569,0.4391,0.421,0.3985,0.376,0.354,0.3274,0.3138,0.3004,0.2871,0.2781,0.2693,0.2603,0.2423,0.2423,0.2423,0.2512,0.2557,0.2378,0.2239,0.2018,0.2018,0.1973,0.1973,0.2019,0.184,0.166,0.1795,0.2062,0.1974,0.1749,1.9828,1.9828,2.011,2.0337,2.051,2.051,2.0637,2.0826,2.0871,2.0907,2.0997,2.0997,2.1042,2.1239,2.1195,2.1374,2.1544,2.1588,2.1678,2.1758,2.1758,2.1758,2.1802,2.1802,2.1811,2.1722,2.1633,2.1499,2.1051,2.069,2.0419,2.0201,1.9973,1.97,1.9333,1.8912,1.8635,1.8357,1.7994,1.7535,1.716,1.6831,1.6508,1.6224,1.6076,1.5974,1.5832,1.5737,1.5588,1.554,1.5356,1.5172,1.479,1.4592,1.4352,1.3968,1.3636,1.3104,1.2516,1.2127,1.178,1.1389,1.1047,1.0605,1.0117,0.9677,0.9282,0.8882,0.873,0.8531,0.8283,0.8233,0.8107,0.796,0.7821,0.7749,0.7576,0.7369,0.7187,0.7089,0.6888,0.6343,0.585,0.5465,0.5126,0.4879,0.4701,0.4565,0.4385,0.4164,0.3896,0.3628,0.3496,0.3363,0.3274,0.323,0.3229,0.3139,0.3139,0.3094,0.3094,0.305,0.2914,0.296,0.2959,0.2959,0.296,0.2602,0.2288,0.2243,0.22,0.2333,0.2423,0.2199,0.2064,2.0789,2.0654,2.0744,2.0871,2.1096,2.1132,2.1221,2.1275,2.1347,2.1356,2.1356,2.1401,2.1499,2.1607,2.1696,2.183,2.2141,2.2185,2.2264,2.2353,2.2397,2.2344,2.2299,2.2344,2.2344,2.2397,2.2176,2.1998,2.1811,2.1499,2.1186,2.0781,2.0555,2.0292,1.9928,1.9517,1.9142,1.8681,1.8272,1.7854,1.7434,1.716,1.6831,1.6548,1.6312,1.617,1.5927,1.5879,1.5832,1.5635,1.5588,1.5452,1.5166,1.5022,1.4783,1.4496,1.4214,1.3829,1.3292,1.2807,1.237,1.1932,1.1389,1.0904,1.0458,1.0019,0.9628,0.9282,0.913,0.8878,0.8577,0.8531,0.8372,0.8219,0.8117,0.8084,0.7975,0.7769,0.7612,0.7492,0.7324,0.7121,0.6601,0.6085,0.5739,0.5379,0.5233,0.5144,0.4921,0.4699,0.4518,0.4206,0.4164,0.3989,0.39,0.3855,0.3855,0.381,0.3765,0.3765,0.3674,0.3674,0.3674,0.3719,0.3764,0.3719,0.3585,0.305,0.2557,0.2736,0.2826,0.2691,0.2645,0.2511,0.2422,2.1482,2.1553,2.1186,2.115,2.1437,2.1607,2.1785,2.1954,2.2176,2.2211,2.2167,2.2264,2.2211,2.2264,2.222,2.2264,2.2397,2.2353,2.2441,2.2441,2.2397,2.2485,2.2485,2.2485,2.2485,2.2485,2.2397,2.2397,2.2353,2.2176,2.1678,2.1087,2.1006,2.069,2.0374,2.011,1.9554,1.9096,1.8689,1.8272,1.7807,1.7434,1.7153,1.6925,1.6683,1.6447,1.6218,1.617,1.6028,1.5778,1.573,1.5683,1.5452,1.5356,1.5159,1.4975,1.4742,1.4406,1.4064,1.3437,1.2953,1.2516,1.1932,1.1292,1.09,1.0556,1.0167,0.9673,0.9525,0.9274,0.8973,0.8775,0.863,0.8482,0.8333,0.8233,0.8187,0.8077,0.7928,0.7885,0.7713,0.7446,0.7269,0.6777,0.6306,0.5981,0.5725,0.5633,0.5322,0.5142,0.5008,0.4875,0.483,0.4746,0.4614,0.4525,0.4389,0.43,0.4255,0.4255,0.4255,0.4255,0.4253,0.4255,0.4255,0.4255,0.421,0.3808,0.354,0.3496,0.3451,0.3317,0.3227,0.3136,0.3047,2.1963,2.2132,2.1945,2.19,2.2008,2.2087,2.2176,2.2264,2.2397,2.2397,2.2388,2.2397,2.2397,2.2397,2.2397,2.2485,2.2618,2.2662,2.2706,2.2794,2.2838,2.2838,2.2838,2.2794,2.2838,2.2794,2.2706,2.2618,2.2618,2.253,2.2299,2.1847,2.1588,2.1284,2.0979,2.0518,1.9965,1.9509,1.9058,1.8604,1.8411,1.7807,1.7434,1.7192,1.6972,1.673,1.6447,1.6265,1.617,1.6028,1.5879,1.5784,1.5689,1.5594,1.5452,1.5309,1.5077,1.4885,1.4688,1.4022,1.3394,1.2813,1.237,1.1927,1.1389,1.1002,1.0605,1.0261,0.9969,0.9723,0.9377,0.913,0.8931,0.873,0.8581,0.8482,0.8382,0.8283,0.8134,0.806,0.7934,0.7766,0.7581,0.7392,0.6953,0.6545,0.6323,0.6077,0.5764,0.5586,0.5497,0.5364,0.5319,0.5233,0.5057,0.4968,0.4877,0.4832,0.479,0.479,0.479,0.4743,0.4743,0.4699,0.4701,0.4746,0.4701,0.4565,0.4387,0.4121,0.3987,0.3942,0.3853,0.3762,0.3673,2.2309,2.253,2.252,2.2485,2.2397,2.2485,2.252,2.253,2.2618,2.2608,2.2608,2.2618,2.2618,2.2618,2.2618,2.2706,2.2838,2.2882,2.2969,2.3013,2.3057,2.3101,2.3101,2.3101,2.3057,2.3047,2.3013,2.2882,2.2882,2.2706,2.2574,2.2397,2.2185,2.1874,2.1383,2.088,2.0374,1.9928,1.9608,1.9012,1.8827,1.8319,1.7861,1.7613,1.734,1.7113,1.6871,1.6643,1.6454,1.6265,1.6116,1.5927,1.5832,1.5737,1.5642,1.5499,1.5356,1.522,1.5029,1.4502,1.3781,1.3298,1.2861,1.237,1.1883,1.1541,1.1194,1.0708,1.0462,1.0216,0.9871,0.9624,0.9381,0.9175,0.8931,0.8832,0.863,0.8531,0.8333,0.8226,0.8103,0.803,0.7823,0.7617,0.7191,0.6772,0.6442,0.6296,0.6163,0.603,0.5944,0.5852,0.5764,0.5589,0.5455,0.55,0.5542,0.5544,0.55,0.5413,0.5369,0.5277,0.5191,0.5193,0.5193,0.5191,0.5191,0.5104,0.4879,0.4612,0.4523,0.4433,0.4431,0.434,0.4253,2.2574,2.2759,2.2794,2.2662,2.2476,2.2662,2.2803,2.2794,2.2969,2.3003,2.3013,2.3013,2.3013,2.3013,2.2969,2.3013,2.3013,2.3057,2.3101,2.3101,2.3101,2.3101,2.3101,2.3101,2.3101,2.3101,2.3057,2.3057,2.3057,2.3013,2.2882,2.2803,2.2627,2.2318,2.1731,2.1221,2.0772,2.0337,2.0238,1.9646,1.9142,1.8827,1.8458,1.8133,1.7854,1.7574,1.7246,1.7012,1.6784,1.6588,1.6359,1.617,1.6123,1.5933,1.5784,1.573,1.5588,1.5493,1.5404,1.4736,1.4208,1.3786,1.3346,1.2861,1.2662,1.2273,1.1785,1.1345,1.11,1.0855,1.0511,1.0117,0.9871,0.9624,0.943,0.9183,0.9027,0.8779,0.8634,0.8482,0.8382,0.8312,0.8021,0.7729,0.7353,0.6989,0.6605,0.6473,0.6473,0.6432,0.6343,0.6254,0.6121,0.603,0.5941,0.6163,0.6251,0.6254,0.6121,0.5944,0.5858,0.5772,0.5727,0.5686,0.5683,0.568,0.5683,0.5688,0.546,0.5233,0.5057,0.4966,0.4966,0.4875,0.4788,2.2794,2.3013,2.3013,2.2969,2.2872,2.2969,2.3013,2.3003,2.3047,2.3101,2.3101,2.3101,2.3101,2.3101,2.3101,2.3101,2.3101,2.3101,2.3101,2.3101,2.3101,2.3101,2.3101,2.3101,2.3101,2.3101,2.3101,2.3101,2.3101,2.3101,2.3101,2.3013,2.2847,2.2495,2.2052,2.1642,2.1284,2.0979,2.0564,2.011,1.9737,1.9333,1.892,1.8589,1.8365,1.804,1.7621,1.7387,1.7153,1.6871,1.6643,1.6454,1.6265,1.6076,1.5981,1.5879,1.5683,1.5642,1.554,1.5112,1.4777,1.4304,1.3781,1.3346,1.3055,1.2716,1.237,1.2029,1.1688,1.1345,1.0949,1.0708,1.0413,1.0167,0.992,0.9624,0.9426,0.9183,0.8985,0.8779,0.8627,0.8466,0.8237,0.8073,0.7731,0.7419,0.7072,0.6853,0.6833,0.6745,0.6615,0.6567,0.6476,0.6428,0.6428,0.6517,0.6517,0.6476,0.6387,0.6296,0.621,0.6171,0.6124,0.608,0.6124,0.6166,0.608,0.6038,0.608,0.5944,0.5633,0.5413,0.5366,0.5233,0.5102,2.296,2.3101,2.3101,2.3101,2.3101,2.3101,2.3101,2.3101,2.3101,2.3101,2.3101,2.3101,2.3101,2.3101,2.3101,2.3101,2.3101,2.3101,2.3101,2.3101,2.3101,2.3101,2.3101,2.3101,2.3101,2.3101,2.3101,2.3101,2.3101,2.3101,2.3101,2.3057,2.2969,2.2706,2.2353,2.2008,2.1696,2.1383,2.097,2.0564,2.0192,1.9828,1.9425,1.9104,1.8781,1.845,1.8087,1.7761,1.7481,1.7254,1.6972,1.673,1.6501,1.6272,1.617,1.5974,1.5832,1.5737,1.5635,1.5493,1.5159,1.4825,1.4358,1.3925,1.3534,1.3244,1.2856,1.2516,1.2175,1.1834,1.1541,1.1243,1.0998,1.0708,1.0413,1.0162,0.992,0.9677,0.948,0.9225,0.9015,0.8792,0.8485,0.8345,0.8175,0.7877,0.7549,0.7372,0.7153,0.7013,0.6881,0.6833,0.6789,0.6741,0.6694,0.6738,0.6738,0.665,0.6605,0.652,0.6476,0.639,0.6432,0.6428,0.634,0.6299,0.634,0.6384,0.6343,0.6254,0.6121,0.5902,0.5769,0.5636,0.5547,2.3101,2.3101,2.3101,2.3101,2.3101,2.3101,2.3101,2.3101,2.3101,2.3101,2.3101,2.3101,2.3101,2.3101,2.3101,2.3101,2.3101,2.3101,2.3101,2.3101,2.3101,2.3101,2.3101,2.3101,2.3101,2.3101,2.3101,2.3101,2.3101,2.3101,2.3101,2.3101,2.3057,2.2925,2.2662,2.2362,2.2052,2.1696,2.1428,2.0979,2.0609,2.0337,2.0019,1.9662,1.9242,1.8966,1.8643,1.8311,1.7994,1.7721,1.7434,1.72,1.6918,1.6508,1.6319,1.613,1.5933,1.5879,1.5737,1.5588,1.554,1.5255,1.4777,1.449,1.4154,1.3775,1.3389,1.3098,1.2759,1.2419,1.2127,1.1834,1.1536,1.1292,1.0998,1.0703,1.0511,1.0265,1.0068,0.9817,0.9624,0.9337,0.8966,0.8736,0.8568,0.816,0.7872,0.7649,0.7474,0.7234,0.7102,0.701,0.7007,0.7051,0.7051,0.6962,0.6918,0.6874,0.6833,0.6789,0.67,0.6653,0.6653,0.6605,0.6517,0.6517,0.6605,0.6605,0.652,0.6476,0.6476,0.6299,0.6124,0.6166,0.6118,2.3101,2.3101,2.3101,2.3101,2.3101,2.3101,2.3101,2.3101,2.3101,2.3101,2.3101,2.3101,2.3101,2.3101,2.3101,2.3101,2.3101,2.3101,2.3101,2.3101,2.3101,2.3101,2.3101,2.3101,2.3101,2.3101,2.3101,2.3101,2.3101,2.3101,2.3101,2.3101,2.3101,2.3057,2.2925,2.2759,2.2362,2.2061,2.1785,2.1383,2.106,2.088,2.0518,2.011,1.9882,1.9563,1.9142,1.8827,1.8512,1.8226,1.7815,1.7488,1.7192,1.6925,1.6697,1.6224,1.6123,1.6028,1.5832,1.5737,1.573,1.5683,1.5302,1.4975,1.464,1.4304,1.3919,1.3582,1.334,1.305,1.271,1.2419,1.217,1.1878,1.1585,1.134,1.11,1.085,1.0605,1.031,1.0113,0.9817,0.9456,0.9243,0.9005,0.8536,0.8205,0.8011,0.7789,0.7542,0.7367,0.7275,0.7228,0.7275,0.7187,0.7098,0.7095,0.7095,0.7098,0.7098,0.7054,0.7007,0.6918,0.6918,0.6918,0.6918,0.6915,0.6874,0.6833,0.6874,0.6874,0.6697,0.652,0.6517,0.6517,2.3101,2.3101,2.3101,2.3101,2.3101,2.3101,2.3101,2.3101,2.3101,2.3101,2.3101,2.3101,2.3101,2.3101,2.3101,2.3101,2.3101,2.3101,2.3101,2.3101,2.3101,2.3101,2.3101,2.3101,2.3101,2.3101,2.3101,2.3101,2.3101,2.3101,2.3101,2.3101,2.3101,2.3101,2.3057,2.2925,2.275,2.2407,2.2052,2.1785,2.1508,2.1284,2.0925,2.0645,2.0473,2.0011,1.9646,1.9342,1.8974,1.8689,1.8234,1.7908,1.7527,1.7167,1.6838,1.6454,1.6359,1.6218,1.6028,1.5981,1.5879,1.5832,1.5689,1.5397,1.5118,1.4783,1.44,1.4064,1.3871,1.363,1.334,1.305,1.2759,1.2516,1.2224,1.198,1.1736,1.1438,1.1145,1.0801,1.0511,1.0265,0.9969,0.9772,0.9592,0.9303,0.8956,0.8658,0.8317,0.7916,0.7738,0.7584,0.754,0.7496,0.7408,0.7363,0.7408,0.7452,0.7496,0.7496,0.7408,0.7408,0.7408,0.7408,0.7408,0.7408,0.7363,0.7275,0.7234,0.7231,0.7187,0.6962,0.683,0.683,0.6786,2.3101,2.3101,2.3101,2.3101,2.3101,2.3101,2.3101,2.3101,2.3101,2.3101,2.3101,2.3101,2.3101,2.3101,2.3101,2.3101,2.3101,2.3101,2.3101,2.3101,2.3101,2.3101,2.3101,2.3101,2.3101,2.3101,2.3101,2.3101,2.3101,2.3101,2.3101,2.3101,2.3101,2.3101,2.3091,2.3091,2.2925,2.275,2.2397,2.2087,2.182,2.1562,2.1338,2.1051,2.0736,2.0382,2.0255,1.9891,1.9442,1.9104,1.8689,1.8365,1.7861,1.7355,1.7019,1.6784,1.6683,1.6501,1.6312,1.6218,1.6123,1.5974,1.5832,1.573,1.5499,1.5213,1.4831,1.4544,1.4352,1.4064,1.3775,1.3582,1.3389,1.3098,1.2807,1.2565,1.237,1.2024,1.1683,1.134,1.1047,1.0757,1.0609,1.0404,1.0089,0.9979,0.9648,0.9288,0.8931,0.8443,0.8107,0.794,0.7764,0.772,0.772,0.772,0.7768,0.7856,0.7852,0.7808,0.7676,0.7764,0.79,0.7764,0.7676,0.7764,0.7768,0.7635,0.7547,0.7503,0.7411,0.7231,0.7143,0.7143,0.7007,2.3101,2.3101,2.3101,2.3101,2.3101,2.3101,2.3101,2.3101,2.3101,2.3101,2.3101,2.3101,2.3101,2.3101,2.3101,2.3101,2.3101,2.3101,2.3101,2.3101,2.3101,2.3101,2.3101,2.3101,2.3101,2.3101,2.3101,2.3101,2.3101,2.3101,2.3101,2.3101,2.3101,2.3101,2.3101,2.3101,2.3057,2.2969,2.275,2.2485,2.2211,2.2052,2.183,2.1553,2.1239,2.097,2.0744,2.0374,2.0102,1.9874,1.915,1.8596,1.8032,1.7721,1.7441,1.7145,1.7019,1.6784,1.6595,1.6494,1.64,1.6353,1.6211,1.6123,1.5933,1.5594,1.5309,1.5022,1.479,1.4496,1.4256,1.4112,1.3968,1.3678,1.3394,1.3201,1.2958,1.2565,1.2175,1.1878,1.1585,1.1389,1.1243,1.1005,1.0678,1.0332,0.9951,0.9624,0.9492,0.9091,0.8548,0.8336,0.7984,0.794,0.7988,0.812,0.8208,0.812,0.8116,0.8032,0.7944,0.7988,0.8076,0.7944,0.79,0.7988,0.8032,0.79,0.7812,0.7768,0.768,0.7544,0.7588,0.7588,0.7363,2.3101,2.3101,2.3101,2.3101,2.3101,2.3101,2.3101,2.3101,2.3101,2.3101,2.3101,2.3101,2.3101,2.3101,2.3101,2.3101,2.3101,2.3101,2.3101,2.3101,2.3101,2.3101,2.3101,2.3101,2.3101,2.3101,2.3101,2.3101,2.3101,2.3101,2.3101,2.3101,2.3101,2.3101,2.3101,2.3101,2.3101,2.3101,2.2969,2.2838,2.2652,2.2397,2.2141,2.1874,2.1651,2.1428,2.115,2.0781,2.051,2.0147,1.9425,1.892,1.8458,1.8179,1.7947,1.766,1.7434,1.716,1.6965,1.6871,1.6777,1.6636,1.6494,1.6353,1.6353,1.6062,1.573,1.5493,1.5261,1.4968,1.479,1.4646,1.4454,1.4262,1.3968,1.3727,1.3437,1.3104,1.2807,1.2559,1.2316,1.2127,1.1932,1.1629,1.1351,1.1187,1.0726,1.0362,1.0154,0.9798,0.9248,0.8863,0.864,0.8512,0.8692,0.8736,0.8692,0.8604,0.8424,0.8472,0.8516,0.834,0.8212,0.8208,0.8252,0.8252,0.8208,0.8164,0.8072,0.8028,0.7944,0.7856,0.7944,0.8032,0.7808,2.3101,2.3101,2.3101,2.3101,2.3101,2.3101,2.3101,2.3101,2.3101,2.3101,2.3101,2.3101,2.3101,2.3101,2.3101,2.3101,2.3101,2.3101,2.3101,2.3101,2.3101,2.3101,2.3101,2.3101,2.3101,2.3101,2.3101,2.3101,2.3101,2.3101,2.3101,2.3101,2.3101,2.3101,2.3101,2.3101,2.3101,2.3101,2.3057,2.3101,2.2925,2.2706,2.2451,2.2185,2.1919,2.1687,2.1463,2.1195,2.088,2.0382,1.9837,1.9333,1.892,1.8635,1.8411,1.8133,1.7854,1.7621,1.7434,1.7293,1.7106,1.6918,1.6777,1.6676,1.6676,1.6487,1.6157,1.5967,1.573,1.5499,1.5267,1.5083,1.4933,1.4742,1.4448,1.4202,1.3871,1.3588,1.3437,1.319,1.2953,1.2759,1.2565,1.2268,1.2086,1.1971,1.167,1.135,1.0927,1.0447,0.9951,0.9731,0.9554,0.9515,0.9305,0.9218,0.913,0.9043,0.8907,0.8999,0.8999,0.8823,0.8692,0.8696,0.8696,0.8692,0.8648,0.86,0.8468,0.842,0.8424,0.8424,0.8424,0.8424,0.8292,2.3101,2.3101,2.3101,2.3101,2.3101,2.3101,2.3101,2.3101,2.3101,2.3101,2.3101,2.3101,2.3101,2.3101,2.3101,2.3101,2.3101,2.3101,2.3101,2.3101,2.3101,2.3101,2.3101,2.3101,2.3101,2.3101,2.3101,2.3101,2.3101,2.3101,2.3101,2.3101,2.3101,2.3101,2.3101,2.3101,2.3101,2.3101,2.3101,2.3101,2.3057,2.2882,2.275,2.2574,2.2397,2.2176,2.1963,2.1687,2.1463,2.106,2.0473,1.9928,1.9471,1.9104,1.8874,1.8643,1.8326,1.8087,1.7947,1.7846,1.766,1.7574,1.7426,1.7192,1.7052,1.6824,1.6581,1.644,1.6204,1.5879,1.5642,1.5499,1.5356,1.5124,1.4831,1.4592,1.431,1.416,1.3962,1.3727,1.3437,1.334,1.3292,1.305,1.2802,1.2614,1.2278,1.1958,1.1687,1.1196,1.0686,1.0553,1.043,0.9864,0.9476,0.9476,0.9432,0.9393,0.9349,0.9432,0.9388,0.9257,0.9174,0.9174,0.9174,0.9174,0.9126,0.9082,0.9082,0.9038,0.9082,0.9082,0.8995,0.8907,0.8775]}]]